Wetterdaten: Mittwoch, 20.11.2024
Datum Zeit Temp. I. Temp. A. Feuchte I. Feuchte A. Luftdruck Regen Wind Richtung Richtung Sonnenschein Solar Taupunkt Windchill Windböen
20.11.2024 00:00 20,7 °C 2,2 °C 55 % 89 % 991,3 hPa 0,0 l/m² 17,6 km/h (3 Bft) W-NW 289 ° 0 min 0 W/m² 0,6 °C -5,7 °C 25,7 km/h (4 Bft)
20.11.2024 00:01 20,7 °C 2,2 °C 55 % 89 % 991,3 hPa 0,0 l/m² 15,7 km/h (3 Bft) W 277 ° 0 min 0 W/m² 0,6 °C -4,7 °C 25,7 km/h (4 Bft)
20.11.2024 00:02 20,7 °C 2,2 °C 55 % 89 % 991,4 hPa 0,0 l/m² 13,0 km/h (3 Bft) W-SW 257 ° 0 min 0 W/m² 0,6 °C -3,1 °C 20,9 km/h (4 Bft)
20.11.2024 00:04 20,7 °C 2,2 °C 55 % 89 % 991,3 hPa 0,0 l/m² 13,1 km/h (3 Bft) W 276 ° 0 min 0 W/m² 0,6 °C -3,2 °C 22,5 km/h (4 Bft)
20.11.2024 00:06 20,7 °C 2,2 °C 55 % 89 % 991,3 hPa 0,0 l/m² 12,6 km/h (3 Bft) W-NW 285 ° 0 min 0 W/m² 0,6 °C -2,9 °C 22,5 km/h (4 Bft)
20.11.2024 00:08 20,7 °C 2,2 °C 55 % 89 % 991,3 hPa 0,0 l/m² 12,0 km/h (2 Bft) NW 308 ° 0 min 0 W/m² 0,6 °C -2,5 °C 19,3 km/h (3 Bft)
20.11.2024 00:10 20,7 °C 2,2 °C 55 % 89 % 991,3 hPa 0,0 l/m² 14,8 km/h (3 Bft) W-NW 294 ° 0 min 0 W/m² 0,6 °C -4,2 °C 24,1 km/h (4 Bft)
20.11.2024 00:11 20,7 °C 2,2 °C 55 % 89 % 991,3 hPa 0,0 l/m² 15,9 km/h (3 Bft) W-NW 290 ° 0 min 0 W/m² 0,6 °C -4,8 °C 20,9 km/h (4 Bft)
20.11.2024 00:13 20,7 °C 2,2 °C 55 % 89 % 991,3 hPa 0,0 l/m² 15,2 km/h (3 Bft) W 273 ° 0 min 0 W/m² 0,6 °C -4,4 °C 27,4 km/h (5 Bft)
20.11.2024 00:15 20,7 °C 2,2 °C 55 % 89 % 991,3 hPa 0,0 l/m² 12,2 km/h (2 Bft) W 281 ° 0 min 0 W/m² 0,6 °C -2,6 °C 22,5 km/h (4 Bft)
20.11.2024 00:17 20,7 °C 2,2 °C 55 % 89 % 991,4 hPa 0,0 l/m² 11,7 km/h (2 Bft) W-NW 295 ° 0 min 0 W/m² 0,6 °C -2,3 °C 17,7 km/h (3 Bft)
20.11.2024 00:19 20,7 °C 2,2 °C 55 % 89 % 991,3 hPa 0,0 l/m² 15,2 km/h (3 Bft) W 265 ° 0 min 0 W/m² 0,6 °C -4,4 °C 25,7 km/h (4 Bft)
20.11.2024 00:21 20,7 °C 2,2 °C 55 % 89 % 991,3 hPa 0,0 l/m² 11,0 km/h (2 Bft) W 274 ° 0 min 0 W/m² 0,6 °C -1,8 °C 19,3 km/h (3 Bft)
20.11.2024 00:22 20,8 °C 2,2 °C 55 % 89 % 991,3 hPa 0,0 l/m² 11,6 km/h (2 Bft) W-NW 286 ° 0 min 0 W/m² 0,6 °C -2,2 °C 17,7 km/h (3 Bft)
20.11.2024 00:23 20,8 °C 2,2 °C 55 % 89 % 991,3 hPa 0,0 l/m² 11,2 km/h (2 Bft) W 277 ° 0 min 0 W/m² 0,6 °C -1,9 °C 17,7 km/h (3 Bft)
20.11.2024 00:24 20,7 °C 2,3 °C 55 % 89 % 991,3 hPa 0,0 l/m² 13,8 km/h (3 Bft) W-NW 283 ° 0 min 0 W/m² 0,7 °C -3,5 °C 22,5 km/h (4 Bft)
20.11.2024 00:26 20,8 °C 2,3 °C 55 % 89 % 991,3 hPa 0,0 l/m² 15,9 km/h (3 Bft) W-NW 286 ° 0 min 0 W/m² 0,7 °C -4,7 °C 25,7 km/h (4 Bft)
20.11.2024 00:28 20,7 °C 2,3 °C 55 % 89 % 991,3 hPa 0,0 l/m² 14,9 km/h (3 Bft) NW 309 ° 0 min 0 W/m² 0,7 °C -4,1 °C 22,5 km/h (4 Bft)
20.11.2024 00:30 20,7 °C 2,3 °C 55 % 89 % 991,3 hPa 0,0 l/m² 13,4 km/h (3 Bft) W 278 ° 0 min 0 W/m² 0,7 °C -3,3 °C 19,3 km/h (3 Bft)
20.11.2024 00:31 20,7 °C 2,3 °C 55 % 89 % 991,4 hPa 0,0 l/m² 13,8 km/h (3 Bft) W 263 ° 0 min 0 W/m² 0,7 °C -3,5 °C 22,5 km/h (4 Bft)
20.11.2024 00:33 20,8 °C 2,3 °C 55 % 89 % 991,3 hPa 0,0 l/m² 14,0 km/h (3 Bft) W-NW 286 ° 0 min 0 W/m² 0,7 °C -3,6 °C 22,5 km/h (4 Bft)
20.11.2024 00:35 20,8 °C 2,3 °C 55 % 89 % 991,4 hPa 0,0 l/m² 16,2 km/h (3 Bft) W 274 ° 0 min 0 W/m² 0,7 °C -4,8 °C 24,1 km/h (4 Bft)
20.11.2024 00:37 20,8 °C 2,3 °C 55 % 89 % 991,4 hPa 0,0 l/m² 15,4 km/h (3 Bft) W 278 ° 0 min 0 W/m² 0,7 °C -4,4 °C 24,1 km/h (4 Bft)
20.11.2024 00:39 20,8 °C 2,3 °C 55 % 89 % 991,3 hPa 0,0 l/m² 12,9 km/h (3 Bft) NW 311 ° 0 min 0 W/m² 0,7 °C -2,9 °C 22,5 km/h (4 Bft)
20.11.2024 00:41 20,8 °C 2,3 °C 55 % 89 % 991,4 hPa 0,0 l/m² 15,6 km/h (3 Bft) W 269 ° 0 min 0 W/m² 0,7 °C -4,5 °C 22,5 km/h (4 Bft)
20.11.2024 00:42 20,8 °C 2,3 °C 55 % 89 % 991,4 hPa 0,0 l/m² 10,4 km/h (2 Bft) W-SW 247 ° 0 min 0 W/m² 0,7 °C -1,2 °C 22,5 km/h (4 Bft)
20.11.2024 00:43 20,8 °C 2,3 °C 55 % 89 % 991,4 hPa 0,0 l/m² 10,4 km/h (2 Bft) W-NW 289 ° 0 min 0 W/m² 0,7 °C -1,2 °C 17,7 km/h (3 Bft)
20.11.2024 00:45 20,8 °C 2,3 °C 55 % 89 % 991,4 hPa 0,0 l/m² 17,7 km/h (3 Bft) W 277 ° 0 min 0 W/m² 0,7 °C -5,6 °C 25,7 km/h (4 Bft)
20.11.2024 00:46 20,8 °C 2,3 °C 55 % 89 % 991,4 hPa 0,0 l/m² 13,4 km/h (3 Bft) W-NW 284 ° 0 min 0 W/m² 0,7 °C -3,3 °C 25,7 km/h (4 Bft)
20.11.2024 00:48 20,8 °C 2,3 °C 55 % 89 % 991,4 hPa 0,0 l/m² 11,4 km/h (2 Bft) W 267 ° 0 min 0 W/m² 0,7 °C -1,9 °C 25,7 km/h (4 Bft)
20.11.2024 00:50 20,8 °C 2,3 °C 55 % 89 % 991,4 hPa 0,0 l/m² 19,0 km/h (3 Bft) W 275 ° 0 min 0 W/m² 0,7 °C -6,2 °C 29,0 km/h (5 Bft)
20.11.2024 00:51 20,8 °C 2,3 °C 55 % 89 % 991,4 hPa 0,0 l/m² 18,7 km/h (3 Bft) W 270 ° 0 min 0 W/m² 0,7 °C -6,1 °C 27,4 km/h (5 Bft)
20.11.2024 00:52 20,8 °C 2,3 °C 55 % 89 % 991,4 hPa 0,0 l/m² 14,7 km/h (3 Bft) W-NW 286 ° 0 min 0 W/m² 0,7 °C -4,0 °C 19,3 km/h (3 Bft)
20.11.2024 00:53 20,8 °C 2,3 °C 55 % 89 % 991,5 hPa 0,0 l/m² 15,2 km/h (3 Bft) W 281 ° 0 min 0 W/m² 0,7 °C -4,3 °C 20,9 km/h (4 Bft)
20.11.2024 00:55 20,7 °C 2,3 °C 55 % 89 % 991,5 hPa 0,0 l/m² 17,6 km/h (3 Bft) W 278 ° 0 min 0 W/m² 0,7 °C -5,6 °C 24,1 km/h (4 Bft)
20.11.2024 00:56 20,7 °C 2,3 °C 55 % 89 % 991,5 hPa 0,0 l/m² 13,8 km/h (3 Bft) W 279 ° 0 min 0 W/m² 0,7 °C -3,5 °C 20,9 km/h (4 Bft)
20.11.2024 00:58 20,7 °C 2,3 °C 56 % 89 % 991,6 hPa 0,0 l/m² 13,2 km/h (3 Bft) W 276 ° 0 min 0 W/m² 0,7 °C -3,1 °C 20,9 km/h (4 Bft)
20.11.2024 01:00 20,8 °C 2,3 °C 56 % 89 % 991,6 hPa 0,0 l/m² 15,5 km/h (3 Bft) W 272 ° 0 min 0 W/m² 0,7 °C -4,5 °C 24,1 km/h (4 Bft)
20.11.2024 01:01 20,7 °C 2,4 °C 56 % 89 % 991,6 hPa 0,0 l/m² 13,4 km/h (3 Bft) W-NW 288 ° 0 min 0 W/m² 0,8 °C -3,1 °C 20,9 km/h (4 Bft)
20.11.2024 01:02 20,7 °C 2,3 °C 56 % 89 % 991,6 hPa 0,0 l/m² 11,7 km/h (2 Bft) NW 305 ° 0 min 0 W/m² 0,7 °C -2,1 °C 19,3 km/h (3 Bft)
20.11.2024 01:03 20,8 °C 2,3 °C 56 % 89 % 991,6 hPa 0,0 l/m² 12,2 km/h (2 Bft) W 271 ° 0 min 0 W/m² 0,7 °C -2,5 °C 19,3 km/h (3 Bft)
20.11.2024 01:05 20,8 °C 2,3 °C 56 % 89 % 991,5 hPa 0,0 l/m² 11,0 km/h (2 Bft) W-NW 291 ° 0 min 0 W/m² 0,7 °C -1,7 °C 22,5 km/h (4 Bft)
20.11.2024 01:07 20,7 °C 2,3 °C 56 % 89 % 991,6 hPa 0,0 l/m² 13,4 km/h (3 Bft) W-NW 288 ° 0 min 0 W/m² 0,7 °C -3,3 °C 19,3 km/h (3 Bft)
20.11.2024 01:09 20,8 °C 2,3 °C 56 % 89 % 991,6 hPa 0,0 l/m² 11,4 km/h (2 Bft) W-NW 292 ° 0 min 0 W/m² 0,7 °C -1,9 °C 19,3 km/h (3 Bft)
20.11.2024 01:10 20,7 °C 2,3 °C 56 % 89 % 991,6 hPa 0,0 l/m² 12,0 km/h (2 Bft) W-NW 292 ° 0 min 0 W/m² 0,7 °C -2,4 °C 22,5 km/h (4 Bft)
20.11.2024 01:11 20,7 °C 2,3 °C 56 % 88 % 991,6 hPa 0,0 l/m² 14,8 km/h (3 Bft) W 281 ° 0 min 0 W/m² 0,5 °C -4,1 °C 20,9 km/h (4 Bft)
20.11.2024 01:12 20,7 °C 2,3 °C 56 % 88 % 991,7 hPa 0,0 l/m² 15,6 km/h (3 Bft) W 276 ° 0 min 0 W/m² 0,5 °C -4,5 °C 20,9 km/h (4 Bft)
20.11.2024 01:14 20,8 °C 2,3 °C 56 % 88 % 991,7 hPa 0,0 l/m² 15,5 km/h (3 Bft) NW 306 ° 0 min 0 W/m² 0,5 °C -4,5 °C 20,9 km/h (4 Bft)
20.11.2024 01:16 20,8 °C 2,2 °C 56 % 88 % 991,7 hPa 0,0 l/m² 15,9 km/h (3 Bft) W-NW 286 ° 0 min 0 W/m² 0,4 °C -4,8 °C 24,1 km/h (4 Bft)
20.11.2024 01:18 20,8 °C 2,2 °C 56 % 88 % 991,7 hPa 0,0 l/m² 17,1 km/h (3 Bft) W-SW 257 ° 0 min 0 W/m² 0,4 °C -5,4 °C 27,4 km/h (5 Bft)
20.11.2024 01:20 20,8 °C 2,2 °C 56 % 88 % 991,7 hPa 0,0 l/m² 18,9 km/h (3 Bft) W 277 ° 0 min 0 W/m² 0,4 °C -6,3 °C 27,4 km/h (5 Bft)
20.11.2024 01:21 20,8 °C 2,1 °C 56 % 88 % 991,8 hPa 0,0 l/m² 18,5 km/h (3 Bft) W-NW 286 ° 0 min 0 W/m² 0,3 °C -6,2 °C 24,1 km/h (4 Bft)
20.11.2024 01:22 20,8 °C 2,1 °C 56 % 88 % 991,8 hPa 0,0 l/m² 18,8 km/h (3 Bft) W-NW 282 ° 0 min 0 W/m² 0,3 °C -6,4 °C 30,6 km/h (5 Bft)
20.11.2024 01:23 20,8 °C 2,1 °C 56 % 88 % 991,8 hPa 0,0 l/m² 21,4 km/h (4 Bft) W 278 ° 0 min 0 W/m² 0,3 °C -7,5 °C 30,6 km/h (5 Bft)
20.11.2024 01:25 20,7 °C 2,1 °C 56 % 88 % 991,8 hPa 0,0 l/m² 18,9 km/h (3 Bft) W 278 ° 0 min 0 W/m² 0,3 °C -6,4 °C 29,0 km/h (5 Bft)
20.11.2024 01:26 20,8 °C 2,1 °C 56 % 88 % 991,8 hPa 0,0 l/m² 20,6 km/h (4 Bft) W 269 ° 0 min 0 W/m² 0,3 °C -7,2 °C 25,7 km/h (4 Bft)
20.11.2024 01:27 20,8 °C 2,0 °C 56 % 88 % 991,8 hPa 0,0 l/m² 23,2 km/h (4 Bft) W-SW 249 ° 0 min 0 W/m² 0,2 °C -8,4 °C 27,4 km/h (5 Bft)
20.11.2024 01:29 20,8 °C 2,0 °C 56 % 88 % 991,9 hPa 0,0 l/m² 21,1 km/h (4 Bft) W 278 ° 0 min 0 W/m² 0,2 °C -7,5 °C 27,4 km/h (5 Bft)
20.11.2024 01:30 20,8 °C 2,0 °C 56 % 88 % 991,9 hPa 0,0 l/m² 21,3 km/h (4 Bft) W 273 ° 0 min 0 W/m² 0,2 °C -7,6 °C 30,6 km/h (5 Bft)
20.11.2024 01:32 20,7 °C 1,9 °C 56 % 88 % 991,9 hPa 0,0 l/m² 19,1 km/h (3 Bft) W-NW 284 ° 0 min 0 W/m² 0,1 °C -6,8 °C 30,6 km/h (5 Bft)
20.11.2024 01:34 20,8 °C 1,9 °C 56 % 88 % 992,0 hPa 0,0 l/m² 20,6 km/h (4 Bft) W 271 ° 0 min 0 W/m² 0,1 °C -7,4 °C 25,7 km/h (4 Bft)
20.11.2024 01:36 20,7 °C 1,8 °C 56 % 88 % 991,9 hPa 0,0 l/m² 21,7 km/h (4 Bft) W 276 ° 0 min 0 W/m² 0,0 °C -8,0 °C 30,6 km/h (5 Bft)
20.11.2024 01:38 20,7 °C 1,8 °C 56 % 88 % 992,0 hPa 0,0 l/m² 20,1 km/h (4 Bft) W-NW 292 ° 0 min 0 W/m² 0,0 °C -7,4 °C 27,4 km/h (5 Bft)
20.11.2024 01:40 20,8 °C 1,8 °C 56 % 88 % 992,1 hPa 0,0 l/m² 20,4 km/h (4 Bft) W-NW 292 ° 0 min 0 W/m² 0,0 °C -7,5 °C 29,0 km/h (5 Bft)
20.11.2024 01:41 20,7 °C 1,8 °C 56 % 88 % 992,2 hPa 0,0 l/m² 19,5 km/h (3 Bft) W-NW 288 ° 0 min 0 W/m² 0,0 °C -7,1 °C 25,7 km/h (4 Bft)
20.11.2024 01:42 20,7 °C 1,7 °C 56 % 88 % 992,3 hPa 0,0 l/m² 23,1 km/h (4 Bft) W-NW 294 ° 0 min 0 W/m² -0,1 °C -8,7 °C 33,8 km/h (5 Bft)
20.11.2024 01:43 20,7 °C 1,7 °C 56 % 88 % 992,4 hPa 0,0 l/m² 16,4 km/h (3 Bft) NW 314 ° 0 min 0 W/m² -0,1 °C -5,7 °C 29,0 km/h (5 Bft)
20.11.2024 01:44 20,7 °C 1,7 °C 56 % 88 % 992,4 hPa 0,0 l/m² 17,8 km/h (3 Bft) W 269 ° 0 min 0 W/m² -0,1 °C -6,4 °C 24,1 km/h (4 Bft)
20.11.2024 01:46 20,7 °C 1,8 °C 56 % 88 % 992,3 hPa 0,0 l/m² 10,1 km/h (2 Bft) W-NW 296 ° 0 min 0 W/m² 0,0 °C -1,5 °C 19,3 km/h (3 Bft)
20.11.2024 01:48 20,7 °C 1,8 °C 56 % 88 % 992,4 hPa 0,0 l/m² 11,5 km/h (2 Bft) W-NW 298 ° 0 min 0 W/m² 0,0 °C -2,6 °C 19,3 km/h (3 Bft)
20.11.2024 01:50 20,7 °C 1,8 °C 56 % 88 % 992,4 hPa 0,0 l/m² 10,2 km/h (2 Bft) W 281 ° 0 min 0 W/m² 0,0 °C -1,6 °C 17,7 km/h (3 Bft)
20.11.2024 01:51 20,7 °C 1,9 °C 56 % 87 % 992,4 hPa 0,0 l/m² 8,4 km/h (2 Bft) W-NW 292 ° 0 min 0 W/m² -0,0 °C -0,0 °C 16,1 km/h (3 Bft)
20.11.2024 01:52 20,7 °C 1,9 °C 56 % 87 % 992,4 hPa 0,0 l/m² 6,7 km/h (2 Bft) W-NW 302 ° 0 min 0 W/m² -0,0 °C 1,6 °C 9,7 km/h (2 Bft)
20.11.2024 01:53 20,7 °C 1,9 °C 56 % 87 % 992,5 hPa 0,0 l/m² 7,0 km/h (2 Bft) W 271 ° 0 min 0 W/m² -0,0 °C 1,3 °C 9,7 km/h (2 Bft)
20.11.2024 01:55 20,7 °C 1,9 °C 56 % 87 % 992,4 hPa 0,0 l/m² 8,7 km/h (2 Bft) W 279 ° 0 min 0 W/m² -0,0 °C -0,3 °C 12,9 km/h (3 Bft)
20.11.2024 01:57 20,7 °C 1,9 °C 56 % 87 % 992,5 hPa 0,0 l/m² 11,9 km/h (2 Bft) W 279 ° 0 min 0 W/m² -0,0 °C -2,7 °C 17,7 km/h (3 Bft)
20.11.2024 01:58 20,7 °C 2,0 °C 56 % 87 % 992,5 hPa 0,0 l/m² 13,0 km/h (3 Bft) W 272 ° 0 min 0 W/m² 0,1 °C -3,4 °C 17,7 km/h (3 Bft)
20.11.2024 01:59 20,7 °C 2,0 °C 56 % 87 % 992,5 hPa 0,0 l/m² 10,4 km/h (2 Bft) W-NW 285 ° 0 min 0 W/m² 0,1 °C -1,5 °C 12,9 km/h (3 Bft)
20.11.2024 02:00 20,7 °C 2,0 °C 56 % 87 % 992,5 hPa 0,0 l/m² 10,8 km/h (2 Bft) W-SW 257 ° 0 min 0 W/m² 0,1 °C -1,8 °C 12,9 km/h (3 Bft)
20.11.2024 02:03 20,7 °C 2,1 °C 56 % 87 % 992,6 hPa 0,0 l/m² 6,6 km/h (2 Bft) W 270 ° 0 min 0 W/m² 0,2 °C 1,9 °C 12,9 km/h (3 Bft)
20.11.2024 02:05 20,7 °C 2,1 °C 56 % 87 % 992,7 hPa 0,0 l/m² 9,0 km/h (2 Bft) W 263 ° 0 min 0 W/m² 0,2 °C -0,3 °C 17,7 km/h (3 Bft)
20.11.2024 02:07 20,7 °C 2,1 °C 56 % 87 % 992,7 hPa 0,0 l/m² 10,5 km/h (2 Bft) W-SW 251 ° 0 min 0 W/m² 0,2 °C -1,5 °C 16,1 km/h (3 Bft)
20.11.2024 02:09 20,7 °C 2,1 °C 56 % 87 % 992,7 hPa 0,0 l/m² 9,7 km/h (2 Bft) W-SW 254 ° 0 min 0 W/m² 0,2 °C -0,9 °C 12,9 km/h (3 Bft)
20.11.2024 02:10 20,7 °C 2,1 °C 56 % 87 % 992,7 hPa 0,0 l/m² 9,6 km/h (2 Bft) W-SW 256 ° 0 min 0 W/m² 0,2 °C -0,8 °C 12,9 km/h (3 Bft)
20.11.2024 02:11 20,7 °C 2,1 °C 56 % 87 % 992,8 hPa 0,0 l/m² 8,5 km/h (2 Bft) W 263 ° 0 min 0 W/m² 0,2 °C 0,1 °C 11,3 km/h (2 Bft)
20.11.2024 02:12 20,7 °C 2,1 °C 56 % 87 % 992,8 hPa 0,0 l/m² 8,8 km/h (2 Bft) W-SW 249 ° 0 min 0 W/m² 0,2 °C -0,2 °C 11,3 km/h (2 Bft)
20.11.2024 02:14 20,7 °C 2,1 °C 56 % 87 % 992,7 hPa 0,0 l/m² 6,3 km/h (2 Bft) W-SW 257 ° 0 min 0 W/m² 0,2 °C 2,1 °C 11,3 km/h (2 Bft)
20.11.2024 02:15 20,7 °C 2,1 °C 56 % 87 % 992,8 hPa 0,0 l/m² 5,9 km/h (2 Bft) W-SW 250 ° 0 min 0 W/m² 0,2 °C 2,1 °C 8,0 km/h (2 Bft)
20.11.2024 02:16 20,7 °C 2,1 °C 56 % 87 % 992,8 hPa 0,0 l/m² 6,5 km/h (2 Bft) W-SW 245 ° 0 min 0 W/m² 0,2 °C 2,0 °C 8,0 km/h (2 Bft)
20.11.2024 02:18 20,7 °C 2,1 °C 56 % 87 % 992,8 hPa 0,0 l/m² 7,2 km/h (2 Bft) W-SW 252 ° 0 min 0 W/m² 0,2 °C 1,3 °C 11,3 km/h (2 Bft)
20.11.2024 02:20 20,7 °C 2,1 °C 56 % 87 % 992,7 hPa 0,0 l/m² 6,2 km/h (2 Bft) W-SW 246 ° 0 min 0 W/m² 0,2 °C 2,1 °C 8,0 km/h (2 Bft)
20.11.2024 02:21 20,7 °C 2,1 °C 56 % 87 % 992,7 hPa 0,0 l/m² 5,9 km/h (2 Bft) W-SW 248 ° 0 min 0 W/m² 0,2 °C 2,1 °C 6,4 km/h (2 Bft)
20.11.2024 02:22 20,7 °C 2,1 °C 56 % 87 % 992,7 hPa 0,0 l/m² 6,0 km/h (2 Bft) W-SW 252 ° 0 min 0 W/m² 0,2 °C 2,1 °C 11,3 km/h (2 Bft)
20.11.2024 02:23 20,7 °C 2,1 °C 56 % 87 % 992,7 hPa 0,0 l/m² 7,6 km/h (2 Bft) W-SW 252 ° 0 min 0 W/m² 0,2 °C 0,9 °C 12,9 km/h (3 Bft)
20.11.2024 02:25 20,7 °C 2,1 °C 56 % 87 % 992,7 hPa 0,0 l/m² 7,3 km/h (2 Bft) W 259 ° 0 min 0 W/m² 0,2 °C 1,2 °C 11,3 km/h (2 Bft)
20.11.2024 02:27 20,7 °C 2,2 °C 56 % 87 % 992,7 hPa 0,0 l/m² 8,5 km/h (2 Bft) W-SW 254 ° 0 min 0 W/m² 0,3 °C 0,2 °C 12,9 km/h (3 Bft)
20.11.2024 02:29 20,7 °C 2,2 °C 56 % 87 % 992,7 hPa 0,0 l/m² 8,2 km/h (2 Bft) W-SW 251 ° 0 min 0 W/m² 0,3 °C 0,5 °C 12,9 km/h (3 Bft)
20.11.2024 02:30 20,7 °C 2,1 °C 56 % 87 % 992,7 hPa 0,0 l/m² 8,0 km/h (2 Bft) W-SW 242 ° 0 min 0 W/m² 0,2 °C 0,6 °C 11,3 km/h (2 Bft)
20.11.2024 02:31 20,7 °C 2,2 °C 56 % 87 % 992,7 hPa 0,0 l/m² 10,5 km/h (2 Bft) SW 236 ° 0 min 0 W/m² 0,3 °C -1,4 °C 12,9 km/h (3 Bft)
20.11.2024 02:32 20,7 °C 2,2 °C 56 % 88 % 992,7 hPa 0,0 l/m² 8,7 km/h (2 Bft) W-SW 241 ° 0 min 0 W/m² 0,4 °C 0,0 °C 14,5 km/h (3 Bft)
20.11.2024 02:34 20,7 °C 2,1 °C 56 % 88 % 992,8 hPa 0,0 l/m² 8,2 km/h (2 Bft) W-SW 240 ° 0 min 0 W/m² 0,3 °C 0,4 °C 11,3 km/h (2 Bft)
20.11.2024 02:36 20,7 °C 2,2 °C 56 % 88 % 992,7 hPa 0,0 l/m² 6,3 km/h (2 Bft) SW 232 ° 0 min 0 W/m² 0,4 °C 2,2 °C 11,3 km/h (2 Bft)
20.11.2024 02:38 20,7 °C 2,2 °C 56 % 88 % 992,8 hPa 0,0 l/m² 6,4 km/h (2 Bft) W-SW 240 ° 0 min 0 W/m² 0,4 °C 2,2 °C 9,7 km/h (2 Bft)
20.11.2024 02:40 20,7 °C 2,2 °C 56 % 88 % 992,8 hPa 0,0 l/m² 7,8 km/h (2 Bft) W-SW 243 ° 0 min 0 W/m² 0,4 °C 0,8 °C 9,7 km/h (2 Bft)
20.11.2024 02:41 20,7 °C 2,2 °C 56 % 88 % 992,8 hPa 0,0 l/m² 8,1 km/h (2 Bft) W-SW 238 ° 0 min 0 W/m² 0,4 °C 0,6 °C 9,7 km/h (2 Bft)
20.11.2024 02:42 20,7 °C 2,1 °C 56 % 88 % 992,8 hPa 0,0 l/m² 7,7 km/h (2 Bft) SW 236 ° 0 min 0 W/m² 0,3 °C 0,8 °C 8,0 km/h (2 Bft)
20.11.2024 02:43 20,7 °C 2,2 °C 56 % 88 % 992,8 hPa 0,0 l/m² 7,0 km/h (2 Bft) W-SW 242 ° 0 min 0 W/m² 0,4 °C 1,6 °C 11,3 km/h (2 Bft)
20.11.2024 02:45 20,7 °C 2,2 °C 56 % 88 % 992,9 hPa 0,0 l/m² 6,4 km/h (2 Bft) W-SW 249 ° 0 min 0 W/m² 0,4 °C 2,2 °C 8,0 km/h (2 Bft)
20.11.2024 02:47 20,7 °C 2,2 °C 56 % 88 % 992,8 hPa 0,0 l/m² 5,4 km/h (2 Bft) W-SW 247 ° 0 min 0 W/m² 0,4 °C 2,2 °C 8,0 km/h (2 Bft)
20.11.2024 02:49 20,7 °C 2,2 °C 56 % 88 % 992,8 hPa 0,0 l/m² 6,7 km/h (2 Bft) W-SW 250 ° 0 min 0 W/m² 0,4 °C 1,9 °C 11,3 km/h (2 Bft)
20.11.2024 02:50 20,7 °C 2,2 °C 56 % 88 % 992,8 hPa 0,0 l/m² 5,4 km/h (2 Bft) W-SW 250 ° 0 min 0 W/m² 0,4 °C 2,2 °C 11,3 km/h (2 Bft)
20.11.2024 02:51 20,7 °C 2,2 °C 56 % 87 % 992,8 hPa 0,0 l/m² 5,9 km/h (2 Bft) W-SW 254 ° 0 min 0 W/m² 0,3 °C 2,2 °C 8,0 km/h (2 Bft)
20.11.2024 02:52 20,7 °C 2,2 °C 56 % 88 % 992,8 hPa 0,0 l/m² 8,6 km/h (2 Bft) W 265 ° 0 min 0 W/m² 0,4 °C 0,1 °C 12,9 km/h (3 Bft)
20.11.2024 02:54 20,7 °C 2,2 °C 56 % 88 % 992,8 hPa 0,0 l/m² 8,6 km/h (2 Bft) W-SW 249 ° 0 min 0 W/m² 0,4 °C 0,1 °C 17,7 km/h (3 Bft)
20.11.2024 02:56 20,7 °C 2,2 °C 56 % 88 % 992,8 hPa 0,0 l/m² 14,7 km/h (3 Bft) W-SW 247 ° 0 min 0 W/m² 0,4 °C -4,1 °C 20,9 km/h (4 Bft)
20.11.2024 02:57 20,7 °C 2,2 °C 56 % 87 % 992,8 hPa 0,0 l/m² 14,3 km/h (3 Bft) W-SW 254 ° 0 min 0 W/m² 0,3 °C -3,9 °C 20,9 km/h (4 Bft)
20.11.2024 02:58 20,7 °C 2,2 °C 56 % 87 % 992,8 hPa 0,0 l/m² 11,3 km/h (2 Bft) W 271 ° 0 min 0 W/m² 0,3 °C -2,0 °C 16,1 km/h (3 Bft)
20.11.2024 03:00 20,7 °C 2,2 °C 56 % 87 % 992,8 hPa 0,0 l/m² 12,8 km/h (3 Bft) W-SW 254 ° 0 min 0 W/m² 0,3 °C -3,0 °C 17,7 km/h (3 Bft)
20.11.2024 03:01 20,7 °C 2,2 °C 56 % 87 % 992,8 hPa 0,0 l/m² 12,9 km/h (3 Bft) W 270 ° 0 min 0 W/m² 0,3 °C -3,1 °C 20,9 km/h (4 Bft)
20.11.2024 03:07 20,7 °C 2,3 °C 56 % 86 % 992,9 hPa 0,0 l/m² 13,3 km/h (3 Bft) W 263 ° 0 min 0 W/m² 0,2 °C -3,2 °C 17,7 km/h (3 Bft)
20.11.2024 03:09 20,7 °C 2,4 °C 56 % 86 % 992,8 hPa 0,0 l/m² 13,6 km/h (3 Bft) W 273 ° 0 min 0 W/m² 0,3 °C -3,3 °C 19,3 km/h (3 Bft)
20.11.2024 03:10 20,7 °C 2,3 °C 56 % 86 % 992,7 hPa 0,0 l/m² 12,9 km/h (3 Bft) W 279 ° 0 min 0 W/m² 0,2 °C -2,9 °C 19,3 km/h (3 Bft)
20.11.2024 03:12 20,7 °C 2,4 °C 56 % 86 % 992,7 hPa 0,0 l/m² 13,6 km/h (3 Bft) W 272 ° 0 min 0 W/m² 0,3 °C -3,3 °C 17,7 km/h (3 Bft)
20.11.2024 03:13 20,7 °C 2,4 °C 56 % 86 % 992,7 hPa 0,0 l/m² 9,6 km/h (2 Bft) W 263 ° 0 min 0 W/m² 0,3 °C -0,5 °C 14,5 km/h (3 Bft)
20.11.2024 03:15 20,7 °C 2,4 °C 56 % 85 % 992,8 hPa 0,0 l/m² 10,9 km/h (2 Bft) W-SW 258 ° 0 min 0 W/m² 0,1 °C -1,5 °C 17,7 km/h (3 Bft)
20.11.2024 03:17 20,7 °C 2,5 °C 56 % 85 % 993,0 hPa 0,0 l/m² 7,6 km/h (2 Bft) W-NW 285 ° 0 min 0 W/m² 0,2 °C 1,3 °C 14,5 km/h (3 Bft)
20.11.2024 03:19 20,7 °C 2,6 °C 56 % 85 % 992,9 hPa 0,0 l/m² 9,0 km/h (2 Bft) W-NW 294 ° 0 min 0 W/m² 0,3 °C 0,2 °C 14,5 km/h (3 Bft)
20.11.2024 03:20 20,7 °C 2,5 °C 56 % 85 % 993,0 hPa 0,0 l/m² 9,2 km/h (2 Bft) W-SW 250 ° 0 min 0 W/m² 0,2 °C -0,1 °C 12,9 km/h (3 Bft)
20.11.2024 03:21 20,7 °C 2,5 °C 56 % 85 % 992,9 hPa 0,0 l/m² 8,3 km/h (2 Bft) W 264 ° 0 min 0 W/m² 0,2 °C 0,7 °C 12,9 km/h (3 Bft)
20.11.2024 03:23 20,7 °C 2,6 °C 56 % 85 % 992,9 hPa 0,0 l/m² 8,0 km/h (2 Bft) W-SW 251 ° 0 min 0 W/m² 0,3 °C 1,1 °C 12,9 km/h (3 Bft)
20.11.2024 03:25 20,7 °C 2,6 °C 56 % 85 % 992,9 hPa 0,0 l/m² 9,1 km/h (2 Bft) W 264 ° 0 min 0 W/m² 0,3 °C 0,1 °C 12,9 km/h (3 Bft)
20.11.2024 03:26 20,7 °C 2,6 °C 56 % 85 % 992,9 hPa 0,0 l/m² 8,7 km/h (2 Bft) W 262 ° 0 min 0 W/m² 0,3 °C 0,5 °C 12,9 km/h (3 Bft)
20.11.2024 03:28 20,8 °C 2,6 °C 56 % 85 % 992,9 hPa 0,0 l/m² 8,3 km/h (2 Bft) W 259 ° 0 min 0 W/m² 0,3 °C 0,8 °C 12,9 km/h (3 Bft)
20.11.2024 03:30 20,7 °C 2,6 °C 56 % 85 % 993,0 hPa 0,0 l/m² 8,2 km/h (2 Bft) W-SW 256 ° 0 min 0 W/m² 0,3 °C 0,9 °C 11,3 km/h (2 Bft)
20.11.2024 03:31 20,7 °C 2,6 °C 56 % 85 % 993,0 hPa 0,0 l/m² 7,7 km/h (2 Bft) W-SW 243 ° 0 min 0 W/m² 0,3 °C 1,4 °C 11,3 km/h (2 Bft)
20.11.2024 03:32 20,7 °C 2,6 °C 56 % 85 % 993,0 hPa 0,0 l/m² 8,8 km/h (2 Bft) W-SW 257 ° 0 min 0 W/m² 0,3 °C 0,4 °C 12,9 km/h (3 Bft)
20.11.2024 03:33 20,7 °C 2,6 °C 56 % 85 % 993,0 hPa 0,0 l/m² 8,6 km/h (2 Bft) W-SW 250 ° 0 min 0 W/m² 0,3 °C 0,6 °C 12,9 km/h (3 Bft)
20.11.2024 03:35 20,8 °C 2,6 °C 56 % 86 % 993,1 hPa 0,0 l/m² 7,6 km/h (2 Bft) W-SW 252 ° 0 min 0 W/m² 0,5 °C 1,5 °C 12,9 km/h (3 Bft)
20.11.2024 03:37 20,8 °C 2,6 °C 56 % 85 % 993,2 hPa 0,0 l/m² 7,7 km/h (2 Bft) W-SW 256 ° 0 min 0 W/m² 0,3 °C 1,4 °C 11,3 km/h (2 Bft)
20.11.2024 03:39 20,7 °C 2,6 °C 56 % 85 % 993,2 hPa 0,0 l/m² 8,5 km/h (2 Bft) W-SW 246 ° 0 min 0 W/m² 0,3 °C 0,6 °C 12,9 km/h (3 Bft)
20.11.2024 03:40 20,8 °C 2,6 °C 56 % 86 % 993,2 hPa 0,0 l/m² 9,0 km/h (2 Bft) W-SW 256 ° 0 min 0 W/m² 0,5 °C 0,2 °C 11,3 km/h (2 Bft)
20.11.2024 03:41 20,8 °C 2,6 °C 56 % 86 % 993,2 hPa 0,0 l/m² 8,4 km/h (2 Bft) W-SW 244 ° 0 min 0 W/m² 0,5 °C 0,7 °C 11,3 km/h (2 Bft)
20.11.2024 03:42 20,8 °C 2,6 °C 56 % 86 % 993,2 hPa 0,0 l/m² 6,9 km/h (2 Bft) W-SW 248 ° 0 min 0 W/m² 0,5 °C 2,1 °C 9,7 km/h (2 Bft)
20.11.2024 03:44 20,7 °C 2,6 °C 56 % 86 % 993,1 hPa 0,0 l/m² 9,5 km/h (2 Bft) W-SW 250 ° 0 min 0 W/m² 0,5 °C -0,2 °C 14,5 km/h (3 Bft)
20.11.2024 03:45 20,8 °C 2,6 °C 56 % 86 % 993,2 hPa 0,0 l/m² 8,0 km/h (2 Bft) W-SW 254 ° 0 min 0 W/m² 0,5 °C 1,1 °C 12,9 km/h (3 Bft)
20.11.2024 03:46 20,8 °C 2,5 °C 56 % 86 % 993,3 hPa 0,0 l/m² 9,1 km/h (2 Bft) SW 234 ° 0 min 0 W/m² 0,4 °C 0,0 °C 12,9 km/h (3 Bft)
20.11.2024 03:47 20,7 °C 2,6 °C 56 % 86 % 993,3 hPa 0,0 l/m² 6,5 km/h (2 Bft) W-SW 243 ° 0 min 0 W/m² 0,5 °C 2,5 °C 9,7 km/h (2 Bft)
20.11.2024 03:49 20,7 °C 2,5 °C 56 % 86 % 993,3 hPa 0,0 l/m² 6,0 km/h (2 Bft) W-SW 248 ° 0 min 0 W/m² 0,4 °C 2,5 °C 8,0 km/h (2 Bft)
20.11.2024 03:50 20,8 °C 2,6 °C 56 % 86 % 993,3 hPa 0,0 l/m² 5,9 km/h (2 Bft) W-SW 253 ° 0 min 0 W/m² 0,5 °C 2,6 °C 11,3 km/h (2 Bft)
20.11.2024 03:51 20,8 °C 2,5 °C 56 % 86 % 993,3 hPa 0,0 l/m² 5,9 km/h (2 Bft) W-SW 247 ° 0 min 0 W/m² 0,4 °C 2,5 °C 9,7 km/h (2 Bft)
20.11.2024 03:52 20,8 °C 2,5 °C 56 % 86 % 993,3 hPa 0,0 l/m² 8,2 km/h (2 Bft) W-SW 257 ° 0 min 0 W/m² 0,4 °C 0,8 °C 12,9 km/h (3 Bft)
20.11.2024 03:53 20,8 °C 2,4 °C 56 % 86 % 993,3 hPa 0,0 l/m² 6,6 km/h (2 Bft) W-SW 254 ° 0 min 0 W/m² 0,3 °C 2,2 °C 11,3 km/h (2 Bft)
20.11.2024 03:54 20,8 °C 2,5 °C 56 % 86 % 993,3 hPa 0,0 l/m² 5,1 km/h (1 Bft) W-SW 254 ° 0 min 0 W/m² 0,4 °C 2,5 °C 8,0 km/h (2 Bft)
20.11.2024 03:55 20,8 °C 2,4 °C 56 % 86 % 993,4 hPa 0,0 l/m² 5,6 km/h (2 Bft) W 259 ° 0 min 0 W/m² 0,3 °C 2,4 °C 8,0 km/h (2 Bft)
20.11.2024 03:56 20,8 °C 2,4 °C 56 % 86 % 993,4 hPa 0,0 l/m² 5,5 km/h (2 Bft) W-SW 258 ° 0 min 0 W/m² 0,3 °C 2,4 °C 9,7 km/h (2 Bft)
20.11.2024 03:57 20,8 °C 2,4 °C 56 % 86 % 993,4 hPa 0,0 l/m² 4,5 km/h (1 Bft) W-SW 257 ° 0 min 0 W/m² 0,3 °C 2,4 °C 6,4 km/h (2 Bft)
20.11.2024 03:58 20,8 °C 2,4 °C 56 % 86 % 993,4 hPa 0,0 l/m² 5,3 km/h (1 Bft) W-SW 255 ° 0 min 0 W/m² 0,3 °C 2,4 °C 8,0 km/h (2 Bft)
20.11.2024 03:59 20,8 °C 2,4 °C 56 % 86 % 993,4 hPa 0,0 l/m² 5,3 km/h (1 Bft) W-SW 255 ° 0 min 0 W/m² 0,3 °C 2,4 °C 6,4 km/h (2 Bft)
20.11.2024 04:01 20,8 °C 2,4 °C 56 % 86 % 993,3 hPa 0,0 l/m² 6,6 km/h (2 Bft) SW 217 ° 0 min 0 W/m² 0,3 °C 2,2 °C 9,7 km/h (2 Bft)
20.11.2024 04:03 20,8 °C 2,5 °C 56 % 86 % 993,5 hPa 0,0 l/m² 7,2 km/h (2 Bft) SW 227 ° 0 min 0 W/m² 0,4 °C 1,7 °C 9,7 km/h (2 Bft)
20.11.2024 04:04 20,8 °C 2,4 °C 56 % 86 % 993,5 hPa 0,0 l/m² 6,4 km/h (2 Bft) SW 223 ° 0 min 0 W/m² 0,3 °C 2,4 °C 8,0 km/h (2 Bft)
20.11.2024 04:05 20,8 °C 2,4 °C 56 % 86 % 993,5 hPa 0,0 l/m² 6,6 km/h (2 Bft) SW 221 ° 0 min 0 W/m² 0,3 °C 2,2 °C 8,0 km/h (2 Bft)
20.11.2024 04:07 20,8 °C 2,4 °C 56 % 86 % 993,5 hPa 0,0 l/m² 6,1 km/h (2 Bft) SW 219 ° 0 min 0 W/m² 0,3 °C 2,4 °C 8,0 km/h (2 Bft)
20.11.2024 04:08 20,8 °C 2,5 °C 56 % 86 % 993,5 hPa 0,0 l/m² 5,9 km/h (2 Bft) SW 219 ° 0 min 0 W/m² 0,4 °C 2,5 °C 8,0 km/h (2 Bft)
20.11.2024 04:09 20,8 °C 2,4 °C 56 % 86 % 993,6 hPa 0,0 l/m² 6,6 km/h (2 Bft) S-SW 213 ° 0 min 0 W/m² 0,3 °C 2,2 °C 8,0 km/h (2 Bft)
20.11.2024 04:11 20,8 °C 2,5 °C 56 % 86 % 993,6 hPa 0,0 l/m² 7,8 km/h (2 Bft) SW 222 ° 0 min 0 W/m² 0,4 °C 1,2 °C 11,3 km/h (2 Bft)
20.11.2024 04:13 20,8 °C 2,4 °C 56 % 86 % 993,8 hPa 0,0 l/m² 7,9 km/h (2 Bft) S-SW 206 ° 0 min 0 W/m² 0,3 °C 1,0 °C 12,9 km/h (3 Bft)
20.11.2024 04:14 20,8 °C 2,4 °C 56 % 86 % 993,7 hPa 0,0 l/m² 8,2 km/h (2 Bft) S-SW 209 ° 0 min 0 W/m² 0,3 °C 0,7 °C 11,3 km/h (2 Bft)
20.11.2024 04:15 20,8 °C 2,5 °C 56 % 86 % 993,7 hPa 0,0 l/m² 8,5 km/h (2 Bft) S-SW 211 ° 0 min 0 W/m² 0,4 °C 0,5 °C 11,3 km/h (2 Bft)
20.11.2024 04:16 20,8 °C 2,5 °C 56 % 86 % 993,7 hPa 0,0 l/m² 7,1 km/h (2 Bft) S-SW 209 ° 0 min 0 W/m² 0,4 °C 1,8 °C 8,0 km/h (2 Bft)
20.11.2024 04:17 20,8 °C 2,5 °C 56 % 86 % 993,7 hPa 0,0 l/m² 6,4 km/h (2 Bft) S-SW 209 ° 0 min 0 W/m² 0,4 °C 2,5 °C 8,0 km/h (2 Bft)
20.11.2024 04:18 20,8 °C 2,5 °C 56 % 86 % 993,6 hPa 0,0 l/m² 5,4 km/h (2 Bft) S-SW 211 ° 0 min 0 W/m² 0,4 °C 2,5 °C 8,0 km/h (2 Bft)
20.11.2024 04:19 20,8 °C 2,5 °C 56 % 86 % 993,6 hPa 0,0 l/m² 5,6 km/h (2 Bft) SW 214 ° 0 min 0 W/m² 0,4 °C 2,5 °C 8,0 km/h (2 Bft)
20.11.2024 04:21 20,8 °C 2,5 °C 56 % 86 % 993,7 hPa 0,0 l/m² 10,4 km/h (2 Bft) SW 221 ° 0 min 0 W/m² 0,4 °C -1,0 °C 17,7 km/h (3 Bft)
20.11.2024 04:23 20,8 °C 2,5 °C 56 % 86 % 993,7 hPa 0,0 l/m² 10,8 km/h (2 Bft) SW 222 ° 0 min 0 W/m² 0,4 °C -1,3 °C 16,1 km/h (3 Bft)
20.11.2024 04:24 20,8 °C 2,5 °C 56 % 86 % 993,8 hPa 0,0 l/m² 8,7 km/h (2 Bft) SW 227 ° 0 min 0 W/m² 0,4 °C 0,4 °C 12,9 km/h (3 Bft)
20.11.2024 04:25 20,8 °C 2,5 °C 56 % 86 % 993,8 hPa 0,0 l/m² 10,1 km/h (2 Bft) SW 224 ° 0 min 0 W/m² 0,4 °C -0,8 °C 14,5 km/h (3 Bft)
20.11.2024 04:26 20,8 °C 2,5 °C 56 % 86 % 993,8 hPa 0,0 l/m² 10,5 km/h (2 Bft) W-SW 238 ° 0 min 0 W/m² 0,4 °C -1,1 °C 12,9 km/h (3 Bft)
20.11.2024 04:27 20,8 °C 2,6 °C 56 % 86 % 993,8 hPa 0,0 l/m² 13,7 km/h (3 Bft) W-SW 244 ° 0 min 0 W/m² 0,5 °C -3,1 °C 17,7 km/h (3 Bft)
20.11.2024 04:28 20,8 °C 2,6 °C 56 % 86 % 993,8 hPa 0,0 l/m² 11,9 km/h (2 Bft) SW 236 ° 0 min 0 W/m² 0,5 °C -1,9 °C 16,1 km/h (3 Bft)
20.11.2024 04:29 20,8 °C 2,5 °C 56 % 86 % 993,9 hPa 0,0 l/m² 16,8 km/h (3 Bft) W-SW 248 ° 0 min 0 W/m² 0,4 °C -4,9 °C 20,9 km/h (4 Bft)
20.11.2024 04:31 20,7 °C 2,6 °C 56 % 86 % 994,0 hPa 0,0 l/m² 12,4 km/h (2 Bft) W-SW 253 ° 0 min 0 W/m² 0,5 °C -2,3 °C 17,7 km/h (3 Bft)
20.11.2024 04:33 20,8 °C 2,6 °C 56 % 85 % 994,1 hPa 0,0 l/m² 12,1 km/h (2 Bft) W-SW 243 ° 0 min 0 W/m² 0,3 °C -2,1 °C 16,1 km/h (3 Bft)
20.11.2024 04:34 20,8 °C 2,6 °C 56 % 85 % 994,1 hPa 0,0 l/m² 11,3 km/h (2 Bft) SW 233 ° 0 min 0 W/m² 0,3 °C -1,5 °C 14,5 km/h (3 Bft)
20.11.2024 04:35 20,8 °C 2,6 °C 56 % 85 % 994,1 hPa 0,0 l/m² 11,5 km/h (2 Bft) SW 229 ° 0 min 0 W/m² 0,3 °C -1,7 °C 16,1 km/h (3 Bft)
20.11.2024 04:36 20,8 °C 2,6 °C 56 % 86 % 994,1 hPa 0,0 l/m² 10,4 km/h (2 Bft) W-SW 250 ° 0 min 0 W/m² 0,5 °C -0,9 °C 12,9 km/h (3 Bft)
20.11.2024 04:37 20,8 °C 2,6 °C 56 % 86 % 994,1 hPa 0,0 l/m² 10,4 km/h (2 Bft) SW 234 ° 0 min 0 W/m² 0,5 °C -0,9 °C 14,5 km/h (3 Bft)
20.11.2024 04:38 20,8 °C 2,6 °C 56 % 86 % 994,2 hPa 0,0 l/m² 11,0 km/h (2 Bft) SW 234 ° 0 min 0 W/m² 0,5 °C -1,3 °C 14,5 km/h (3 Bft)
20.11.2024 04:39 20,8 °C 2,6 °C 56 % 86 % 994,2 hPa 0,0 l/m² 9,6 km/h (2 Bft) S-SW 213 ° 0 min 0 W/m² 0,5 °C -0,3 °C 11,3 km/h (2 Bft)
20.11.2024 04:41 20,8 °C 2,7 °C 56 % 86 % 994,2 hPa 0,0 l/m² 11,3 km/h (2 Bft) SW 224 ° 0 min 0 W/m² 0,6 °C -1,4 °C 12,9 km/h (3 Bft)
20.11.2024 04:43 20,8 °C 2,7 °C 56 % 85 % 994,2 hPa 0,0 l/m² 12,0 km/h (2 Bft) SW 234 ° 0 min 0 W/m² 0,4 °C -1,9 °C 14,5 km/h (3 Bft)
20.11.2024 04:44 20,8 °C 2,7 °C 56 % 86 % 994,2 hPa 0,0 l/m² 12,0 km/h (2 Bft) SW 219 ° 0 min 0 W/m² 0,6 °C -1,9 °C 14,5 km/h (3 Bft)
20.11.2024 04:45 20,8 °C 2,6 °C 56 % 86 % 994,2 hPa 0,0 l/m² 10,8 km/h (2 Bft) SW 225 ° 0 min 0 W/m² 0,5 °C -1,2 °C 12,9 km/h (3 Bft)
20.11.2024 04:46 20,8 °C 2,6 °C 56 % 86 % 994,3 hPa 0,0 l/m² 10,7 km/h (2 Bft) SW 218 ° 0 min 0 W/m² 0,5 °C -1,1 °C 12,9 km/h (3 Bft)
20.11.2024 04:47 20,8 °C 2,6 °C 56 % 86 % 994,3 hPa 0,0 l/m² 9,1 km/h (2 Bft) SW 218 ° 0 min 0 W/m² 0,5 °C 0,1 °C 12,9 km/h (3 Bft)
20.11.2024 04:48 20,8 °C 2,6 °C 56 % 86 % 994,3 hPa 0,0 l/m² 11,9 km/h (2 Bft) SW 230 ° 0 min 0 W/m² 0,5 °C -1,9 °C 14,5 km/h (3 Bft)
20.11.2024 04:49 20,8 °C 2,6 °C 56 % 86 % 994,3 hPa 0,0 l/m² 9,3 km/h (2 Bft) SW 227 ° 0 min 0 W/m² 0,5 °C -0,0 °C 11,3 km/h (2 Bft)
20.11.2024 04:51 20,8 °C 2,6 °C 56 % 86 % 994,4 hPa 0,0 l/m² 10,1 km/h (2 Bft) SW 229 ° 0 min 0 W/m² 0,5 °C -0,7 °C 16,1 km/h (3 Bft)
20.11.2024 04:53 20,8 °C 2,6 °C 56 % 86 % 994,5 hPa 0,0 l/m² 12,3 km/h (2 Bft) SW 234 ° 0 min 0 W/m² 0,5 °C -2,2 °C 17,7 km/h (3 Bft)
20.11.2024 04:54 20,8 °C 2,6 °C 56 % 86 % 994,4 hPa 0,0 l/m² 10,5 km/h (2 Bft) SW 225 ° 0 min 0 W/m² 0,5 °C -1,0 °C 12,9 km/h (3 Bft)
20.11.2024 04:55 20,8 °C 2,6 °C 56 % 86 % 994,4 hPa 0,0 l/m² 11,4 km/h (2 Bft) W-SW 238 ° 0 min 0 W/m² 0,5 °C -1,6 °C 17,7 km/h (3 Bft)
20.11.2024 04:56 20,8 °C 2,6 °C 56 % 86 % 994,4 hPa 0,0 l/m² 13,5 km/h (3 Bft) W-SW 245 ° 0 min 0 W/m² 0,5 °C -3,0 °C 17,7 km/h (3 Bft)
20.11.2024 04:57 20,8 °C 2,6 °C 56 % 86 % 994,4 hPa 0,0 l/m² 11,3 km/h (2 Bft) SW 229 ° 0 min 0 W/m² 0,5 °C -1,5 °C 14,5 km/h (3 Bft)
20.11.2024 04:58 20,8 °C 2,6 °C 56 % 86 % 994,5 hPa 0,0 l/m² 8,9 km/h (2 Bft) SW 235 ° 0 min 0 W/m² 0,5 °C 0,3 °C 12,9 km/h (3 Bft)
20.11.2024 04:59 20,8 °C 2,6 °C 56 % 86 % 994,5 hPa 0,0 l/m² 8,9 km/h (2 Bft) SW 235 ° 0 min 0 W/m² 0,5 °C 0,3 °C 9,7 km/h (2 Bft)
20.11.2024 05:01 20,8 °C 2,6 °C 56 % 86 % 994,5 hPa 0,0 l/m² 10,4 km/h (2 Bft) W-SW 238 ° 0 min 0 W/m² 0,5 °C -0,9 °C 16,1 km/h (3 Bft)
20.11.2024 05:03 20,8 °C 2,6 °C 56 % 86 % 994,6 hPa 0,0 l/m² 12,3 km/h (2 Bft) W-SW 244 ° 0 min 0 W/m² 0,5 °C -2,2 °C 17,7 km/h (3 Bft)
20.11.2024 05:04 20,8 °C 2,6 °C 56 % 86 % 994,6 hPa 0,0 l/m² 10,4 km/h (2 Bft) W 275 ° 0 min 0 W/m² 0,5 °C -0,9 °C 16,1 km/h (3 Bft)
20.11.2024 05:05 20,8 °C 2,6 °C 56 % 86 % 994,7 hPa 0,0 l/m² 9,9 km/h (2 Bft) SW 230 ° 0 min 0 W/m² 0,5 °C -0,5 °C 14,5 km/h (3 Bft)
20.11.2024 05:06 20,8 °C 2,6 °C 56 % 86 % 994,8 hPa 0,0 l/m² 10,1 km/h (2 Bft) W-SW 252 ° 0 min 0 W/m² 0,5 °C -0,7 °C 14,5 km/h (3 Bft)
20.11.2024 05:07 20,8 °C 2,6 °C 56 % 86 % 994,7 hPa 0,0 l/m² 10,8 km/h (2 Bft) W 269 ° 0 min 0 W/m² 0,5 °C -1,2 °C 17,7 km/h (3 Bft)
20.11.2024 05:08 20,7 °C 2,6 °C 56 % 86 % 994,8 hPa 0,0 l/m² 12,1 km/h (2 Bft) W 260 ° 0 min 0 W/m² 0,5 °C -2,1 °C 16,1 km/h (3 Bft)
20.11.2024 05:09 20,8 °C 2,6 °C 56 % 86 % 994,8 hPa 0,0 l/m² 12,7 km/h (3 Bft) W 273 ° 0 min 0 W/m² 0,5 °C -2,5 °C 17,7 km/h (3 Bft)
20.11.2024 05:11 20,8 °C 2,6 °C 56 % 85 % 994,8 hPa 0,0 l/m² 13,1 km/h (3 Bft) W 267 ° 0 min 0 W/m² 0,3 °C -2,7 °C 20,9 km/h (4 Bft)
20.11.2024 05:13 20,8 °C 2,6 °C 56 % 85 % 994,7 hPa 0,0 l/m² 11,1 km/h (2 Bft) W 273 ° 0 min 0 W/m² 0,3 °C -1,4 °C 17,7 km/h (3 Bft)
20.11.2024 05:14 20,8 °C 2,6 °C 56 % 85 % 994,8 hPa 0,0 l/m² 11,0 km/h (2 Bft) W-SW 253 ° 0 min 0 W/m² 0,3 °C -1,3 °C 14,5 km/h (3 Bft)
20.11.2024 05:15 20,8 °C 2,6 °C 56 % 85 % 994,8 hPa 0,0 l/m² 12,3 km/h (2 Bft) W 263 ° 0 min 0 W/m² 0,3 °C -2,2 °C 17,7 km/h (3 Bft)
20.11.2024 05:16 20,8 °C 2,6 °C 56 % 85 % 994,8 hPa 0,0 l/m² 12,1 km/h (2 Bft) W 263 ° 0 min 0 W/m² 0,3 °C -2,1 °C 17,7 km/h (3 Bft)
20.11.2024 05:17 20,8 °C 2,6 °C 56 % 85 % 994,9 hPa 0,0 l/m² 12,3 km/h (2 Bft) W-NW 296 ° 0 min 0 W/m² 0,3 °C -2,2 °C 19,3 km/h (3 Bft)
20.11.2024 05:18 20,8 °C 2,6 °C 56 % 85 % 994,8 hPa 0,0 l/m² 9,3 km/h (2 Bft) W-SW 244 ° 0 min 0 W/m² 0,3 °C -0,0 °C 14,5 km/h (3 Bft)
20.11.2024 05:19 20,8 °C 2,7 °C 56 % 85 % 994,8 hPa 0,0 l/m² 16,2 km/h (3 Bft) W 277 ° 0 min 0 W/m² 0,4 °C -4,4 °C 25,7 km/h (4 Bft)
20.11.2024 05:21 20,8 °C 2,7 °C 56 % 84 % 994,9 hPa 0,0 l/m² 17,3 km/h (3 Bft) W 278 ° 0 min 0 W/m² 0,3 °C -4,9 °C 24,1 km/h (4 Bft)
20.11.2024 05:23 20,8 °C 2,7 °C 56 % 83 % 995,1 hPa 0,0 l/m² 17,0 km/h (3 Bft) W-NW 288 ° 0 min 0 W/m² 0,1 °C -4,8 °C 22,5 km/h (4 Bft)
20.11.2024 05:24 20,8 °C 2,8 °C 56 % 83 % 995,0 hPa 0,0 l/m² 19,8 km/h (3 Bft) W 265 ° 0 min 0 W/m² 0,2 °C -5,9 °C 30,6 km/h (5 Bft)
20.11.2024 05:25 20,8 °C 2,8 °C 56 % 82 % 995,0 hPa 0,0 l/m² 21,8 km/h (4 Bft) W 269 ° 0 min 0 W/m² 0,0 °C -6,8 °C 27,4 km/h (5 Bft)
20.11.2024 05:26 20,8 °C 2,8 °C 56 % 82 % 995,0 hPa 0,0 l/m² 15,8 km/h (3 Bft) W-SW 244 ° 0 min 0 W/m² 0,0 °C -4,0 °C 20,9 km/h (4 Bft)
20.11.2024 05:27 20,8 °C 2,8 °C 56 % 82 % 995,0 hPa 0,0 l/m² 19,0 km/h (3 Bft) W-SW 253 ° 0 min 0 W/m² 0,0 °C -5,6 °C 24,1 km/h (4 Bft)
20.11.2024 05:28 20,8 °C 2,8 °C 56 % 82 % 995,0 hPa 0,0 l/m² 13,1 km/h (3 Bft) W-SW 254 ° 0 min 0 W/m² 0,0 °C -2,5 °C 20,9 km/h (4 Bft)
20.11.2024 05:29 20,8 °C 2,9 °C 56 % 82 % 995,0 hPa 0,0 l/m² 11,8 km/h (2 Bft) W 269 ° 0 min 0 W/m² 0,1 °C -1,5 °C 17,7 km/h (3 Bft)
20.11.2024 05:31 20,8 °C 2,9 °C 56 % 81 % 995,1 hPa 0,0 l/m² 19,0 km/h (3 Bft) W 276 ° 0 min 0 W/m² -0,0 °C -5,4 °C 32,2 km/h (5 Bft)
20.11.2024 05:33 20,8 °C 2,9 °C 56 % 81 % 995,1 hPa 0,0 l/m² 21,7 km/h (4 Bft) W 266 ° 0 min 0 W/m² -0,0 °C -6,6 °C 30,6 km/h (5 Bft)
20.11.2024 05:34 20,8 °C 2,9 °C 56 % 81 % 995,2 hPa 0,0 l/m² 21,9 km/h (4 Bft) W-SW 237 ° 0 min 0 W/m² -0,0 °C -6,7 °C 32,2 km/h (5 Bft)
20.11.2024 05:35 20,8 °C 3,0 °C 56 % 81 % 995,1 hPa 0,0 l/m² 25,7 km/h (4 Bft) W 262 ° 0 min 0 W/m² 0,1 °C -7,9 °C 35,4 km/h (5 Bft)
20.11.2024 05:36 20,8 °C 3,0 °C 56 % 81 % 995,2 hPa 0,0 l/m² 23,9 km/h (4 Bft) W 266 ° 0 min 0 W/m² 0,1 °C -7,3 °C 29,0 km/h (5 Bft)
20.11.2024 05:37 20,8 °C 3,0 °C 56 % 81 % 995,2 hPa 0,0 l/m² 17,4 km/h (3 Bft) W-NW 289 ° 0 min 0 W/m² 0,1 °C -4,6 °C 24,1 km/h (4 Bft)
20.11.2024 05:38 20,8 °C 3,1 °C 56 % 81 % 995,2 hPa 0,0 l/m² 21,1 km/h (4 Bft) W 271 ° 0 min 0 W/m² 0,2 °C -6,1 °C 30,6 km/h (5 Bft)
20.11.2024 05:39 20,8 °C 3,1 °C 56 % 81 % 995,2 hPa 0,0 l/m² 20,4 km/h (4 Bft) W-SW 238 ° 0 min 0 W/m² 0,2 °C -5,8 °C 29,0 km/h (5 Bft)
20.11.2024 05:41 20,8 °C 3,1 °C 56 % 81 % 995,3 hPa 0,0 l/m² 20,1 km/h (4 Bft) W-SW 252 ° 0 min 0 W/m² 0,2 °C -5,7 °C 30,6 km/h (5 Bft)
20.11.2024 05:43 20,8 °C 3,1 °C 56 % 81 % 995,3 hPa 0,0 l/m² 20,9 km/h (4 Bft) W-SW 258 ° 0 min 0 W/m² 0,2 °C -6,0 °C 29,0 km/h (5 Bft)
20.11.2024 05:44 20,8 °C 3,1 °C 56 % 81 % 995,4 hPa 0,0 l/m² 22,9 km/h (4 Bft) W 262 ° 0 min 0 W/m² 0,2 °C -6,8 °C 25,7 km/h (4 Bft)
20.11.2024 05:45 20,8 °C 3,1 °C 56 % 80 % 995,3 hPa 0,0 l/m² 17,4 km/h (3 Bft) W 259 ° 0 min 0 W/m² -0,0 °C -4,5 °C 24,1 km/h (4 Bft)
20.11.2024 05:46 20,8 °C 3,1 °C 56 % 80 % 995,4 hPa 0,0 l/m² 16,0 km/h (3 Bft) W-SW 254 ° 0 min 0 W/m² -0,0 °C -3,8 °C 22,5 km/h (4 Bft)
20.11.2024 05:47 20,8 °C 3,1 °C 56 % 80 % 995,5 hPa 0,0 l/m² 16,3 km/h (3 Bft) W 261 ° 0 min 0 W/m² -0,0 °C -3,9 °C 29,0 km/h (5 Bft)
20.11.2024 05:48 20,8 °C 3,1 °C 56 % 80 % 995,4 hPa 0,0 l/m² 24,5 km/h (4 Bft) W 280 ° 0 min 0 W/m² -0,0 °C -7,3 °C 30,6 km/h (5 Bft)
20.11.2024 05:49 20,8 °C 3,1 °C 56 % 80 % 995,4 hPa 0,0 l/m² 23,1 km/h (4 Bft) W 263 ° 0 min 0 W/m² -0,0 °C -6,8 °C 32,2 km/h (5 Bft)
20.11.2024 05:50 20,8 °C 3,1 °C 56 % 80 % 995,4 hPa 0,0 l/m² 22,1 km/h (4 Bft) W 271 ° 0 min 0 W/m² -0,0 °C -6,5 °C 27,4 km/h (5 Bft)
20.11.2024 05:52 20,7 °C 3,2 °C 56 % 80 % 995,5 hPa 0,0 l/m² 19,3 km/h (3 Bft) W 271 ° 0 min 0 W/m² 0,1 °C -5,2 °C 29,0 km/h (5 Bft)
20.11.2024 05:53 20,8 °C 3,2 °C 56 % 80 % 995,5 hPa 0,0 l/m² 17,2 km/h (3 Bft) W 274 ° 0 min 0 W/m² 0,1 °C -4,2 °C 25,7 km/h (4 Bft)
20.11.2024 05:54 20,8 °C 3,2 °C 56 % 80 % 995,6 hPa 0,0 l/m² 20,9 km/h (4 Bft) W 259 ° 0 min 0 W/m² 0,1 °C -5,9 °C 29,0 km/h (5 Bft)
20.11.2024 05:55 20,8 °C 3,2 °C 56 % 80 % 995,7 hPa 0,0 l/m² 17,5 km/h (3 Bft) W-NW 295 ° 0 min 0 W/m² 0,1 °C -4,4 °C 24,1 km/h (4 Bft)
20.11.2024 05:56 20,8 °C 3,2 °C 56 % 80 % 995,6 hPa 0,0 l/m² 14,8 km/h (3 Bft) W 259 ° 0 min 0 W/m² 0,1 °C -3,0 °C 19,3 km/h (3 Bft)
20.11.2024 05:57 20,8 °C 3,2 °C 56 % 80 % 995,6 hPa 0,0 l/m² 16,9 km/h (3 Bft) W 268 ° 0 min 0 W/m² 0,1 °C -4,1 °C 22,5 km/h (4 Bft)
20.11.2024 05:58 20,8 °C 3,2 °C 56 % 80 % 995,6 hPa 0,0 l/m² 20,8 km/h (4 Bft) W-SW 249 ° 0 min 0 W/m² 0,1 °C -5,8 °C 27,4 km/h (5 Bft)
20.11.2024 05:59 20,7 °C 3,2 °C 56 % 80 % 995,7 hPa 0,0 l/m² 19,4 km/h (3 Bft) W-SW 257 ° 0 min 0 W/m² 0,1 °C -5,2 °C 27,4 km/h (5 Bft)
20.11.2024 06:00 20,7 °C 3,2 °C 56 % 79 % 995,7 hPa 0,0 l/m² 19,6 km/h (3 Bft) W 272 ° 0 min 0 W/m² -0,1 °C -5,3 °C 25,7 km/h (4 Bft)
20.11.2024 06:02 20,7 °C 3,2 °C 56 % 79 % 995,8 hPa 0,0 l/m² 23,9 km/h (4 Bft) W 265 ° 0 min 0 W/m² -0,1 °C -7,0 °C 37,0 km/h (5 Bft)
20.11.2024 06:03 20,8 °C 3,2 °C 56 % 79 % 995,9 hPa 0,0 l/m² 15,3 km/h (3 Bft) SW 236 ° 0 min 0 W/m² -0,1 °C -3,3 °C 22,5 km/h (4 Bft)
20.11.2024 06:04 20,8 °C 3,2 °C 56 % 79 % 995,8 hPa 0,0 l/m² 15,6 km/h (3 Bft) W-SW 254 ° 0 min 0 W/m² -0,1 °C -3,4 °C 22,5 km/h (4 Bft)
20.11.2024 06:05 20,8 °C 3,2 °C 56 % 79 % 995,9 hPa 0,0 l/m² 19,1 km/h (3 Bft) W 262 ° 0 min 0 W/m² -0,1 °C -5,1 °C 25,7 km/h (4 Bft)
20.11.2024 06:06 20,8 °C 3,2 °C 56 % 79 % 995,9 hPa 0,0 l/m² 15,6 km/h (3 Bft) W 271 ° 0 min 0 W/m² -0,1 °C -3,4 °C 22,5 km/h (4 Bft)
20.11.2024 06:07 20,7 °C 3,2 °C 56 % 79 % 995,9 hPa 0,0 l/m² 17,6 km/h (3 Bft) W-SW 258 ° 0 min 0 W/m² -0,1 °C -4,4 °C 25,7 km/h (4 Bft)
20.11.2024 06:08 20,8 °C 3,2 °C 56 % 79 % 996,0 hPa 0,0 l/m² 22,0 km/h (4 Bft) W-SW 249 ° 0 min 0 W/m² -0,1 °C -6,3 °C 29,0 km/h (5 Bft)
20.11.2024 06:09 20,8 °C 3,3 °C 56 % 79 % 996,0 hPa 0,0 l/m² 15,1 km/h (3 Bft) SW 232 ° 0 min 0 W/m² 0,0 °C -3,0 °C 24,1 km/h (4 Bft)
20.11.2024 06:10 20,8 °C 3,3 °C 56 % 79 % 996,0 hPa 0,0 l/m² 14,5 km/h (3 Bft) W 265 ° 0 min 0 W/m² 0,0 °C -2,7 °C 19,3 km/h (3 Bft)
20.11.2024 06:12 20,8 °C 3,2 °C 56 % 79 % 996,1 hPa 0,0 l/m² 15,6 km/h (3 Bft) W-SW 252 ° 0 min 0 W/m² -0,1 °C -3,4 °C 22,5 km/h (4 Bft)
20.11.2024 06:13 20,8 °C 3,2 °C 56 % 79 % 996,2 hPa 0,0 l/m² 13,0 km/h (3 Bft) W-SW 255 ° 0 min 0 W/m² -0,1 °C -1,9 °C 17,7 km/h (3 Bft)
20.11.2024 06:14 20,8 °C 3,3 °C 56 % 80 % 996,2 hPa 0,0 l/m² 16,7 km/h (3 Bft) S-SW 210 ° 0 min 0 W/m² 0,2 °C -3,9 °C 25,7 km/h (4 Bft)
20.11.2024 06:15 20,8 °C 3,2 °C 57 % 80 % 996,1 hPa 0,0 l/m² 11,8 km/h (2 Bft) S-SW 207 ° 0 min 0 W/m² 0,1 °C -1,2 °C 14,5 km/h (3 Bft)
20.11.2024 06:16 20,8 °C 3,2 °C 57 % 80 % 996,1 hPa 0,0 l/m² 10,1 km/h (2 Bft) SW 229 ° 0 min 0 W/m² 0,1 °C 0,0 °C 12,9 km/h (3 Bft)
20.11.2024 06:17 20,8 °C 3,2 °C 57 % 81 % 996,1 hPa 0,0 l/m² 10,1 km/h (2 Bft) S-SW 211 ° 0 min 0 W/m² 0,3 °C 0,0 °C 12,9 km/h (3 Bft)
20.11.2024 06:18 20,8 °C 3,2 °C 57 % 81 % 996,1 hPa 0,0 l/m² 7,9 km/h (2 Bft) S-SW 211 ° 0 min 0 W/m² 0,3 °C 1,8 °C 9,7 km/h (2 Bft)
20.11.2024 06:19 20,8 °C 3,2 °C 57 % 81 % 996,1 hPa 0,0 l/m² 11,0 km/h (2 Bft) SW 215 ° 0 min 0 W/m² 0,3 °C -0,6 °C 12,9 km/h (3 Bft)
20.11.2024 06:20 20,8 °C 3,1 °C 57 % 81 % 996,1 hPa 0,0 l/m² 11,8 km/h (2 Bft) SW 215 ° 0 min 0 W/m² 0,2 °C -1,3 °C 14,5 km/h (3 Bft)
20.11.2024 06:22 20,8 °C 3,1 °C 57 % 82 % 996,1 hPa 0,0 l/m² 10,4 km/h (2 Bft) S-SW 203 ° 0 min 0 W/m² 0,3 °C -0,3 °C 14,5 km/h (3 Bft)
20.11.2024 06:24 20,8 °C 3,0 °C 57 % 82 % 996,2 hPa 0,0 l/m² 8,6 km/h (2 Bft) SW 215 ° 0 min 0 W/m² 0,2 °C 1,0 °C 11,3 km/h (2 Bft)
20.11.2024 06:25 20,8 °C 2,9 °C 57 % 82 % 996,1 hPa 0,0 l/m² 8,9 km/h (2 Bft) SW 214 ° 0 min 0 W/m² 0,1 °C 0,6 °C 11,3 km/h (2 Bft)
20.11.2024 06:26 20,8 °C 2,9 °C 57 % 82 % 996,2 hPa 0,0 l/m² 9,3 km/h (2 Bft) S-SW 207 ° 0 min 0 W/m² 0,1 °C 0,3 °C 11,3 km/h (2 Bft)
20.11.2024 06:27 20,8 °C 2,9 °C 57 % 82 % 996,2 hPa 0,0 l/m² 9,1 km/h (2 Bft) S-SW 213 ° 0 min 0 W/m² 0,1 °C 0,5 °C 11,3 km/h (2 Bft)
20.11.2024 06:28 20,8 °C 2,8 °C 57 % 82 % 996,2 hPa 0,0 l/m² 8,7 km/h (2 Bft) S-SW 209 ° 0 min 0 W/m² 0,0 °C 0,7 °C 11,3 km/h (2 Bft)
20.11.2024 06:29 20,8 °C 2,8 °C 57 % 82 % 996,2 hPa 0,0 l/m² 7,7 km/h (2 Bft) SW 232 ° 0 min 0 W/m² 0,0 °C 1,6 °C 9,7 km/h (2 Bft)
20.11.2024 06:30 20,8 °C 2,8 °C 57 % 82 % 996,3 hPa 0,0 l/m² 8,0 km/h (2 Bft) SW 226 ° 0 min 0 W/m² 0,0 °C 1,3 °C 11,3 km/h (2 Bft)
20.11.2024 06:32 20,8 °C 2,7 °C 57 % 83 % 996,3 hPa 0,0 l/m² 8,0 km/h (2 Bft) SW 229 ° 0 min 0 W/m² 0,1 °C 1,2 °C 11,3 km/h (2 Bft)
20.11.2024 06:34 20,8 °C 2,7 °C 56 % 83 % 996,3 hPa 0,0 l/m² 8,7 km/h (2 Bft) SW 224 ° 0 min 0 W/m² 0,1 °C 0,6 °C 11,3 km/h (2 Bft)
20.11.2024 06:35 20,8 °C 2,6 °C 56 % 83 % 996,3 hPa 0,0 l/m² 8,9 km/h (2 Bft) SW 219 ° 0 min 0 W/m² 0,0 °C 0,3 °C 12,9 km/h (3 Bft)
20.11.2024 06:36 20,8 °C 2,6 °C 56 % 83 % 996,3 hPa 0,0 l/m² 6,1 km/h (2 Bft) SW 223 ° 0 min 0 W/m² 0,0 °C 2,6 °C 8,0 km/h (2 Bft)
20.11.2024 06:37 20,7 °C 2,6 °C 57 % 84 % 996,3 hPa 0,0 l/m² 7,8 km/h (2 Bft) SW 232 ° 0 min 0 W/m² 0,2 °C 1,3 °C 11,3 km/h (2 Bft)
20.11.2024 06:38 20,7 °C 2,6 °C 56 % 84 % 996,3 hPa 0,0 l/m² 7,5 km/h (2 Bft) SW 231 ° 0 min 0 W/m² 0,2 °C 1,5 °C 11,3 km/h (2 Bft)
20.11.2024 06:39 20,8 °C 2,6 °C 56 % 84 % 996,4 hPa 0,0 l/m² 6,4 km/h (2 Bft) SW 236 ° 0 min 0 W/m² 0,2 °C 2,6 °C 8,0 km/h (2 Bft)
20.11.2024 06:41 20,8 °C 2,5 °C 56 % 84 % 996,3 hPa 0,0 l/m² 6,9 km/h (2 Bft) W-SW 240 ° 0 min 0 W/m² 0,1 °C 2,0 °C 11,3 km/h (2 Bft)
20.11.2024 06:43 20,8 °C 2,4 °C 56 % 84 % 996,4 hPa 0,0 l/m² 6,4 km/h (2 Bft) W-SW 238 ° 0 min 0 W/m² -0,0 °C 2,4 °C 11,3 km/h (2 Bft)
20.11.2024 06:44 20,8 °C 2,4 °C 56 % 84 % 996,4 hPa 0,0 l/m² 7,4 km/h (2 Bft) W-SW 241 ° 0 min 0 W/m² -0,0 °C 1,4 °C 12,9 km/h (3 Bft)
20.11.2024 06:46 20,8 °C 2,4 °C 56 % 85 % 996,3 hPa 0,0 l/m² 6,5 km/h (2 Bft) W-SW 238 ° 0 min 0 W/m² 0,1 °C 2,3 °C 9,7 km/h (2 Bft)
20.11.2024 06:47 20,8 °C 2,4 °C 56 % 85 % 996,4 hPa 0,0 l/m² 7,6 km/h (2 Bft) W-SW 237 ° 0 min 0 W/m² 0,1 °C 1,2 °C 9,7 km/h (2 Bft)
20.11.2024 06:48 20,8 °C 2,4 °C 56 % 85 % 996,4 hPa 0,0 l/m² 6,8 km/h (2 Bft) SW 225 ° 0 min 0 W/m² 0,1 °C 2,0 °C 9,7 km/h (2 Bft)
20.11.2024 06:49 20,8 °C 2,3 °C 56 % 85 % 996,4 hPa 0,0 l/m² 7,6 km/h (2 Bft) SW 229 ° 0 min 0 W/m² 0,0 °C 1,1 °C 9,7 km/h (2 Bft)
20.11.2024 06:51 20,8 °C 2,3 °C 56 % 85 % 996,4 hPa 0,0 l/m² 7,0 km/h (2 Bft) SW 234 ° 0 min 0 W/m² 0,0 °C 1,7 °C 11,3 km/h (2 Bft)
20.11.2024 06:53 20,8 °C 2,3 °C 56 % 85 % 996,4 hPa 0,0 l/m² 8,2 km/h (2 Bft) W-SW 243 ° 0 min 0 W/m² 0,0 °C 0,6 °C 9,7 km/h (2 Bft)
20.11.2024 06:54 20,8 °C 2,2 °C 56 % 85 % 996,4 hPa 0,0 l/m² 8,6 km/h (2 Bft) W-SW 242 ° 0 min 0 W/m² -0,1 °C 0,1 °C 12,9 km/h (3 Bft)
20.11.2024 06:55 20,8 °C 2,2 °C 56 % 85 % 996,4 hPa 0,0 l/m² 9,1 km/h (2 Bft) SW 227 ° 0 min 0 W/m² -0,1 °C -0,3 °C 12,9 km/h (3 Bft)
20.11.2024 06:56 20,8 °C 2,2 °C 56 % 85 % 996,4 hPa 0,0 l/m² 13,5 km/h (3 Bft) SW 232 ° 0 min 0 W/m² -0,1 °C -3,4 °C 17,7 km/h (3 Bft)
20.11.2024 06:57 20,8 °C 2,2 °C 56 % 85 % 996,4 hPa 0,0 l/m² 10,3 km/h (2 Bft) SW 217 ° 0 min 0 W/m² -0,1 °C -1,3 °C 14,5 km/h (3 Bft)
20.11.2024 06:58 20,8 °C 2,2 °C 56 % 85 % 996,4 hPa 0,0 l/m² 9,3 km/h (2 Bft) SW 227 ° 0 min 0 W/m² -0,1 °C -0,5 °C 14,5 km/h (3 Bft)
20.11.2024 06:59 20,8 °C 2,2 °C 56 % 86 % 996,3 hPa 0,0 l/m² 12,3 km/h (2 Bft) SW 232 ° 0 min 0 W/m² 0,1 °C -2,7 °C 16,1 km/h (3 Bft)
20.11.2024 07:01 20,8 °C 2,1 °C 56 % 86 % 996,4 hPa 0,0 l/m² 11,4 km/h (2 Bft) W-SW 249 ° 0 min 0 W/m² 0,0 °C -2,2 °C 16,1 km/h (3 Bft)
20.11.2024 07:03 20,8 °C 2,1 °C 56 % 86 % 996,4 hPa 0,0 l/m² 14,2 km/h (3 Bft) SW 227 ° 0 min 0 W/m² 0,0 °C -4,0 °C 19,3 km/h (3 Bft)
20.11.2024 07:04 20,8 °C 2,1 °C 56 % 86 % 996,5 hPa 0,0 l/m² 12,5 km/h (2 Bft) SW 232 ° 0 min 0 W/m² 0,0 °C -2,9 °C 16,1 km/h (3 Bft)
20.11.2024 07:05 20,8 °C 2,1 °C 56 % 86 % 996,5 hPa 0,0 l/m² 13,0 km/h (3 Bft) W-SW 239 ° 0 min 0 W/m² 0,0 °C -3,2 °C 19,3 km/h (3 Bft)
20.11.2024 07:06 20,8 °C 2,1 °C 56 % 86 % 996,5 hPa 0,0 l/m² 13,2 km/h (3 Bft) W-SW 243 ° 0 min 0 W/m² 0,0 °C -3,4 °C 17,7 km/h (3 Bft)
20.11.2024 07:07 20,8 °C 2,1 °C 56 % 87 % 996,5 hPa 0,0 l/m² 10,6 km/h (2 Bft) SW 227 ° 0 min 0 W/m² 0,2 °C -1,6 °C 16,1 km/h (3 Bft)
20.11.2024 07:08 20,8 °C 2,1 °C 56 % 87 % 996,5 hPa 0,0 l/m² 12,7 km/h (3 Bft) SW 236 ° 0 min 0 W/m² 0,2 °C -3,0 °C 20,9 km/h (4 Bft)
20.11.2024 07:09 20,8 °C 2,1 °C 56 % 87 % 996,5 hPa 0,0 l/m² 11,3 km/h (2 Bft) SW 229 ° 0 min 0 W/m² 0,2 °C -2,1 °C 14,5 km/h (3 Bft)
20.11.2024 07:11 20,8 °C 2,1 °C 56 % 87 % 996,5 hPa 0,0 l/m² 9,8 km/h (2 Bft) SW 230 ° 0 min 0 W/m² 0,2 °C -1,0 °C 12,9 km/h (3 Bft)
20.11.2024 07:13 20,8 °C 2,1 °C 56 % 87 % 996,5 hPa 0,0 l/m² 12,2 km/h (2 Bft) W-SW 237 ° 0 min 0 W/m² 0,2 °C -2,7 °C 19,3 km/h (3 Bft)
20.11.2024 07:14 20,8 °C 2,1 °C 56 % 87 % 996,5 hPa 0,0 l/m² 11,5 km/h (2 Bft) SW 230 ° 0 min 0 W/m² 0,2 °C -2,2 °C 17,7 km/h (3 Bft)
20.11.2024 07:15 20,8 °C 2,1 °C 56 % 87 % 996,5 hPa 0,0 l/m² 12,9 km/h (3 Bft) SW 229 ° 0 min 0 W/m² 0,2 °C -3,2 °C 17,7 km/h (3 Bft)
20.11.2024 07:16 20,8 °C 2,1 °C 56 % 88 % 996,5 hPa 0,0 l/m² 12,4 km/h (2 Bft) W-SW 250 ° 0 min 0 W/m² 0,3 °C -2,9 °C 17,7 km/h (3 Bft)
20.11.2024 07:17 20,8 °C 2,1 °C 56 % 88 % 996,5 hPa 0,0 l/m² 13,6 km/h (3 Bft) SW 232 ° 0 min 0 W/m² 0,3 °C -3,6 °C 17,7 km/h (3 Bft)
20.11.2024 07:18 20,8 °C 2,1 °C 56 % 87 % 996,5 hPa 0,0 l/m² 13,4 km/h (3 Bft) W-SW 242 ° 0 min 0 W/m² 0,2 °C -3,5 °C 17,7 km/h (3 Bft)
20.11.2024 07:19 20,8 °C 2,1 °C 56 % 87 % 996,5 hPa 0,0 l/m² 14,0 km/h (3 Bft) W-SW 253 ° 0 min 0 W/m² 0,2 °C -3,9 °C 16,1 km/h (3 Bft)
20.11.2024 07:21 20,8 °C 2,1 °C 56 % 88 % 996,5 hPa 0,0 l/m² 15,1 km/h (3 Bft) SW 229 ° 0 min 0 W/m² 0,3 °C -4,5 °C 20,9 km/h (4 Bft)
20.11.2024 07:23 20,8 °C 2,1 °C 56 % 88 % 996,5 hPa 0,0 l/m² 15,0 km/h (3 Bft) W-SW 242 ° 0 min 0 W/m² 0,3 °C -4,4 °C 19,3 km/h (3 Bft)
20.11.2024 07:24 20,8 °C 2,1 °C 56 % 88 % 996,5 hPa 0,0 l/m² 17,7 km/h (3 Bft) SW 227 ° 0 min 0 W/m² 0,3 °C -5,9 °C 20,9 km/h (4 Bft)
20.11.2024 07:25 20,8 °C 2,1 °C 56 % 88 % 996,5 hPa 0,0 l/m² 13,6 km/h (3 Bft) SW 234 ° 0 min 0 W/m² 0,3 °C -3,6 °C 19,3 km/h (3 Bft)
20.11.2024 07:26 20,8 °C 2,1 °C 56 % 88 % 996,6 hPa 0,0 l/m² 14,3 km/h (3 Bft) W-SW 246 ° 0 min 0 W/m² 0,3 °C -4,0 °C 19,3 km/h (3 Bft)
20.11.2024 07:27 20,8 °C 2,1 °C 56 % 88 % 996,5 hPa 0,0 l/m² 11,3 km/h (2 Bft) SW 225 ° 0 min 0 W/m² 0,3 °C -2,1 °C 14,5 km/h (3 Bft)
20.11.2024 07:28 20,8 °C 2,1 °C 56 % 88 % 996,6 hPa 0,0 l/m² 11,9 km/h (2 Bft) W-SW 246 ° 0 min 0 W/m² 0,3 °C -2,5 °C 17,7 km/h (3 Bft)
20.11.2024 07:29 20,8 °C 2,2 °C 56 % 88 % 996,6 hPa 0,0 l/m² 17,6 km/h (3 Bft) W-SW 238 ° 0 min 0 W/m² 0,4 °C -5,7 °C 20,9 km/h (4 Bft)
20.11.2024 07:31 20,8 °C 2,2 °C 56 % 88 % 996,6 hPa 0,0 l/m² 15,8 km/h (3 Bft) SW 234 ° 0 min 0 W/m² 0,4 °C -4,8 °C 22,5 km/h (4 Bft)
20.11.2024 07:33 20,8 °C 2,2 °C 56 % 88 % 996,8 hPa 0,0 l/m² 15,5 km/h (3 Bft) W-SW 256 ° 0 min 0 W/m² 0,4 °C -4,6 °C 20,9 km/h (4 Bft)
20.11.2024 07:34 20,8 °C 2,2 °C 56 % 88 % 996,8 hPa 0,0 l/m² 16,5 km/h (3 Bft) W-SW 238 ° 0 min 0 W/m² 0,4 °C -5,1 °C 22,5 km/h (4 Bft)
20.11.2024 07:35 20,8 °C 2,2 °C 56 % 88 % 996,7 hPa 0,0 l/m² 15,6 km/h (3 Bft) W-SW 242 ° 0 min 0 W/m² 0,4 °C -4,6 °C 20,9 km/h (4 Bft)
20.11.2024 07:36 20,8 °C 2,2 °C 55 % 88 % 996,7 hPa 0,0 l/m² 15,1 km/h (3 Bft) W-SW 245 ° 0 min 0 W/m² 0,4 °C -4,4 °C 20,9 km/h (4 Bft)
20.11.2024 07:37 20,8 °C 2,2 °C 56 % 88 % 996,9 hPa 0,0 l/m² 15,3 km/h (3 Bft) W-SW 238 ° 0 min 0 W/m² 0,4 °C -4,5 °C 19,3 km/h (3 Bft)
20.11.2024 07:38 20,8 °C 2,2 °C 56 % 88 % 996,9 hPa 0,0 l/m² 14,8 km/h (3 Bft) W-SW 258 ° 0 min 0 W/m² 0,4 °C -4,2 °C 22,5 km/h (4 Bft)
20.11.2024 07:39 20,8 °C 2,3 °C 56 % 88 % 996,9 hPa 0,0 l/m² 12,9 km/h (3 Bft) W-SW 240 ° 0 min 0 W/m² 0,5 °C -2,9 °C 16,1 km/h (3 Bft)
20.11.2024 07:41 20,8 °C 2,3 °C 56 % 88 % 997,0 hPa 0,0 l/m² 12,9 km/h (3 Bft) W-SW 246 ° 0 min 0 W/m² 0,5 °C -2,9 °C 17,7 km/h (3 Bft)
20.11.2024 07:43 20,8 °C 2,3 °C 56 % 88 % 997,1 hPa 0,0 l/m² 12,5 km/h (2 Bft) W-SW 245 ° 0 min 0 W/m² 0,5 °C -2,7 °C 19,3 km/h (3 Bft)
20.11.2024 07:44 20,8 °C 2,3 °C 56 % 88 % 997,1 hPa 0,0 l/m² 16,4 km/h (3 Bft) W-SW 239 ° 0 min 0 W/m² 0,5 °C -5,0 °C 20,9 km/h (4 Bft)
20.11.2024 07:45 20,8 °C 2,3 °C 56 % 88 % 997,1 hPa 0,0 l/m² 17,6 km/h (3 Bft) SW 230 ° 0 min 0 W/m² 0,5 °C -5,6 °C 20,9 km/h (4 Bft)
20.11.2024 07:46 20,8 °C 2,3 °C 56 % 88 % 997,0 hPa 0,0 l/m² 15,9 km/h (3 Bft) W-SW 248 ° 0 min 0 W/m² 0,5 °C -4,7 °C 20,9 km/h (4 Bft)
20.11.2024 07:47 20,8 °C 2,3 °C 56 % 88 % 997,0 hPa 0,0 l/m² 17,4 km/h (3 Bft) SW 236 ° 0 min 0 W/m² 0,5 °C -5,5 °C 22,5 km/h (4 Bft)
20.11.2024 07:48 20,8 °C 2,3 °C 56 % 88 % 997,1 hPa 0,0 l/m² 12,6 km/h (3 Bft) SW 236 ° 0 min 0 W/m² 0,5 °C -2,7 °C 16,1 km/h (3 Bft)
20.11.2024 07:49 20,8 °C 2,3 °C 56 % 88 % 997,1 hPa 0,0 l/m² 14,8 km/h (3 Bft) W-SW 243 ° 0 min 0 W/m² 0,5 °C -4,1 °C 19,3 km/h (3 Bft)
20.11.2024 07:51 20,8 °C 2,3 °C 56 % 88 % 997,1 hPa 0,0 l/m² 14,5 km/h (3 Bft) W-SW 238 ° 0 min 0 W/m² 0,5 °C -3,9 °C 20,9 km/h (4 Bft)
20.11.2024 07:53 20,8 °C 2,4 °C 56 % 88 % 997,1 hPa 0,0 l/m² 17,2 km/h (3 Bft) SW 227 ° 0 min 5 W/m² 0,6 °C -5,2 °C 24,1 km/h (4 Bft)
20.11.2024 07:54 20,8 °C 2,4 °C 56 % 88 % 997,1 hPa 0,0 l/m² 14,8 km/h (3 Bft) W-SW 249 ° 0 min 5 W/m² 0,6 °C -4,0 °C 22,5 km/h (4 Bft)
20.11.2024 07:55 20,8 °C 2,4 °C 56 % 88 % 997,1 hPa 0,0 l/m² 18,4 km/h (3 Bft) W-SW 242 ° 0 min 5 W/m² 0,6 °C -5,8 °C 22,5 km/h (4 Bft)
20.11.2024 07:56 20,8 °C 2,4 °C 56 % 88 % 997,2 hPa 0,0 l/m² 13,4 km/h (3 Bft) W-SW 238 ° 0 min 5 W/m² 0,6 °C -3,1 °C 16,1 km/h (3 Bft)
20.11.2024 07:57 20,8 °C 2,4 °C 56 % 88 % 997,2 hPa 0,0 l/m² 15,0 km/h (3 Bft) SW 235 ° 0 min 7 W/m² 0,6 °C -4,1 °C 20,9 km/h (4 Bft)
20.11.2024 07:58 20,8 °C 2,4 °C 56 % 88 % 997,1 hPa 0,0 l/m² 13,1 km/h (3 Bft) SW 234 ° 0 min 7 W/m² 0,6 °C -3,0 °C 16,1 km/h (3 Bft)
20.11.2024 07:59 20,8 °C 2,5 °C 55 % 88 % 997,2 hPa 0,0 l/m² 13,9 km/h (3 Bft) W-SW 240 ° 0 min 7 W/m² 0,7 °C -3,3 °C 22,5 km/h (4 Bft)
20.11.2024 08:01 20,8 °C 2,5 °C 55 % 88 % 997,2 hPa 0,0 l/m² 12,1 km/h (2 Bft) W-SW 251 ° 0 min 9 W/m² 0,7 °C -2,2 °C 17,7 km/h (3 Bft)
20.11.2024 08:03 20,7 °C 2,5 °C 56 % 88 % 997,2 hPa 0,0 l/m² 11,0 km/h (2 Bft) SW 221 ° 0 min 11 W/m² 0,7 °C -1,4 °C 17,7 km/h (3 Bft)
20.11.2024 08:04 20,8 °C 2,5 °C 56 % 87 % 997,2 hPa 0,0 l/m² 12,3 km/h (2 Bft) W-SW 237 ° 0 min 11 W/m² 0,6 °C -2,3 °C 16,1 km/h (3 Bft)
20.11.2024 08:05 20,8 °C 2,5 °C 55 % 87 % 997,2 hPa 0,0 l/m² 11,1 km/h (2 Bft) W-SW 245 ° 0 min 12 W/m² 0,6 °C -1,5 °C 19,3 km/h (3 Bft)
20.11.2024 08:06 20,8 °C 2,5 °C 56 % 87 % 997,1 hPa 0,0 l/m² 15,4 km/h (3 Bft) SW 223 ° 0 min 12 W/m² 0,6 °C -4,2 °C 20,9 km/h (4 Bft)
20.11.2024 08:07 20,8 °C 2,6 °C 56 % 87 % 997,2 hPa 0,0 l/m² 13,6 km/h (3 Bft) SW 236 ° 0 min 12 W/m² 0,7 °C -3,0 °C 20,9 km/h (4 Bft)
20.11.2024 08:08 20,8 °C 2,6 °C 56 % 87 % 997,2 hPa 0,0 l/m² 15,7 km/h (3 Bft) W-SW 242 ° 0 min 12 W/m² 0,7 °C -4,2 °C 22,5 km/h (4 Bft)
20.11.2024 08:09 20,8 °C 2,6 °C 55 % 87 % 997,2 hPa 0,0 l/m² 10,5 km/h (2 Bft) SW 216 ° 0 min 12 W/m² 0,7 °C -1,0 °C 14,5 km/h (3 Bft)
20.11.2024 08:11 20,8 °C 2,6 °C 55 % 87 % 997,3 hPa 0,0 l/m² 18,3 km/h (3 Bft) W-SW 239 ° 0 min 11 W/m² 0,7 °C -5,5 °C 30,6 km/h (5 Bft)
20.11.2024 08:13 20,8 °C 2,6 °C 56 % 87 % 997,3 hPa 0,0 l/m² 15,7 km/h (3 Bft) SW 233 ° 0 min 11 W/m² 0,7 °C -4,2 °C 20,9 km/h (4 Bft)
20.11.2024 08:14 20,7 °C 2,6 °C 55 % 87 % 997,4 hPa 0,0 l/m² 14,1 km/h (3 Bft) SW 227 ° 0 min 11 W/m² 0,7 °C -3,3 °C 19,3 km/h (3 Bft)
20.11.2024 08:15 20,8 °C 2,6 °C 56 % 87 % 997,3 hPa 0,0 l/m² 13,5 km/h (3 Bft) SW 224 ° 0 min 12 W/m² 0,7 °C -3,0 °C 22,5 km/h (4 Bft)
20.11.2024 08:16 20,8 °C 2,6 °C 56 % 87 % 997,4 hPa 0,0 l/m² 14,9 km/h (3 Bft) SW 232 ° 0 min 12 W/m² 0,7 °C -3,8 °C 20,9 km/h (4 Bft)
20.11.2024 08:17 20,7 °C 2,6 °C 56 % 87 % 997,4 hPa 0,0 l/m² 16,9 km/h (3 Bft) SW 227 ° 0 min 14 W/m² 0,7 °C -4,8 °C 22,5 km/h (4 Bft)
20.11.2024 08:18 20,7 °C 2,7 °C 55 % 87 % 997,5 hPa 0,0 l/m² 16,1 km/h (3 Bft) W-SW 250 ° 0 min 16 W/m² 0,8 °C -4,3 °C 20,9 km/h (4 Bft)
20.11.2024 08:19 20,8 °C 2,7 °C 56 % 87 % 997,4 hPa 0,0 l/m² 15,0 km/h (3 Bft) SW 223 ° 0 min 16 W/m² 0,8 °C -3,7 °C 20,9 km/h (4 Bft)
20.11.2024 08:21 20,8 °C 2,7 °C 55 % 87 % 997,4 hPa 0,0 l/m² 14,1 km/h (3 Bft) SW 215 ° 0 min 16 W/m² 0,8 °C -3,2 °C 19,3 km/h (3 Bft)
20.11.2024 08:23 20,7 °C 2,7 °C 55 % 87 % 997,4 hPa 0,0 l/m² 16,0 km/h (3 Bft) SW 221 ° 0 min 21 W/m² 0,8 °C -4,2 °C 20,9 km/h (4 Bft)
20.11.2024 08:24 20,7 °C 2,7 °C 55 % 87 % 997,5 hPa 0,0 l/m² 12,0 km/h (2 Bft) SW 230 ° 0 min 19 W/m² 0,8 °C -1,9 °C 17,7 km/h (3 Bft)
20.11.2024 08:25 20,8 °C 2,8 °C 56 % 87 % 997,5 hPa 0,0 l/m² 11,7 km/h (2 Bft) SW 218 ° 0 min 18 W/m² 0,9 °C -1,6 °C 16,1 km/h (3 Bft)
20.11.2024 08:26 20,8 °C 2,8 °C 55 % 87 % 997,5 hPa 0,0 l/m² 13,2 km/h (3 Bft) SW 216 ° 0 min 18 W/m² 0,9 °C -2,5 °C 17,7 km/h (3 Bft)
20.11.2024 08:27 20,7 °C 2,8 °C 55 % 86 % 997,5 hPa 0,0 l/m² 12,5 km/h (2 Bft) SW 221 ° 0 min 18 W/m² 0,7 °C -2,1 °C 16,1 km/h (3 Bft)
20.11.2024 08:28 20,8 °C 2,8 °C 56 % 86 % 997,4 hPa 0,0 l/m² 12,7 km/h (3 Bft) SW 229 ° 0 min 19 W/m² 0,7 °C -2,2 °C 16,1 km/h (3 Bft)
20.11.2024 08:29 20,8 °C 2,8 °C 56 % 86 % 997,4 hPa 0,0 l/m² 13,1 km/h (3 Bft) SW 221 ° 0 min 21 W/m² 0,7 °C -2,5 °C 19,3 km/h (3 Bft)
20.11.2024 08:31 20,8 °C 2,8 °C 55 % 86 % 997,5 hPa 0,0 l/m² 13,0 km/h (3 Bft) SW 222 ° 0 min 26 W/m² 0,7 °C -2,4 °C 17,7 km/h (3 Bft)
20.11.2024 08:33 20,7 °C 2,8 °C 56 % 86 % 997,6 hPa 0,0 l/m² 16,1 km/h (3 Bft) S-SW 200 ° 0 min 28 W/m² 0,7 °C -4,2 °C 20,9 km/h (4 Bft)
20.11.2024 08:34 20,7 °C 2,8 °C 55 % 86 % 997,6 hPa 0,0 l/m² 15,6 km/h (3 Bft) SW 235 ° 0 min 30 W/m² 0,7 °C -3,9 °C 17,7 km/h (3 Bft)
20.11.2024 08:35 20,8 °C 2,8 °C 55 % 86 % 997,6 hPa 0,0 l/m² 15,8 km/h (3 Bft) SW 215 ° 0 min 37 W/m² 0,7 °C -4,0 °C 19,3 km/h (3 Bft)
20.11.2024 08:37 20,7 °C 2,8 °C 55 % 86 % 997,7 hPa 0,0 l/m² 14,3 km/h (3 Bft) S-SW 210 ° 0 min 49 W/m² 0,7 °C -3,2 °C 19,3 km/h (3 Bft)
20.11.2024 08:38 20,8 °C 2,8 °C 56 % 86 % 997,6 hPa 0,0 l/m² 14,5 km/h (3 Bft) W-SW 248 ° 1 min 53 W/m² 0,7 °C -3,3 °C 17,7 km/h (3 Bft)
20.11.2024 08:39 20,8 °C 2,8 °C 56 % 86 % 997,6 hPa 0,0 l/m² 10,5 km/h (2 Bft) SW 214 ° 0 min 49 W/m² 0,7 °C -0,7 °C 16,1 km/h (3 Bft)
20.11.2024 08:41 20,7 °C 2,8 °C 55 % 86 % 997,7 hPa 0,0 l/m² 12,4 km/h (2 Bft) SW 225 ° 0 min 46 W/m² 0,7 °C -2,0 °C 17,7 km/h (3 Bft)
20.11.2024 08:43 20,7 °C 2,9 °C 55 % 86 % 997,7 hPa 0,0 l/m² 11,2 km/h (2 Bft) SW 222 ° 0 min 42 W/m² 0,8 °C -1,1 °C 19,3 km/h (3 Bft)
20.11.2024 08:44 20,7 °C 2,9 °C 55 % 86 % 997,6 hPa 0,0 l/m² 12,8 km/h (3 Bft) W-SW 239 ° 0 min 39 W/m² 0,8 °C -2,2 °C 17,7 km/h (3 Bft)
20.11.2024 08:45 20,7 °C 2,9 °C 55 % 86 % 997,7 hPa 0,0 l/m² 12,7 km/h (3 Bft) SW 217 ° 0 min 35 W/m² 0,8 °C -2,1 °C 16,1 km/h (3 Bft)
20.11.2024 08:46 20,7 °C 2,9 °C 55 % 86 % 997,7 hPa 0,0 l/m² 13,2 km/h (3 Bft) W-SW 250 ° 0 min 33 W/m² 0,8 °C -2,4 °C 17,7 km/h (3 Bft)
20.11.2024 08:47 20,8 °C 2,9 °C 55 % 86 % 997,8 hPa 0,0 l/m² 13,4 km/h (3 Bft) SW 223 ° 0 min 33 W/m² 0,8 °C -2,5 °C 17,7 km/h (3 Bft)
20.11.2024 08:48 20,8 °C 2,9 °C 55 % 85 % 997,8 hPa 0,0 l/m² 12,8 km/h (3 Bft) W-SW 241 ° 0 min 33 W/m² 0,6 °C -2,2 °C 17,7 km/h (3 Bft)
20.11.2024 08:49 20,7 °C 2,9 °C 55 % 85 % 997,8 hPa 0,0 l/m² 14,7 km/h (3 Bft) SW 232 ° 0 min 33 W/m² 0,6 °C -3,3 °C 20,9 km/h (4 Bft)
20.11.2024 08:51 20,7 °C 3,0 °C 55 % 86 % 997,7 hPa 0,0 l/m² 16,5 km/h (3 Bft) SW 232 ° 0 min 33 W/m² 0,9 °C -4,1 °C 24,1 km/h (4 Bft)
20.11.2024 08:53 20,7 °C 2,9 °C 55 % 85 % 997,7 hPa 0,0 l/m² 15,0 km/h (3 Bft) SW 224 ° 0 min 30 W/m² 0,6 °C -3,5 °C 22,5 km/h (4 Bft)
20.11.2024 08:54 20,7 °C 3,0 °C 55 % 85 % 997,6 hPa 0,0 l/m² 12,6 km/h (3 Bft) W 265 ° 0 min 28 W/m² 0,7 °C -1,9 °C 16,1 km/h (3 Bft)
20.11.2024 08:55 20,8 °C 3,0 °C 55 % 85 % 997,7 hPa 0,0 l/m² 10,7 km/h (2 Bft) SW 221 ° 0 min 26 W/m² 0,7 °C -0,7 °C 17,7 km/h (3 Bft)
20.11.2024 08:56 20,7 °C 3,0 °C 55 % 85 % 997,7 hPa 0,0 l/m² 16,8 km/h (3 Bft) S-SW 202 ° 0 min 25 W/m² 0,7 °C -4,3 °C 25,7 km/h (4 Bft)
20.11.2024 08:57 20,7 °C 3,0 °C 55 % 85 % 997,7 hPa 0,0 l/m² 20,9 km/h (4 Bft) SW 221 ° 0 min 26 W/m² 0,7 °C -6,1 °C 27,4 km/h (5 Bft)
20.11.2024 08:58 20,7 °C 3,1 °C 55 % 85 % 997,7 hPa 0,0 l/m² 24,2 km/h (4 Bft) SW 217 ° 0 min 28 W/m² 0,8 °C -7,2 °C 27,4 km/h (5 Bft)
20.11.2024 08:59 20,7 °C 3,1 °C 55 % 85 % 997,7 hPa 0,0 l/m² 23,1 km/h (4 Bft) SW 225 ° 0 min 33 W/m² 0,8 °C -6,8 °C 30,6 km/h (5 Bft)
20.11.2024 09:01 20,7 °C 3,1 °C 55 % 85 % 997,7 hPa 0,0 l/m² 15,2 km/h (3 Bft) SW 232 ° 0 min 33 W/m² 0,8 °C -3,3 °C 25,7 km/h (4 Bft)
20.11.2024 09:03 20,7 °C 3,1 °C 55 % 85 % 997,6 hPa 0,0 l/m² 14,1 km/h (3 Bft) SW 219 ° 0 min 37 W/m² 0,8 °C -2,7 °C 22,5 km/h (4 Bft)
20.11.2024 09:04 20,7 °C 3,1 °C 55 % 84 % 997,7 hPa 0,0 l/m² 15,6 km/h (3 Bft) SW 219 ° 0 min 35 W/m² 0,7 °C -3,5 °C 22,5 km/h (4 Bft)
20.11.2024 09:05 20,7 °C 3,1 °C 55 % 85 % 997,7 hPa 0,0 l/m² 18,4 km/h (3 Bft) S-SW 209 ° 0 min 35 W/m² 0,8 °C -4,9 °C 25,7 km/h (4 Bft)
20.11.2024 09:07 20,7 °C 3,1 °C 55 % 84 % 997,7 hPa 0,0 l/m² 17,3 km/h (3 Bft) SW 215 ° 0 min 37 W/m² 0,7 °C -4,4 °C 27,4 km/h (5 Bft)
20.11.2024 09:08 20,7 °C 3,2 °C 55 % 84 % 997,7 hPa 0,0 l/m² 13,8 km/h (3 Bft) SW 226 ° 0 min 37 W/m² 0,8 °C -2,4 °C 19,3 km/h (3 Bft)
20.11.2024 09:09 20,7 °C 3,2 °C 55 % 84 % 997,8 hPa 0,0 l/m² 16,2 km/h (3 Bft) SW 222 ° 0 min 39 W/m² 0,8 °C -3,7 °C 19,3 km/h (3 Bft)
20.11.2024 09:11 20,7 °C 3,2 °C 55 % 84 % 997,8 hPa 0,0 l/m² 16,2 km/h (3 Bft) SW 218 ° 0 min 37 W/m² 0,8 °C -3,7 °C 22,5 km/h (4 Bft)
20.11.2024 09:13 20,7 °C 3,2 °C 55 % 84 % 997,8 hPa 0,0 l/m² 15,0 km/h (3 Bft) SW 224 ° 0 min 44 W/m² 0,8 °C -3,1 °C 19,3 km/h (3 Bft)
20.11.2024 09:14 20,7 °C 3,2 °C 55 % 84 % 997,8 hPa 0,0 l/m² 12,7 km/h (3 Bft) SW 231 ° 0 min 47 W/m² 0,8 °C -1,8 °C 16,1 km/h (3 Bft)
20.11.2024 09:15 20,7 °C 3,2 °C 55 % 84 % 997,8 hPa 0,0 l/m² 14,1 km/h (3 Bft) W-SW 237 ° 0 min 46 W/m² 0,8 °C -2,6 °C 17,7 km/h (3 Bft)
20.11.2024 09:16 20,7 °C 3,2 °C 55 % 84 % 997,8 hPa 0,0 l/m² 11,4 km/h (2 Bft) W-SW 246 ° 0 min 44 W/m² 0,8 °C -0,9 °C 17,7 km/h (3 Bft)
20.11.2024 09:17 20,7 °C 3,2 °C 55 % 84 % 997,7 hPa 0,0 l/m² 11,6 km/h (2 Bft) SW 221 ° 0 min 46 W/m² 0,8 °C -1,1 °C 16,1 km/h (3 Bft)
20.11.2024 09:18 20,7 °C 3,2 °C 55 % 84 % 997,7 hPa 0,0 l/m² 12,8 km/h (3 Bft) SW 229 ° 0 min 49 W/m² 0,8 °C -1,8 °C 19,3 km/h (3 Bft)
20.11.2024 09:19 20,7 °C 3,2 °C 55 % 84 % 997,7 hPa 0,0 l/m² 14,1 km/h (3 Bft) SW 221 ° 1 min 56 W/m² 0,8 °C -2,6 °C 20,9 km/h (4 Bft)
20.11.2024 09:21 20,7 °C 3,2 °C 55 % 84 % 997,7 hPa 0,0 l/m² 15,2 km/h (3 Bft) S-SW 204 ° 2 min 74 W/m² 0,8 °C -3,2 °C 20,9 km/h (4 Bft)
20.11.2024 09:22 20,7 °C 3,2 °C 55 % 84 % 997,7 hPa 0,0 l/m² 14,4 km/h (3 Bft) SW 215 ° 1 min 77 W/m² 0,8 °C -2,8 °C 19,3 km/h (3 Bft)
20.11.2024 09:23 20,7 °C 3,2 °C 55 % 84 % 997,7 hPa 0,0 l/m² 14,9 km/h (3 Bft) SW 221 ° 1 min 79 W/m² 0,8 °C -3,0 °C 17,7 km/h (3 Bft)
20.11.2024 09:24 20,7 °C 3,2 °C 55 % 84 % 997,7 hPa 0,0 l/m² 12,6 km/h (3 Bft) W-SW 242 ° 1 min 77 W/m² 0,8 °C -1,7 °C 16,1 km/h (3 Bft)
20.11.2024 09:25 20,7 °C 3,2 °C 55 % 84 % 997,6 hPa 0,0 l/m² 15,9 km/h (3 Bft) SW 216 ° 1 min 76 W/m² 0,8 °C -3,6 °C 24,1 km/h (4 Bft)
20.11.2024 09:26 20,7 °C 3,3 °C 55 % 84 % 997,7 hPa 0,0 l/m² 13,9 km/h (3 Bft) SW 229 ° 1 min 76 W/m² 0,9 °C -2,4 °C 20,9 km/h (4 Bft)
20.11.2024 09:27 20,8 °C 3,2 °C 55 % 84 % 997,7 hPa 0,0 l/m² 18,6 km/h (3 Bft) SW 229 ° 1 min 72 W/m² 0,8 °C -4,9 °C 25,7 km/h (4 Bft)
20.11.2024 09:28 20,7 °C 3,2 °C 55 % 84 % 997,7 hPa 0,0 l/m² 18,3 km/h (3 Bft) SW 229 ° 1 min 70 W/m² 0,8 °C -4,8 °C 24,1 km/h (4 Bft)
20.11.2024 09:29 20,7 °C 3,2 °C 55 % 84 % 997,6 hPa 0,0 l/m² 17,8 km/h (3 Bft) W-SW 237 ° 1 min 69 W/m² 0,8 °C -4,5 °C 27,4 km/h (5 Bft)
20.11.2024 09:31 20,7 °C 3,2 °C 55 % 84 % 997,6 hPa 0,0 l/m² 19,1 km/h (3 Bft) S-SW 209 ° 2 min 70 W/m² 0,8 °C -5,1 °C 24,1 km/h (4 Bft)
20.11.2024 09:33 20,7 °C 3,3 °C 55 % 84 % 997,5 hPa 0,0 l/m² 24,3 km/h (4 Bft) SW 220 ° 2 min 77 W/m² 0,9 °C -7,0 °C 30,6 km/h (5 Bft)
20.11.2024 09:34 20,7 °C 3,3 °C 55 % 84 % 997,5 hPa 0,0 l/m² 18,1 km/h (3 Bft) S-SW 207 ° 1 min 74 W/m² 0,9 °C -4,5 °C 24,1 km/h (4 Bft)
20.11.2024 09:35 20,8 °C 3,3 °C 55 % 84 % 997,6 hPa 0,0 l/m² 21,3 km/h (4 Bft) S-SW 213 ° 1 min 70 W/m² 0,9 °C -5,9 °C 27,4 km/h (5 Bft)
20.11.2024 09:36 20,8 °C 3,3 °C 55 % 84 % 997,5 hPa 0,0 l/m² 20,5 km/h (4 Bft) SW 236 ° 1 min 70 W/m² 0,9 °C -5,6 °C 25,7 km/h (4 Bft)
20.11.2024 09:37 20,8 °C 3,3 °C 55 % 85 % 997,6 hPa 0,0 l/m² 17,8 km/h (3 Bft) SW 219 ° 1 min 74 W/m² 1,0 °C -4,4 °C 22,5 km/h (4 Bft)
20.11.2024 09:38 20,8 °C 3,2 °C 55 % 85 % 997,5 hPa 0,0 l/m² 17,3 km/h (3 Bft) W-SW 237 ° 1 min 77 W/m² 0,9 °C -4,3 °C 20,9 km/h (4 Bft)
20.11.2024 09:39 20,8 °C 3,2 °C 55 % 85 % 997,5 hPa 0,0 l/m² 22,8 km/h (4 Bft) SW 224 ° 1 min 76 W/m² 0,9 °C -6,6 °C 25,7 km/h (4 Bft)
20.11.2024 09:41 20,8 °C 3,2 °C 55 % 85 % 997,5 hPa 0,0 l/m² 20,0 km/h (4 Bft) SW 234 ° 2 min 74 W/m² 0,9 °C -5,5 °C 27,4 km/h (5 Bft)
20.11.2024 09:43 20,8 °C 3,2 °C 55 % 85 % 997,4 hPa 0,0 l/m² 18,9 km/h (3 Bft) SW 216 ° 2 min 77 W/m² 0,9 °C -5,0 °C 25,7 km/h (4 Bft)
20.11.2024 09:44 20,8 °C 3,2 °C 55 % 85 % 997,4 hPa 0,0 l/m² 15,6 km/h (3 Bft) SW 218 ° 1 min 77 W/m² 0,9 °C -3,4 °C 17,7 km/h (3 Bft)
20.11.2024 09:46 20,8 °C 3,2 °C 55 % 85 % 997,4 hPa 0,0 l/m² 14,2 km/h (3 Bft) SW 216 ° 2 min 76 W/m² 0,9 °C -2,7 °C 19,3 km/h (3 Bft)
20.11.2024 09:47 20,8 °C 3,2 °C 55 % 85 % 997,4 hPa 0,0 l/m² 11,3 km/h (2 Bft) W-SW 238 ° 1 min 76 W/m² 0,9 °C -0,8 °C 16,1 km/h (3 Bft)
20.11.2024 09:48 20,8 °C 3,2 °C 55 % 85 % 997,5 hPa 0,0 l/m² 12,5 km/h (2 Bft) W-SW 257 ° 1 min 76 W/m² 0,9 °C -1,6 °C 17,7 km/h (3 Bft)
20.11.2024 09:49 20,8 °C 3,2 °C 55 % 85 % 997,5 hPa 0,0 l/m² 13,1 km/h (3 Bft) SW 217 ° 1 min 86 W/m² 0,9 °C -2,0 °C 19,3 km/h (3 Bft)
20.11.2024 09:50 20,8 °C 3,2 °C 55 % 86 % 997,4 hPa 0,0 l/m² 12,9 km/h (3 Bft) S-SW 204 ° 1 min 91 W/m² 1,1 °C -1,9 °C 16,1 km/h (3 Bft)
20.11.2024 09:52 20,8 °C 3,2 °C 55 % 86 % 997,3 hPa 0,0 l/m² 14,8 km/h (3 Bft) SW 222 ° 2 min 107 W/m² 1,1 °C -3,0 °C 20,9 km/h (4 Bft)
20.11.2024 09:54 20,8 °C 3,2 °C 55 % 86 % 997,4 hPa 0,0 l/m² 17,5 km/h (3 Bft) SW 219 ° 2 min 118 W/m² 1,1 °C -4,4 °C 22,5 km/h (4 Bft)
20.11.2024 09:55 20,8 °C 3,1 °C 55 % 86 % 997,4 hPa 0,0 l/m² 15,1 km/h (3 Bft) S-SW 213 ° 1 min 193 W/m² 1,0 °C -3,3 °C 19,3 km/h (3 Bft)
20.11.2024 09:56 20,8 °C 3,2 °C 55 % 86 % 997,4 hPa 0,0 l/m² 16,1 km/h (3 Bft) SW 226 ° 1 min 130 W/m² 1,1 °C -3,7 °C 19,3 km/h (3 Bft)
20.11.2024 09:57 20,8 °C 3,2 °C 55 % 86 % 997,5 hPa 0,0 l/m² 14,6 km/h (3 Bft) S-SW 212 ° 1 min 125 W/m² 1,1 °C -2,9 °C 19,3 km/h (3 Bft)
20.11.2024 09:59 20,8 °C 3,3 °C 55 % 87 % 997,5 hPa 0,0 l/m² 12,8 km/h (3 Bft) S-SW 213 ° 2 min 114 W/m² 1,3 °C -1,7 °C 16,1 km/h (3 Bft)
20.11.2024 10:00 20,8 °C 3,3 °C 55 % 87 % 997,4 hPa 0,0 l/m² 15,0 km/h (3 Bft) SW 217 ° 1 min 102 W/m² 1,3 °C -3,0 °C 16,1 km/h (3 Bft)
20.11.2024 10:01 20,8 °C 3,3 °C 55 % 87 % 997,4 hPa 0,0 l/m² 15,1 km/h (3 Bft) S-SW 211 ° 1 min 98 W/m² 1,3 °C -3,0 °C 19,3 km/h (3 Bft)
20.11.2024 10:02 20,8 °C 3,3 °C 55 % 86 % 997,5 hPa 0,0 l/m² 19,0 km/h (3 Bft) S-SW 202 ° 1 min 98 W/m² 1,2 °C -4,9 °C 27,4 km/h (5 Bft)
20.11.2024 10:03 20,8 °C 3,3 °C 55 % 86 % 997,5 hPa 0,0 l/m² 21,2 km/h (4 Bft) S-SW 205 ° 1 min 105 W/m² 1,2 °C -5,9 °C 27,4 km/h (5 Bft)
20.11.2024 10:04 20,8 °C 3,3 °C 55 % 86 % 997,5 hPa 0,0 l/m² 18,3 km/h (3 Bft) SW 215 ° 1 min 113 W/m² 1,2 °C -4,6 °C 22,5 km/h (4 Bft)
20.11.2024 10:05 20,8 °C 3,3 °C 55 % 87 % 997,4 hPa 0,0 l/m² 18,1 km/h (3 Bft) S-SW 211 ° 1 min 86 W/m² 1,3 °C -4,5 °C 24,1 km/h (4 Bft)
20.11.2024 10:06 20,8 °C 3,3 °C 55 % 87 % 997,4 hPa 0,0 l/m² 16,9 km/h (3 Bft) SW 217 ° 1 min 84 W/m² 1,3 °C -4,0 °C 20,9 km/h (4 Bft)
20.11.2024 10:07 20,8 °C 3,3 °C 55 % 86 % 997,5 hPa 0,0 l/m² 17,2 km/h (3 Bft) S-SW 205 ° 1 min 79 W/m² 1,2 °C -4,1 °C 22,5 km/h (4 Bft)
20.11.2024 10:08 20,8 °C 3,3 °C 55 % 86 % 997,4 hPa 0,0 l/m² 18,6 km/h (3 Bft) S-SW 208 ° 1 min 77 W/m² 1,2 °C -4,8 °C 22,5 km/h (4 Bft)
20.11.2024 10:09 20,8 °C 3,3 °C 55 % 86 % 997,3 hPa 0,0 l/m² 16,7 km/h (3 Bft) S-SW 211 ° 1 min 77 W/m² 1,2 °C -3,9 °C 20,9 km/h (4 Bft)
20.11.2024 10:10 20,8 °C 3,3 °C 55 % 86 % 997,4 hPa 0,0 l/m² 17,8 km/h (3 Bft) SW 216 ° 1 min 81 W/m² 1,2 °C -4,4 °C 20,9 km/h (4 Bft)
20.11.2024 10:12 20,8 °C 3,3 °C 55 % 86 % 997,4 hPa 0,0 l/m² 17,7 km/h (3 Bft) S-SW 213 ° 2 min 84 W/m² 1,2 °C -4,3 °C 24,1 km/h (4 Bft)
20.11.2024 10:13 20,8 °C 3,4 °C 55 % 86 % 997,4 hPa 0,0 l/m² 19,7 km/h (3 Bft) SW 214 ° 1 min 88 W/m² 1,3 °C -5,1 °C 24,1 km/h (4 Bft)
20.11.2024 10:14 20,8 °C 3,3 °C 55 % 86 % 997,4 hPa 0,0 l/m² 19,1 km/h (3 Bft) SW 216 ° 1 min 88 W/m² 1,2 °C -5,0 °C 25,7 km/h (4 Bft)
20.11.2024 10:15 20,9 °C 3,4 °C 55 % 86 % 997,5 hPa 0,0 l/m² 20,7 km/h (4 Bft) SW 218 ° 1 min 88 W/m² 1,3 °C -5,5 °C 27,4 km/h (5 Bft)
20.11.2024 10:16 20,8 °C 3,4 °C 55 % 86 % 997,4 hPa 0,0 l/m² 19,7 km/h (3 Bft) S-SW 209 ° 1 min 86 W/m² 1,3 °C -5,1 °C 29,0 km/h (5 Bft)
20.11.2024 10:17 20,8 °C 3,4 °C 55 % 86 % 997,5 hPa 0,0 l/m² 22,0 km/h (4 Bft) S-SW 201 ° 1 min 83 W/m² 1,3 °C -6,0 °C 30,6 km/h (5 Bft)
20.11.2024 10:18 20,8 °C 3,4 °C 55 % 86 % 997,6 hPa 0,0 l/m² 19,9 km/h (4 Bft) S-SW 209 ° 1 min 77 W/m² 1,3 °C -5,2 °C 24,1 km/h (4 Bft)
20.11.2024 10:19 20,8 °C 3,4 °C 55 % 86 % 997,6 hPa 0,0 l/m² 19,8 km/h (3 Bft) SW 232 ° 1 min 72 W/m² 1,3 °C -5,2 °C 25,7 km/h (4 Bft)
20.11.2024 10:20 20,9 °C 3,4 °C 55 % 86 % 997,6 hPa 0,0 l/m² 23,0 km/h (4 Bft) SW 221 ° 1 min 74 W/m² 1,3 °C -6,4 °C 29,0 km/h (5 Bft)
20.11.2024 10:22 20,9 °C 3,4 °C 55 % 86 % 997,6 hPa 0,0 l/m² 23,7 km/h (4 Bft) S-SW 213 ° 2 min 76 W/m² 1,3 °C -6,7 °C 32,2 km/h (5 Bft)
20.11.2024 10:23 20,9 °C 3,4 °C 55 % 86 % 997,6 hPa 0,0 l/m² 22,1 km/h (4 Bft) SW 216 ° 1 min 76 W/m² 1,3 °C -6,1 °C 29,0 km/h (5 Bft)
20.11.2024 10:24 20,9 °C 3,4 °C 55 % 86 % 997,7 hPa 0,0 l/m² 24,0 km/h (4 Bft) SW 216 ° 1 min 76 W/m² 1,3 °C -6,8 °C 30,6 km/h (5 Bft)
20.11.2024 10:25 20,8 °C 3,5 °C 55 % 86 % 997,7 hPa 0,0 l/m² 20,1 km/h (4 Bft) SW 217 ° 1 min 79 W/m² 1,4 °C -5,2 °C 27,4 km/h (5 Bft)
20.11.2024 10:26 20,8 °C 3,5 °C 55 % 86 % 997,7 hPa 0,0 l/m² 16,8 km/h (3 Bft) S-SW 196 ° 1 min 81 W/m² 1,4 °C -3,7 °C 20,9 km/h (4 Bft)
20.11.2024 10:27 20,8 °C 3,5 °C 55 % 86 % 997,7 hPa 0,0 l/m² 17,7 km/h (3 Bft) S-SW 206 ° 1 min 83 W/m² 1,4 °C -4,1 °C 24,1 km/h (4 Bft)
20.11.2024 10:28 20,8 °C 3,5 °C 55 % 86 % 997,7 hPa 0,0 l/m² 21,0 km/h (4 Bft) S-SW 196 ° 1 min 84 W/m² 1,4 °C -5,5 °C 27,4 km/h (5 Bft)
20.11.2024 10:29 20,8 °C 3,5 °C 55 % 86 % 997,7 hPa 0,0 l/m² 23,0 km/h (4 Bft) S-SW 213 ° 1 min 84 W/m² 1,4 °C -6,3 °C 32,2 km/h (5 Bft)
20.11.2024 10:30 20,8 °C 3,5 °C 55 % 86 % 997,7 hPa 0,0 l/m² 19,0 km/h (3 Bft) S-SW 205 ° 1 min 95 W/m² 1,4 °C -4,7 °C 24,1 km/h (4 Bft)
20.11.2024 10:32 20,8 °C 3,5 °C 55 % 86 % 997,7 hPa 0,0 l/m² 23,5 km/h (4 Bft) SW 217 ° 2 min 104 W/m² 1,4 °C -6,5 °C 30,6 km/h (5 Bft)
20.11.2024 10:33 20,8 °C 3,5 °C 55 % 86 % 997,8 hPa 0,0 l/m² 21,6 km/h (4 Bft) SW 219 ° 1 min 107 W/m² 1,4 °C -5,8 °C 29,0 km/h (5 Bft)
20.11.2024 10:34 20,8 °C 3,5 °C 55 % 86 % 997,8 hPa 0,0 l/m² 16,3 km/h (3 Bft) SW 217 ° 1 min 104 W/m² 1,4 °C -3,4 °C 22,5 km/h (4 Bft)
20.11.2024 10:35 20,8 °C 3,5 °C 55 % 86 % 997,8 hPa 0,0 l/m² 18,9 km/h (3 Bft) SW 224 ° 1 min 97 W/m² 1,4 °C -4,6 °C 27,4 km/h (5 Bft)
20.11.2024 10:36 20,8 °C 3,6 °C 55 % 86 % 997,8 hPa 0,0 l/m² 20,2 km/h (4 Bft) S-SW 211 ° 1 min 93 W/m² 1,5 °C -5,1 °C 25,7 km/h (4 Bft)
20.11.2024 10:37 20,8 °C 3,5 °C 55 % 86 % 997,8 hPa 0,0 l/m² 21,4 km/h (4 Bft) SW 215 ° 1 min 93 W/m² 1,4 °C -5,7 °C 29,0 km/h (5 Bft)
20.11.2024 10:38 20,9 °C 3,5 °C 55 % 86 % 997,9 hPa 0,0 l/m² 21,3 km/h (4 Bft) SW 215 ° 1 min 93 W/m² 1,4 °C -5,6 °C 29,0 km/h (5 Bft)
20.11.2024 10:39 20,9 °C 3,6 °C 55 % 86 % 997,7 hPa 0,0 l/m² 25,2 km/h (4 Bft) S-SW 213 ° 1 min 93 W/m² 1,5 °C -6,9 °C 30,6 km/h (5 Bft)
20.11.2024 10:40 20,8 °C 3,5 °C 55 % 86 % 997,8 hPa 0,0 l/m² 21,7 km/h (4 Bft) SW 229 ° 1 min 91 W/m² 1,4 °C -5,8 °C 29,0 km/h (5 Bft)
20.11.2024 10:42 20,8 °C 3,5 °C 55 % 86 % 997,8 hPa 0,0 l/m² 21,9 km/h (4 Bft) SW 218 ° 2 min 91 W/m² 1,4 °C -5,9 °C 30,6 km/h (5 Bft)
20.11.2024 10:44 20,8 °C 3,5 °C 55 % 86 % 997,8 hPa 0,0 l/m² 26,8 km/h (4 Bft) SW 216 ° 2 min 90 W/m² 1,4 °C -7,6 °C 37,0 km/h (5 Bft)
20.11.2024 10:45 20,8 °C 3,5 °C 55 % 86 % 997,7 hPa 0,0 l/m² 24,7 km/h (4 Bft) SW 230 ° 1 min 88 W/m² 1,4 °C -6,9 °C 33,8 km/h (5 Bft)
20.11.2024 10:46 20,8 °C 3,5 °C 55 % 86 % 997,8 hPa 0,0 l/m² 27,4 km/h (5 Bft) SW 227 ° 1 min 90 W/m² 1,4 °C -7,7 °C 35,4 km/h (5 Bft)
20.11.2024 10:47 20,8 °C 3,5 °C 55 % 86 % 997,8 hPa 0,0 l/m² 21,9 km/h (4 Bft) SW 217 ° 1 min 91 W/m² 1,4 °C -5,9 °C 29,0 km/h (5 Bft)
20.11.2024 10:48 20,8 °C 3,5 °C 55 % 86 % 997,9 hPa 0,0 l/m² 22,1 km/h (4 Bft) SW 224 ° 1 min 97 W/m² 1,4 °C -5,9 °C 27,4 km/h (5 Bft)
20.11.2024 10:49 20,8 °C 3,5 °C 55 % 86 % 997,8 hPa 0,0 l/m² 22,9 km/h (4 Bft) SW 229 ° 1 min 98 W/m² 1,4 °C -6,2 °C 32,2 km/h (5 Bft)
20.11.2024 10:50 20,8 °C 3,5 °C 55 % 86 % 997,8 hPa 0,0 l/m² 25,8 km/h (4 Bft) S-SW 213 ° 1 min 95 W/m² 1,4 °C -7,2 °C 32,2 km/h (5 Bft)
20.11.2024 10:52 20,8 °C 3,6 °C 55 % 86 % 997,9 hPa 0,0 l/m² 22,5 km/h (4 Bft) S-SW 202 ° 2 min 102 W/m² 1,5 °C -6,0 °C 30,6 km/h (5 Bft)
20.11.2024 10:54 20,9 °C 3,5 °C 55 % 86 % 997,9 hPa 0,0 l/m² 19,1 km/h (3 Bft) S-SW 207 ° 2 min 127 W/m² 1,4 °C -4,7 °C 27,4 km/h (5 Bft)
20.11.2024 10:55 20,8 °C 3,6 °C 55 % 86 % 997,9 hPa 0,0 l/m² 19,5 km/h (3 Bft) W-SW 240 ° 1 min 132 W/m² 1,5 °C -4,8 °C 24,1 km/h (4 Bft)
20.11.2024 10:56 20,8 °C 3,6 °C 55 % 86 % 997,9 hPa 0,0 l/m² 21,0 km/h (4 Bft) S-SW 206 ° 1 min 134 W/m² 1,5 °C -5,4 °C 24,1 km/h (4 Bft)
20.11.2024 10:57 20,8 °C 3,5 °C 55 % 86 % 997,9 hPa 0,0 l/m² 22,5 km/h (4 Bft) SW 225 ° 1 min 132 W/m² 1,4 °C -6,1 °C 27,4 km/h (5 Bft)
20.11.2024 10:58 20,9 °C 3,5 °C 55 % 86 % 997,8 hPa 0,0 l/m² 18,7 km/h (3 Bft) SW 221 ° 1 min 134 W/m² 1,4 °C -4,6 °C 25,7 km/h (4 Bft)
20.11.2024 10:59 20,8 °C 3,5 °C 55 % 86 % 997,8 hPa 0,0 l/m² 18,7 km/h (3 Bft) SW 221 ° 1 min 144 W/m² 1,4 °C -4,6 °C 22,5 km/h (4 Bft)
20.11.2024 11:00 20,8 °C 3,5 °C 55 % 86 % 997,8 hPa 0,0 l/m² 18,1 km/h (3 Bft) SW 231 ° 1 min 179 W/m² 1,4 °C -4,3 °C 22,5 km/h (4 Bft)
20.11.2024 11:02 20,8 °C 3,6 °C 55 % 87 % 997,8 hPa 0,0 l/m² 17,8 km/h (3 Bft) SW 217 ° 2 min 200 W/m² 1,6 °C -4,0 °C 24,1 km/h (4 Bft)
20.11.2024 11:04 20,8 °C 3,8 °C 55 % 87 % 997,8 hPa 0,0 l/m² 12,3 km/h (2 Bft) SW 234 ° 2 min 367 W/m² 1,8 °C -0,8 °C 16,1 km/h (3 Bft)
20.11.2024 11:05 20,8 °C 3,8 °C 55 % 87 % 997,7 hPa 0,0 l/m² 13,7 km/h (3 Bft) S-SW 213 ° 1 min 367 W/m² 1,8 °C -1,7 °C 17,7 km/h (3 Bft)
20.11.2024 11:06 20,9 °C 3,9 °C 55 % 87 % 997,6 hPa 0,0 l/m² 14,6 km/h (3 Bft) S-SW 211 ° 1 min 72 W/m² 1,9 °C -2,0 °C 17,7 km/h (3 Bft)
20.11.2024 11:07 20,9 °C 3,9 °C 55 % 86 % 997,7 hPa 0,0 l/m² 12,8 km/h (3 Bft) SW 222 ° 1 min 72 W/m² 1,8 °C -1,0 °C 20,9 km/h (4 Bft)
20.11.2024 11:08 20,9 °C 3,9 °C 55 % 86 % 997,7 hPa 0,0 l/m² 12,9 km/h (3 Bft) SW 215 ° 1 min 54 W/m² 1,8 °C -1,1 °C 16,1 km/h (3 Bft)
20.11.2024 11:09 20,9 °C 3,9 °C 55 % 86 % 997,7 hPa 0,0 l/m² 15,7 km/h (3 Bft) SW 232 ° 1 min 53 W/m² 1,8 °C -2,6 °C 19,3 km/h (3 Bft)
20.11.2024 11:10 20,9 °C 3,9 °C 55 % 86 % 997,8 hPa 0,0 l/m² 15,6 km/h (3 Bft) SW 217 ° 1 min 53 W/m² 1,8 °C -2,6 °C 20,9 km/h (4 Bft)
20.11.2024 11:12 20,9 °C 3,8 °C 55 % 86 % 997,7 hPa 0,0 l/m² 20,3 km/h (4 Bft) S-SW 211 ° 2 min 58 W/m² 1,7 °C -4,8 °C 25,7 km/h (4 Bft)
20.11.2024 11:14 20,9 °C 3,8 °C 55 % 86 % 997,6 hPa 0,0 l/m² 18,4 km/h (3 Bft) SW 215 ° 2 min 67 W/m² 1,7 °C -4,0 °C 25,7 km/h (4 Bft)
20.11.2024 11:15 20,9 °C 3,8 °C 55 % 86 % 997,6 hPa 0,0 l/m² 21,7 km/h (4 Bft) SW 231 ° 1 min 72 W/m² 1,7 °C -5,4 °C 29,0 km/h (5 Bft)
20.11.2024 11:16 20,9 °C 3,8 °C 55 % 86 % 997,6 hPa 0,0 l/m² 21,3 km/h (4 Bft) SW 217 ° 1 min 81 W/m² 1,7 °C -5,2 °C 27,4 km/h (5 Bft)
20.11.2024 11:17 20,9 °C 3,8 °C 55 % 86 % 997,5 hPa 0,0 l/m² 19,5 km/h (3 Bft) SW 215 ° 1 min 104 W/m² 1,7 °C -4,5 °C 29,0 km/h (5 Bft)
20.11.2024 11:18 20,8 °C 3,8 °C 55 % 86 % 997,6 hPa 0,0 l/m² 20,5 km/h (4 Bft) SW 227 ° 1 min 114 W/m² 1,7 °C -4,9 °C 25,7 km/h (4 Bft)
20.11.2024 11:19 20,9 °C 3,8 °C 55 % 86 % 997,6 hPa 0,0 l/m² 19,0 km/h (3 Bft) SW 220 ° 1 min 123 W/m² 1,7 °C -4,3 °C 25,7 km/h (4 Bft)
20.11.2024 11:20 20,9 °C 3,8 °C 55 % 86 % 997,6 hPa 0,0 l/m² 21,6 km/h (4 Bft) SW 232 ° 1 min 130 W/m² 1,7 °C -5,4 °C 27,4 km/h (5 Bft)
20.11.2024 11:22 20,9 °C 3,8 °C 55 % 85 % 997,5 hPa 0,0 l/m² 20,2 km/h (4 Bft) S-SW 211 ° 2 min 139 W/m² 1,5 °C -4,8 °C 29,0 km/h (5 Bft)
20.11.2024 11:24 20,9 °C 3,9 °C 55 % 85 % 997,6 hPa 0,0 l/m² 18,6 km/h (3 Bft) S-SW 211 ° 2 min 156 W/m² 1,6 °C -4,0 °C 29,0 km/h (5 Bft)
20.11.2024 11:25 20,8 °C 3,9 °C 55 % 85 % 997,6 hPa 0,0 l/m² 15,2 km/h (3 Bft) SW 235 ° 1 min 162 W/m² 1,6 °C -2,4 °C 19,3 km/h (3 Bft)
20.11.2024 11:26 20,8 °C 4,0 °C 55 % 85 % 997,6 hPa 0,0 l/m² 19,9 km/h (4 Bft) SW 227 ° 1 min 160 W/m² 1,7 °C -4,4 °C 29,0 km/h (5 Bft)
20.11.2024 11:27 20,9 °C 4,0 °C 55 % 85 % 997,6 hPa 0,0 l/m² 18,3 km/h (3 Bft) W-SW 244 ° 1 min 167 W/m² 1,7 °C -3,7 °C 24,1 km/h (4 Bft)
20.11.2024 11:28 20,8 °C 4,1 °C 55 % 85 % 997,6 hPa 0,0 l/m² 14,0 km/h (3 Bft) SW 218 ° 1 min 174 W/m² 1,8 °C -1,5 °C 20,9 km/h (4 Bft)
20.11.2024 11:29 20,8 °C 4,1 °C 55 % 85 % 997,6 hPa 0,0 l/m² 16,4 km/h (3 Bft) SW 219 ° 1 min 179 W/m² 1,8 °C -2,7 °C 22,5 km/h (4 Bft)
20.11.2024 11:30 20,9 °C 4,1 °C 55 % 85 % 997,6 hPa 0,0 l/m² 11,7 km/h (2 Bft) SW 227 ° 1 min 183 W/m² 1,8 °C -0,1 °C 20,9 km/h (4 Bft)
20.11.2024 11:32 20,8 °C 4,2 °C 55 % 85 % 997,5 hPa 0,0 l/m² 16,6 km/h (3 Bft) S-SW 211 ° 2 min 195 W/m² 1,9 °C -2,7 °C 25,7 km/h (4 Bft)
20.11.2024 11:34 20,9 °C 4,2 °C 55 % 84 % 997,6 hPa 0,0 l/m² 15,7 km/h (3 Bft) SW 236 ° 2 min 223 W/m² 1,7 °C -2,3 °C 24,1 km/h (4 Bft)
20.11.2024 11:35 20,9 °C 4,3 °C 55 % 84 % 997,5 hPa 0,0 l/m² 15,6 km/h (3 Bft) S-SW 212 ° 1 min 230 W/m² 1,8 °C -2,1 °C 25,7 km/h (4 Bft)
20.11.2024 11:36 20,9 °C 4,3 °C 55 % 85 % 997,5 hPa 0,0 l/m² 22,8 km/h (4 Bft) SW 221 ° 1 min 223 W/m² 2,0 °C -5,1 °C 27,4 km/h (5 Bft)
20.11.2024 11:37 20,9 °C 4,4 °C 55 % 84 % 997,6 hPa 0,0 l/m² 20,0 km/h (4 Bft) SW 220 ° 1 min 218 W/m² 1,9 °C -3,9 °C 22,5 km/h (4 Bft)
20.11.2024 11:38 20,9 °C 4,4 °C 55 % 84 % 997,6 hPa 0,0 l/m² 18,2 km/h (3 Bft) SW 229 ° 1 min 216 W/m² 1,9 °C -3,2 °C 24,1 km/h (4 Bft)
20.11.2024 11:39 20,9 °C 4,4 °C 55 % 84 % 997,5 hPa 0,0 l/m² 19,5 km/h (3 Bft) W-SW 249 ° 1 min 214 W/m² 1,9 °C -3,7 °C 29,0 km/h (5 Bft)
20.11.2024 11:40 20,9 °C 4,5 °C 55 % 84 % 997,5 hPa 0,0 l/m² 18,9 km/h (3 Bft) SW 216 ° 1 min 211 W/m² 2,0 °C -3,4 °C 24,1 km/h (4 Bft)
20.11.2024 11:42 20,9 °C 4,6 °C 55 % 84 % 997,4 hPa 0,0 l/m² 22,3 km/h (4 Bft) SW 219 ° 2 min 221 W/m² 2,1 °C -4,6 °C 29,0 km/h (5 Bft)
20.11.2024 11:44 20,9 °C 4,6 °C 55 % 83 % 997,3 hPa 0,0 l/m² 23,2 km/h (4 Bft) SW 228 ° 2 min 214 W/m² 2,0 °C -4,9 °C 32,2 km/h (5 Bft)
20.11.2024 11:45 20,9 °C 4,7 °C 55 % 83 % 997,4 hPa 0,0 l/m² 17,1 km/h (3 Bft) SW 219 ° 1 min 218 W/m² 2,1 °C -2,3 °C 24,1 km/h (4 Bft)
20.11.2024 11:46 20,9 °C 4,7 °C 55 % 83 % 997,3 hPa 0,0 l/m² 20,1 km/h (4 Bft) SW 235 ° 1 min 218 W/m² 2,1 °C -3,6 °C 33,8 km/h (5 Bft)
20.11.2024 11:47 20,9 °C 4,7 °C 55 % 83 % 997,3 hPa 0,0 l/m² 25,5 km/h (4 Bft) SW 231 ° 1 min 197 W/m² 2,1 °C -5,5 °C 33,8 km/h (5 Bft)
20.11.2024 11:48 20,9 °C 4,7 °C 55 % 82 % 997,3 hPa 0,0 l/m² 23,8 km/h (4 Bft) SW 222 ° 1 min 190 W/m² 1,9 °C -5,0 °C 30,6 km/h (5 Bft)
20.11.2024 11:49 20,9 °C 4,7 °C 55 % 82 % 997,4 hPa 0,0 l/m² 27,8 km/h (5 Bft) W-SW 241 ° 1 min 172 W/m² 1,9 °C -6,2 °C 33,8 km/h (5 Bft)
20.11.2024 11:50 20,9 °C 4,7 °C 55 % 82 % 997,3 hPa 0,0 l/m² 26,2 km/h (4 Bft) W-SW 240 ° 1 min 146 W/m² 1,9 °C -5,7 °C 33,8 km/h (5 Bft)
20.11.2024 11:52 20,9 °C 4,7 °C 55 % 81 % 997,3 hPa 0,0 l/m² 21,7 km/h (4 Bft) W-SW 253 ° 2 min 90 W/m² 1,7 °C -4,2 °C 30,6 km/h (5 Bft)
20.11.2024 11:54 20,9 °C 4,7 °C 55 % 82 % 997,3 hPa 0,0 l/m² 19,8 km/h (3 Bft) SW 217 ° 2 min 76 W/m² 1,9 °C -3,5 °C 27,4 km/h (5 Bft)
20.11.2024 11:55 20,9 °C 4,7 °C 55 % 82 % 997,3 hPa 0,0 l/m² 17,1 km/h (3 Bft) SW 225 ° 1 min 70 W/m² 1,9 °C -2,3 °C 25,7 km/h (4 Bft)
20.11.2024 11:56 20,9 °C 4,7 °C 55 % 82 % 997,2 hPa 0,0 l/m² 17,9 km/h (3 Bft) SW 216 ° 1 min 69 W/m² 1,9 °C -2,7 °C 20,9 km/h (4 Bft)
20.11.2024 11:57 20,9 °C 4,6 °C 55 % 82 % 997,2 hPa 0,0 l/m² 20,7 km/h (4 Bft) SW 233 ° 1 min 67 W/m² 1,8 °C -4,0 °C 25,7 km/h (4 Bft)
20.11.2024 11:58 20,9 °C 4,6 °C 55 % 82 % 997,3 hPa 0,0 l/m² 12,9 km/h (3 Bft) SW 234 ° 1 min 63 W/m² 1,8 °C -0,2 °C 16,1 km/h (3 Bft)
20.11.2024 11:59 20,9 °C 4,6 °C 55 % 82 % 997,2 hPa 0,0 l/m² 15,7 km/h (3 Bft) S-SW 206 ° 1 min 63 W/m² 1,8 °C -1,8 °C 24,1 km/h (4 Bft)
20.11.2024 12:00 20,9 °C 4,6 °C 55 % 82 % 997,2 hPa 0,0 l/m² 18,2 km/h (3 Bft) SW 229 ° 1 min 63 W/m² 1,8 °C -2,9 °C 25,7 km/h (4 Bft)
20.11.2024 12:01 20,9 °C 4,6 °C 55 % 82 % 997,2 hPa 0,0 l/m² 17,0 km/h (3 Bft) SW 225 ° 1 min 63 W/m² 1,8 °C -2,4 °C 22,5 km/h (4 Bft)
20.11.2024 12:02 20,9 °C 4,5 °C 55 % 82 % 997,2 hPa 0,0 l/m² 24,9 km/h (4 Bft) SW 221 ° 1 min 69 W/m² 1,7 °C -5,6 °C 30,6 km/h (5 Bft)
20.11.2024 12:03 20,9 °C 4,5 °C 55 % 82 % 997,2 hPa 0,0 l/m² 20,5 km/h (4 Bft) SW 223 ° 1 min 72 W/m² 1,7 °C -4,0 °C 29,0 km/h (5 Bft)
20.11.2024 12:04 20,9 °C 4,4 °C 55 % 82 % 997,3 hPa 0,0 l/m² 15,3 km/h (3 Bft) SW 234 ° 1 min 81 W/m² 1,6 °C -1,8 °C 19,3 km/h (3 Bft)
20.11.2024 12:05 20,9 °C 4,4 °C 55 % 82 % 997,2 hPa 0,0 l/m² 20,1 km/h (4 Bft) SW 214 ° 1 min 83 W/m² 1,6 °C -4,0 °C 25,7 km/h (4 Bft)
20.11.2024 12:06 20,9 °C 4,4 °C 55 % 82 % 997,1 hPa 0,0 l/m² 23,3 km/h (4 Bft) SW 231 ° 1 min 86 W/m² 1,6 °C -5,2 °C 29,0 km/h (5 Bft)
20.11.2024 12:07 20,8 °C 4,4 °C 55 % 82 % 997,1 hPa 0,0 l/m² 17,2 km/h (3 Bft) SW 234 ° 1 min 91 W/m² 1,6 °C -2,7 °C 24,1 km/h (4 Bft)
20.11.2024 12:08 20,8 °C 4,4 °C 55 % 82 % 997,0 hPa 0,0 l/m² 22,9 km/h (4 Bft) SW 222 ° 1 min 91 W/m² 1,6 °C -5,0 °C 30,6 km/h (5 Bft)
20.11.2024 12:09 20,8 °C 4,4 °C 55 % 82 % 997,0 hPa 0,0 l/m² 17,4 km/h (3 Bft) SW 236 ° 1 min 90 W/m² 1,6 °C -2,8 °C 24,1 km/h (4 Bft)
20.11.2024 12:10 20,8 °C 4,4 °C 55 % 82 % 997,2 hPa 0,0 l/m² 19,6 km/h (3 Bft) W-SW 241 ° 1 min 81 W/m² 1,6 °C -3,8 °C 27,4 km/h (5 Bft)
20.11.2024 12:11 20,8 °C 4,4 °C 55 % 82 % 997,1 hPa 0,0 l/m² 20,7 km/h (4 Bft) SW 215 ° 1 min 74 W/m² 1,6 °C -4,2 °C 27,4 km/h (5 Bft)
20.11.2024 12:12 20,8 °C 4,4 °C 55 % 82 % 997,1 hPa 0,0 l/m² 18,8 km/h (3 Bft) S-SW 211 ° 1 min 70 W/m² 1,6 °C -3,4 °C 25,7 km/h (4 Bft)
20.11.2024 12:13 20,8 °C 4,4 °C 55 % 83 % 997,0 hPa 0,0 l/m² 16,6 km/h (3 Bft) SW 217 ° 1 min 72 W/m² 1,8 °C -2,5 °C 22,5 km/h (4 Bft)
20.11.2024 12:14 20,8 °C 4,4 °C 55 % 83 % 997,1 hPa 0,0 l/m² 18,5 km/h (3 Bft) SW 222 ° 1 min 70 W/m² 1,8 °C -3,3 °C 24,1 km/h (4 Bft)
20.11.2024 12:15 20,8 °C 4,4 °C 55 % 83 % 997,0 hPa 0,0 l/m² 15,3 km/h (3 Bft) SW 226 ° 1 min 69 W/m² 1,8 °C -1,8 °C 19,3 km/h (3 Bft)
20.11.2024 12:16 20,8 °C 4,4 °C 55 % 83 % 997,0 hPa 0,0 l/m² 17,9 km/h (3 Bft) SW 228 ° 1 min 74 W/m² 1,8 °C -3,1 °C 24,1 km/h (4 Bft)
20.11.2024 12:17 20,8 °C 4,4 °C 55 % 83 % 997,0 hPa 0,0 l/m² 15,8 km/h (3 Bft) SW 220 ° 1 min 79 W/m² 1,8 °C -2,1 °C 24,1 km/h (4 Bft)
20.11.2024 12:18 20,8 °C 4,4 °C 55 % 83 % 996,9 hPa 0,0 l/m² 21,9 km/h (4 Bft) S-SW 211 ° 1 min 84 W/m² 1,8 °C -4,7 °C 29,0 km/h (5 Bft)
20.11.2024 12:19 20,8 °C 4,4 °C 55 % 83 % 996,9 hPa 0,0 l/m² 20,3 km/h (4 Bft) SW 217 ° 1 min 88 W/m² 1,8 °C -4,1 °C 27,4 km/h (5 Bft)
20.11.2024 12:20 20,8 °C 4,4 °C 55 % 83 % 997,0 hPa 0,0 l/m² 23,1 km/h (4 Bft) SW 215 ° 1 min 91 W/m² 1,8 °C -5,1 °C 30,6 km/h (5 Bft)
20.11.2024 12:21 20,8 °C 4,4 °C 55 % 83 % 997,0 hPa 0,0 l/m² 17,7 km/h (3 Bft) SW 218 ° 1 min 97 W/m² 1,8 °C -3,0 °C 24,1 km/h (4 Bft)
20.11.2024 12:22 20,8 °C 4,4 °C 55 % 83 % 997,1 hPa 0,0 l/m² 20,9 km/h (4 Bft) SW 221 ° 1 min 107 W/m² 1,8 °C -4,3 °C 29,0 km/h (5 Bft)
20.11.2024 12:23 20,8 °C 4,4 °C 55 % 84 % 997,0 hPa 0,0 l/m² 20,1 km/h (4 Bft) SW 215 ° 1 min 118 W/m² 1,9 °C -4,0 °C 25,7 km/h (4 Bft)
20.11.2024 12:24 20,8 °C 4,4 °C 55 % 84 % 997,1 hPa 0,0 l/m² 15,5 km/h (3 Bft) W-SW 254 ° 1 min 123 W/m² 1,9 °C -1,9 °C 20,9 km/h (4 Bft)
20.11.2024 12:25 20,8 °C 4,4 °C 55 % 84 % 997,1 hPa 0,0 l/m² 18,9 km/h (3 Bft) W-SW 239 ° 1 min 127 W/m² 1,9 °C -3,5 °C 24,1 km/h (4 Bft)
20.11.2024 12:26 20,8 °C 4,4 °C 55 % 84 % 997,0 hPa 0,0 l/m² 23,3 km/h (4 Bft) SW 219 ° 1 min 134 W/m² 1,9 °C -5,2 °C 29,0 km/h (5 Bft)
20.11.2024 12:27 20,8 °C 4,4 °C 55 % 83 % 996,9 hPa 0,0 l/m² 17,4 km/h (3 Bft) W-SW 238 ° 1 min 139 W/m² 1,8 °C -2,8 °C 24,1 km/h (4 Bft)
20.11.2024 12:28 20,8 °C 4,4 °C 55 % 84 % 997,0 hPa 0,0 l/m² 15,8 km/h (3 Bft) SW 215 ° 1 min 142 W/m² 1,9 °C -2,1 °C 22,5 km/h (4 Bft)
20.11.2024 12:29 20,8 °C 4,4 °C 55 % 84 % 997,0 hPa 0,0 l/m² 17,0 km/h (3 Bft) SW 219 ° 1 min 132 W/m² 1,9 °C -2,6 °C 22,5 km/h (4 Bft)
20.11.2024 12:30 20,8 °C 4,4 °C 55 % 84 % 997,0 hPa 0,0 l/m² 20,5 km/h (4 Bft) SW 225 ° 1 min 121 W/m² 1,9 °C -4,1 °C 30,6 km/h (5 Bft)
20.11.2024 12:31 20,8 °C 4,5 °C 55 % 83 % 997,0 hPa 0,0 l/m² 16,1 km/h (3 Bft) SW 223 ° 1 min 114 W/m² 1,9 °C -2,1 °C 20,9 km/h (4 Bft)
20.11.2024 12:32 20,8 °C 4,5 °C 55 % 83 % 997,0 hPa 0,0 l/m² 16,4 km/h (3 Bft) SW 234 ° 1 min 109 W/m² 1,9 °C -2,2 °C 22,5 km/h (4 Bft)
20.11.2024 12:33 20,8 °C 4,6 °C 55 % 84 % 997,1 hPa 0,0 l/m² 17,4 km/h (3 Bft) W-SW 244 ° 1 min 105 W/m² 2,1 °C -2,6 °C 20,9 km/h (4 Bft)
20.11.2024 12:34 20,8 °C 4,6 °C 55 % 84 % 997,1 hPa 0,0 l/m² 22,1 km/h (4 Bft) SW 223 ° 1 min 111 W/m² 2,1 °C -4,5 °C 29,0 km/h (5 Bft)
20.11.2024 12:35 20,8 °C 4,6 °C 55 % 84 % 997,1 hPa 0,0 l/m² 24,1 km/h (4 Bft) S-SW 213 ° 1 min 111 W/m² 2,1 °C -5,2 °C 35,4 km/h (5 Bft)
20.11.2024 12:36 20,8 °C 4,6 °C 55 % 83 % 997,2 hPa 0,0 l/m² 22,9 km/h (4 Bft) SW 230 ° 1 min 109 W/m² 2,0 °C -4,8 °C 29,0 km/h (5 Bft)
20.11.2024 12:37 20,8 °C 4,5 °C 55 % 83 % 997,2 hPa 0,0 l/m² 25,0 km/h (4 Bft) SW 225 ° 1 min 111 W/m² 1,9 °C -5,6 °C 30,6 km/h (5 Bft)
20.11.2024 12:38 20,8 °C 4,5 °C 55 % 83 % 997,1 hPa 0,0 l/m² 20,7 km/h (4 Bft) W-SW 244 ° 1 min 107 W/m² 1,9 °C -4,1 °C 25,7 km/h (4 Bft)
20.11.2024 12:39 20,8 °C 4,5 °C 55 % 83 % 997,2 hPa 0,0 l/m² 22,1 km/h (4 Bft) SW 223 ° 1 min 113 W/m² 1,9 °C -4,6 °C 32,2 km/h (5 Bft)
20.11.2024 12:40 20,8 °C 4,4 °C 55 % 83 % 997,1 hPa 0,0 l/m² 20,4 km/h (4 Bft) W-SW 244 ° 1 min 120 W/m² 1,8 °C -4,1 °C 25,7 km/h (4 Bft)
20.11.2024 12:41 20,8 °C 4,4 °C 55 % 84 % 997,3 hPa 0,0 l/m² 17,3 km/h (3 Bft) S-SW 211 ° 1 min 127 W/m² 1,9 °C -2,8 °C 24,1 km/h (4 Bft)
20.11.2024 12:42 20,8 °C 4,4 °C 55 % 84 % 997,2 hPa 0,0 l/m² 18,6 km/h (3 Bft) SW 229 ° 1 min 128 W/m² 1,9 °C -3,4 °C 24,1 km/h (4 Bft)
20.11.2024 12:43 20,8 °C 4,4 °C 55 % 84 % 997,2 hPa 0,0 l/m² 16,8 km/h (3 Bft) SW 228 ° 1 min 127 W/m² 1,9 °C -2,5 °C 22,5 km/h (4 Bft)
20.11.2024 12:45 20,8 °C 4,4 °C 55 % 84 % 997,2 hPa 0,0 l/m² 15,5 km/h (3 Bft) W-SW 239 ° 2 min 113 W/m² 1,9 °C -1,9 °C 24,1 km/h (4 Bft)
20.11.2024 12:46 20,8 °C 4,4 °C 55 % 84 % 997,2 hPa 0,0 l/m² 13,4 km/h (3 Bft) SW 229 ° 1 min 113 W/m² 1,9 °C -0,8 °C 17,7 km/h (3 Bft)
20.11.2024 12:47 20,8 °C 4,4 °C 55 % 84 % 997,1 hPa 0,0 l/m² 17,6 km/h (3 Bft) W-SW 244 ° 1 min 113 W/m² 1,9 °C -2,9 °C 24,1 km/h (4 Bft)
20.11.2024 12:48 20,8 °C 4,4 °C 55 % 84 % 997,1 hPa 0,0 l/m² 20,9 km/h (4 Bft) SW 221 ° 1 min 113 W/m² 1,9 °C -4,3 °C 29,0 km/h (5 Bft)
20.11.2024 12:49 20,8 °C 4,4 °C 55 % 84 % 997,1 hPa 0,0 l/m² 19,1 km/h (3 Bft) SW 232 ° 1 min 111 W/m² 1,9 °C -3,6 °C 27,4 km/h (5 Bft)
20.11.2024 12:51 20,8 °C 4,4 °C 55 % 84 % 997,1 hPa 0,0 l/m² 16,7 km/h (3 Bft) SW 234 ° 2 min 95 W/m² 1,9 °C -2,5 °C 27,4 km/h (5 Bft)
20.11.2024 12:52 20,8 °C 4,4 °C 55 % 84 % 997,1 hPa 0,0 l/m² 19,2 km/h (3 Bft) SW 217 ° 1 min 91 W/m² 1,9 °C -3,6 °C 24,1 km/h (4 Bft)
20.11.2024 12:53 20,8 °C 4,4 °C 55 % 84 % 997,2 hPa 0,0 l/m² 20,3 km/h (4 Bft) SW 226 ° 1 min 90 W/m² 1,9 °C -4,1 °C 27,4 km/h (5 Bft)
20.11.2024 12:54 20,8 °C 4,4 °C 55 % 84 % 997,2 hPa 0,0 l/m² 14,8 km/h (3 Bft) SW 234 ° 1 min 91 W/m² 1,9 °C -1,5 °C 19,3 km/h (3 Bft)
20.11.2024 12:55 20,8 °C 4,4 °C 55 % 84 % 997,1 hPa 0,0 l/m² 15,8 km/h (3 Bft) SW 231 ° 1 min 91 W/m² 1,9 °C -2,1 °C 19,3 km/h (3 Bft)
20.11.2024 12:56 20,8 °C 4,4 °C 55 % 84 % 997,1 hPa 0,0 l/m² 11,9 km/h (2 Bft) SW 231 ° 1 min 88 W/m² 1,9 °C 0,1 °C 14,5 km/h (3 Bft)
20.11.2024 12:57 20,8 °C 4,4 °C 55 % 84 % 997,1 hPa 0,0 l/m² 13,0 km/h (3 Bft) SW 229 ° 1 min 90 W/m² 1,9 °C -0,5 °C 19,3 km/h (3 Bft)
20.11.2024 12:58 20,8 °C 4,4 °C 55 % 84 % 997,1 hPa 0,0 l/m² 16,7 km/h (3 Bft) SW 220 ° 1 min 84 W/m² 1,9 °C -2,5 °C 20,9 km/h (4 Bft)
20.11.2024 12:59 20,8 °C 4,4 °C 55 % 84 % 997,2 hPa 0,0 l/m² 15,2 km/h (3 Bft) SW 222 ° 1 min 77 W/m² 1,9 °C -1,8 °C 20,9 km/h (4 Bft)
20.11.2024 13:00 20,8 °C 4,4 °C 55 % 84 % 997,2 hPa 0,0 l/m² 15,5 km/h (3 Bft) W-SW 240 ° 1 min 76 W/m² 1,9 °C -1,9 °C 22,5 km/h (4 Bft)
20.11.2024 13:01 20,8 °C 4,4 °C 55 % 84 % 997,3 hPa 0,0 l/m² 19,1 km/h (3 Bft) W-SW 250 ° 1 min 76 W/m² 1,9 °C -3,6 °C 24,1 km/h (4 Bft)
20.11.2024 13:02 20,8 °C 4,4 °C 55 % 84 % 997,2 hPa 0,0 l/m² 18,7 km/h (3 Bft) SW 226 ° 1 min 79 W/m² 1,9 °C -3,4 °C 22,5 km/h (4 Bft)
20.11.2024 13:03 20,8 °C 4,4 °C 55 % 84 % 997,1 hPa 0,0 l/m² 17,7 km/h (3 Bft) SW 226 ° 1 min 90 W/m² 1,9 °C -3,0 °C 27,4 km/h (5 Bft)
20.11.2024 13:04 20,8 °C 4,4 °C 55 % 84 % 997,2 hPa 0,0 l/m² 20,0 km/h (4 Bft) W-SW 240 ° 1 min 95 W/m² 1,9 °C -3,9 °C 29,0 km/h (5 Bft)
20.11.2024 13:05 20,8 °C 4,4 °C 55 % 84 % 997,2 hPa 0,0 l/m² 18,2 km/h (3 Bft) SW 220 ° 1 min 100 W/m² 1,9 °C -3,2 °C 29,0 km/h (5 Bft)
20.11.2024 13:06 20,8 °C 4,5 °C 55 % 84 % 997,2 hPa 0,0 l/m² 20,3 km/h (4 Bft) W-SW 242 ° 1 min 104 W/m² 2,0 °C -3,9 °C 25,7 km/h (4 Bft)
20.11.2024 13:07 20,8 °C 4,5 °C 55 % 84 % 997,3 hPa 0,0 l/m² 19,1 km/h (3 Bft) SW 236 ° 1 min 104 W/m² 2,0 °C -3,4 °C 27,4 km/h (5 Bft)
20.11.2024 13:08 20,8 °C 4,6 °C 55 % 84 % 997,3 hPa 0,0 l/m² 28,4 km/h (5 Bft) W-SW 240 ° 1 min 116 W/m² 2,1 °C -6,5 °C 37,0 km/h (5 Bft)
20.11.2024 13:09 20,8 °C 4,6 °C 55 % 84 % 997,3 hPa 0,0 l/m² 25,5 km/h (4 Bft) SW 217 ° 1 min 125 W/m² 2,1 °C -5,6 °C 32,2 km/h (5 Bft)
20.11.2024 13:10 20,8 °C 4,6 °C 55 % 84 % 997,3 hPa 0,0 l/m² 17,5 km/h (3 Bft) SW 218 ° 1 min 125 W/m² 2,1 °C -2,6 °C 24,1 km/h (4 Bft)
20.11.2024 13:11 20,8 °C 4,6 °C 55 % 84 % 997,3 hPa 0,0 l/m² 23,6 km/h (4 Bft) SW 224 ° 1 min 118 W/m² 2,1 °C -5,0 °C 32,2 km/h (5 Bft)
20.11.2024 13:12 20,9 °C 4,6 °C 55 % 83 % 997,3 hPa 0,0 l/m² 21,5 km/h (4 Bft) W-SW 238 ° 1 min 107 W/m² 2,0 °C -4,3 °C 25,7 km/h (4 Bft)
20.11.2024 13:13 20,8 °C 4,6 °C 55 % 83 % 997,4 hPa 0,0 l/m² 23,5 km/h (4 Bft) SW 221 ° 1 min 90 W/m² 2,0 °C -5,0 °C 30,6 km/h (5 Bft)
20.11.2024 13:14 20,8 °C 4,6 °C 55 % 83 % 997,3 hPa 0,0 l/m² 21,3 km/h (4 Bft) SW 219 ° 1 min 53 W/m² 2,0 °C -4,2 °C 25,7 km/h (4 Bft)
20.11.2024 13:15 20,8 °C 4,6 °C 55 % 83 % 997,3 hPa 0,0 l/m² 21,3 km/h (4 Bft) SW 229 ° 0 min 33 W/m² 2,0 °C -4,2 °C 27,4 km/h (5 Bft)
20.11.2024 13:16 20,9 °C 4,6 °C 55 % 84 % 997,3 hPa 0,0 l/m² 22,9 km/h (4 Bft) SW 227 ° 0 min 47 W/m² 2,1 °C -4,8 °C 35,4 km/h (5 Bft)
20.11.2024 13:17 20,9 °C 4,6 °C 55 % 84 % 997,4 hPa 0,0 l/m² 27,3 km/h (5 Bft) SW 225 ° 1 min 79 W/m² 2,1 °C -6,2 °C 32,2 km/h (5 Bft)
20.11.2024 13:18 20,9 °C 4,6 °C 55 % 84 % 997,3 hPa 0,0 l/m² 23,6 km/h (4 Bft) SW 222 ° 1 min 84 W/m² 2,1 °C -5,0 °C 27,4 km/h (5 Bft)
20.11.2024 13:19 20,8 °C 4,6 °C 55 % 84 % 997,3 hPa 0,0 l/m² 21,6 km/h (4 Bft) SW 235 ° 1 min 76 W/m² 2,1 °C -4,3 °C 27,4 km/h (5 Bft)
20.11.2024 13:20 20,9 °C 4,6 °C 55 % 84 % 997,3 hPa 0,0 l/m² 20,0 km/h (4 Bft) SW 219 ° 1 min 63 W/m² 2,1 °C -3,7 °C 29,0 km/h (5 Bft)
20.11.2024 13:21 20,9 °C 4,5 °C 55 % 84 % 997,4 hPa 0,0 l/m² 25,5 km/h (4 Bft) SW 222 ° 1 min 53 W/m² 2,0 °C -5,8 °C 30,6 km/h (5 Bft)
20.11.2024 13:22 20,8 °C 4,4 °C 55 % 84 % 997,3 hPa 0,0 l/m² 22,7 km/h (4 Bft) SW 232 ° 0 min 46 W/m² 1,9 °C -5,0 °C 30,6 km/h (5 Bft)
20.11.2024 13:23 20,9 °C 4,3 °C 55 % 84 % 997,4 hPa 0,0 l/m² 21,5 km/h (4 Bft) SW 226 ° 0 min 40 W/m² 1,8 °C -4,7 °C 30,6 km/h (5 Bft)
20.11.2024 13:24 20,9 °C 4,3 °C 55 % 85 % 997,5 hPa 0,0 l/m² 19,4 km/h (3 Bft) W-SW 243 ° 0 min 28 W/m² 2,0 °C -3,8 °C 22,5 km/h (4 Bft)
20.11.2024 13:25 20,9 °C 4,3 °C 55 % 85 % 997,5 hPa 0,0 l/m² 30,4 km/h (5 Bft) W-SW 252 ° 0 min 18 W/m² 2,0 °C -7,5 °C 43,5 km/h (6 Bft)
20.11.2024 13:26 20,9 °C 4,2 °C 55 % 84 % 997,5 hPa 0,0 l/m² 30,6 km/h (5 Bft) W-SW 242 ° 0 min 12 W/m² 1,7 °C -7,7 °C 37,0 km/h (5 Bft)
20.11.2024 13:27 20,9 °C 4,1 °C 55 % 85 % 997,4 hPa 0,0 l/m² 27,7 km/h (5 Bft) W-SW 238 ° 0 min 14 W/m² 1,8 °C -7,0 °C 35,4 km/h (5 Bft)
20.11.2024 13:28 20,9 °C 4,0 °C 55 % 85 % 997,4 hPa 0,0 l/m² 24,1 km/h (4 Bft) SW 236 ° 0 min 18 W/m² 1,7 °C -6,0 °C 29,0 km/h (5 Bft)
20.11.2024 13:29 20,9 °C 3,9 °C 55 % 85 % 997,5 hPa 0,2 l/m² 26,8 km/h (4 Bft) W-SW 244 ° 0 min 19 W/m² 1,6 °C -7,0 °C 33,8 km/h (5 Bft)
20.11.2024 13:30 20,8 °C 3,8 °C 55 % 85 % 997,5 hPa 0,0 l/m² 26,4 km/h (4 Bft) SW 221 ° 0 min 21 W/m² 1,5 °C -7,0 °C 35,4 km/h (5 Bft)
20.11.2024 13:31 20,8 °C 3,8 °C 55 % 85 % 997,5 hPa 0,0 l/m² 27,8 km/h (5 Bft) SW 232 ° 0 min 25 W/m² 1,5 °C -7,4 °C 37,0 km/h (5 Bft)
20.11.2024 13:32 20,9 °C 3,6 °C 55 % 85 % 997,4 hPa 0,0 l/m² 21,1 km/h (4 Bft) SW 233 ° 0 min 32 W/m² 1,3 °C -5,4 °C 25,7 km/h (4 Bft)
20.11.2024 13:33 20,9 °C 3,6 °C 55 % 86 % 997,4 hPa 0,0 l/m² 31,6 km/h (5 Bft) W-SW 246 ° 0 min 33 W/m² 1,5 °C -8,8 °C 37,0 km/h (5 Bft)
20.11.2024 13:34 20,8 °C 3,5 °C 55 % 86 % 997,3 hPa 0,2 l/m² 25,7 km/h (4 Bft) SW 229 ° 0 min 35 W/m² 1,4 °C -7,2 °C 35,4 km/h (5 Bft)
20.11.2024 13:35 20,8 °C 3,4 °C 55 % 86 % 997,3 hPa 0,0 l/m² 21,7 km/h (4 Bft) SW 225 ° 0 min 37 W/m² 1,3 °C -5,9 °C 30,6 km/h (5 Bft)
20.11.2024 13:36 20,8 °C 3,3 °C 55 % 86 % 997,3 hPa 0,0 l/m² 19,4 km/h (3 Bft) SW 227 ° 0 min 39 W/m² 1,2 °C -5,1 °C 25,7 km/h (4 Bft)
20.11.2024 13:37 20,8 °C 3,3 °C 55 % 87 % 997,2 hPa 0,0 l/m² 19,3 km/h (3 Bft) SW 229 ° 0 min 40 W/m² 1,3 °C -5,1 °C 24,1 km/h (4 Bft)
20.11.2024 13:38 20,8 °C 3,3 °C 55 % 86 % 997,3 hPa 0,0 l/m² 18,6 km/h (3 Bft) W-SW 247 ° 0 min 42 W/m² 1,2 °C -4,8 °C 24,1 km/h (4 Bft)
20.11.2024 13:39 20,8 °C 3,2 °C 55 % 87 % 997,3 hPa 0,0 l/m² 20,7 km/h (4 Bft) W-SW 253 ° 0 min 42 W/m² 1,2 °C -5,8 °C 32,2 km/h (5 Bft)
20.11.2024 13:40 20,8 °C 3,2 °C 55 % 87 % 997,4 hPa 0,0 l/m² 17,9 km/h (3 Bft) W-SW 240 ° 0 min 40 W/m² 1,2 °C -4,6 °C 22,5 km/h (4 Bft)
20.11.2024 13:41 20,8 °C 3,2 °C 55 % 87 % 997,3 hPa 0,0 l/m² 17,8 km/h (3 Bft) SW 234 ° 0 min 37 W/m² 1,2 °C -4,5 °C 22,5 km/h (4 Bft)
20.11.2024 13:42 20,8 °C 3,2 °C 55 % 87 % 997,4 hPa 0,0 l/m² 16,2 km/h (3 Bft) SW 221 ° 0 min 35 W/m² 1,2 °C -3,7 °C 22,5 km/h (4 Bft)
20.11.2024 13:43 20,8 °C 3,2 °C 55 % 87 % 997,3 hPa 0,0 l/m² 17,6 km/h (3 Bft) SW 218 ° 0 min 33 W/m² 1,2 °C -4,4 °C 24,1 km/h (4 Bft)
20.11.2024 13:44 20,9 °C 3,1 °C 55 % 87 % 997,3 hPa 0,0 l/m² 17,3 km/h (3 Bft) W-SW 240 ° 0 min 30 W/m² 1,2 °C -4,4 °C 22,5 km/h (4 Bft)
20.11.2024 13:45 20,9 °C 3,1 °C 55 % 88 % 997,4 hPa 0,0 l/m² 23,5 km/h (4 Bft) SW 234 ° 0 min 30 W/m² 1,3 °C -7,0 °C 32,2 km/h (5 Bft)
20.11.2024 13:46 20,9 °C 3,1 °C 55 % 88 % 997,3 hPa 0,0 l/m² 16,9 km/h (3 Bft) SW 232 ° 0 min 30 W/m² 1,3 °C -4,2 °C 25,7 km/h (4 Bft)
20.11.2024 13:47 20,9 °C 3,1 °C 55 % 88 % 997,4 hPa 0,0 l/m² 16,6 km/h (3 Bft) W-SW 240 ° 0 min 32 W/m² 1,3 °C -4,1 °C 22,5 km/h (4 Bft)
20.11.2024 13:48 20,8 °C 3,1 °C 55 % 88 % 997,3 hPa 0,0 l/m² 20,7 km/h (4 Bft) W-SW 248 ° 0 min 35 W/m² 1,3 °C -5,9 °C 27,4 km/h (5 Bft)
20.11.2024 13:49 20,9 °C 3,1 °C 55 % 88 % 997,3 hPa 0,0 l/m² 23,1 km/h (4 Bft) SW 228 ° 0 min 42 W/m² 1,3 °C -6,8 °C 30,6 km/h (5 Bft)
20.11.2024 13:50 20,9 °C 3,1 °C 55 % 88 % 997,3 hPa 0,0 l/m² 22,3 km/h (4 Bft) W-SW 238 ° 1 min 135 W/m² 1,3 °C -6,5 °C 27,4 km/h (5 Bft)
20.11.2024 13:51 20,8 °C 3,2 °C 55 % 89 % 997,3 hPa 0,0 l/m² 19,7 km/h (3 Bft) SW 227 ° 1 min 135 W/m² 1,6 °C -5,4 °C 25,7 km/h (4 Bft)
20.11.2024 13:52 20,8 °C 3,3 °C 55 % 89 % 997,3 hPa 0,0 l/m² 21,3 km/h (4 Bft) SW 236 ° 1 min 135 W/m² 1,7 °C -5,9 °C 25,7 km/h (4 Bft)
20.11.2024 13:53 20,9 °C 3,4 °C 55 % 89 % 997,3 hPa 0,0 l/m² 17,0 km/h (3 Bft) W-SW 244 ° 1 min 230 W/m² 1,8 °C -3,9 °C 24,1 km/h (4 Bft)
20.11.2024 13:54 20,9 °C 3,6 °C 55 % 90 % 997,3 hPa 0,0 l/m² 21,7 km/h (4 Bft) SW 227 ° 1 min 313 W/m² 2,1 °C -5,7 °C 25,7 km/h (4 Bft)
20.11.2024 13:55 20,8 °C 3,7 °C 55 % 90 % 997,3 hPa 0,0 l/m² 18,4 km/h (3 Bft) W-SW 242 ° 1 min 334 W/m² 2,2 °C -4,2 °C 25,7 km/h (4 Bft)
20.11.2024 13:56 20,8 °C 3,9 °C 55 % 90 % 997,2 hPa 0,0 l/m² 18,6 km/h (3 Bft) SW 227 ° 1 min 336 W/m² 2,4 °C -4,0 °C 24,1 km/h (4 Bft)
20.11.2024 13:57 20,9 °C 4,0 °C 55 % 90 % 997,3 hPa 0,0 l/m² 19,2 km/h (3 Bft) SW 232 ° 1 min 332 W/m² 2,5 °C -4,1 °C 27,4 km/h (5 Bft)
20.11.2024 13:58 20,9 °C 4,1 °C 55 % 90 % 997,3 hPa 0,0 l/m² 22,6 km/h (4 Bft) W 259 ° 1 min 323 W/m² 2,6 °C -5,3 °C 29,0 km/h (5 Bft)
20.11.2024 13:59 20,9 °C 4,2 °C 55 % 89 % 997,3 hPa 0,0 l/m² 19,5 km/h (3 Bft) W-SW 240 ° 1 min 315 W/m² 2,6 °C -4,0 °C 24,1 km/h (4 Bft)
20.11.2024 14:00 20,9 °C 4,2 °C 55 % 89 % 997,3 hPa 0,0 l/m² 13,8 km/h (3 Bft) W-SW 239 ° 1 min 302 W/m² 2,6 °C -1,2 °C 17,7 km/h (3 Bft)
20.11.2024 14:01 20,9 °C 4,3 °C 55 % 89 % 997,3 hPa 0,0 l/m² 18,2 km/h (3 Bft) SW 227 ° 1 min 288 W/m² 2,7 °C -3,3 °C 22,5 km/h (4 Bft)
20.11.2024 14:02 20,9 °C 4,3 °C 55 % 89 % 997,4 hPa 0,0 l/m² 18,3 km/h (3 Bft) W-SW 257 ° 1 min 204 W/m² 2,7 °C -3,4 °C 22,5 km/h (4 Bft)
20.11.2024 14:03 20,9 °C 4,4 °C 55 % 89 % 997,3 hPa 0,0 l/m² 15,8 km/h (3 Bft) W 263 ° 1 min 251 W/m² 2,7 °C -2,1 °C 20,9 km/h (4 Bft)
20.11.2024 14:04 20,9 °C 4,4 °C 55 % 89 % 997,3 hPa 0,0 l/m² 20,8 km/h (4 Bft) W-SW 237 ° 1 min 151 W/m² 2,7 °C -4,3 °C 25,7 km/h (4 Bft)
20.11.2024 14:05 20,9 °C 4,4 °C 55 % 88 % 997,4 hPa 0,0 l/m² 17,6 km/h (3 Bft) W-SW 245 ° 1 min 151 W/m² 2,6 °C -2,9 °C 22,5 km/h (4 Bft)
20.11.2024 14:06 20,9 °C 4,4 °C 55 % 88 % 997,4 hPa 0,0 l/m² 13,8 km/h (3 Bft) W-SW 253 ° 1 min 325 W/m² 2,6 °C -1,0 °C 20,9 km/h (4 Bft)
20.11.2024 14:07 21,0 °C 4,6 °C 55 % 88 % 997,4 hPa 0,0 l/m² 19,2 km/h (3 Bft) W-SW 246 ° 1 min 237 W/m² 2,8 °C -3,4 °C 22,5 km/h (4 Bft)
20.11.2024 14:08 20,9 °C 4,6 °C 55 % 88 % 997,5 hPa 0,0 l/m² 15,2 km/h (3 Bft) SW 234 ° 1 min 236 W/m² 2,8 °C -1,5 °C 20,9 km/h (4 Bft)
20.11.2024 14:09 21,0 °C 4,8 °C 55 % 88 % 997,4 hPa 0,0 l/m² 14,7 km/h (3 Bft) W-SW 252 ° 1 min 234 W/m² 3,0 °C -1,0 °C 19,3 km/h (3 Bft)
20.11.2024 14:10 21,0 °C 4,8 °C 55 % 88 % 997,5 hPa 0,0 l/m² 16,5 km/h (3 Bft) W-SW 246 ° 1 min 233 W/m² 3,0 °C -1,9 °C 22,5 km/h (4 Bft)
20.11.2024 14:12 21,1 °C 5,1 °C 55 % 87 % 997,5 hPa 0,0 l/m² 15,8 km/h (3 Bft) W-SW 237 ° 2 min 230 W/m² 3,1 °C -1,2 °C 19,3 km/h (3 Bft)
20.11.2024 14:13 21,1 °C 5,1 °C 55 % 87 % 997,5 hPa 0,0 l/m² 16,0 km/h (3 Bft) SW 225 ° 1 min 228 W/m² 3,1 °C -1,3 °C 19,3 km/h (3 Bft)
20.11.2024 14:14 21,0 °C 5,2 °C 55 % 87 % 997,4 hPa 0,0 l/m² 13,9 km/h (3 Bft) W-SW 248 ° 1 min 227 W/m² 3,2 °C -0,1 °C 19,3 km/h (3 Bft)
20.11.2024 14:15 21,0 °C 5,3 °C 55 % 87 % 997,5 hPa 0,0 l/m² 12,9 km/h (3 Bft) W-SW 248 ° 1 min 226 W/m² 3,3 °C 0,6 °C 20,9 km/h (4 Bft)
20.11.2024 14:16 21,1 °C 5,3 °C 55 % 86 % 997,4 hPa 0,0 l/m² 18,2 km/h (3 Bft) SW 233 ° 1 min 224 W/m² 3,2 °C -2,0 °C 24,1 km/h (4 Bft)
20.11.2024 14:17 21,1 °C 5,4 °C 55 % 86 % 997,4 hPa 0,0 l/m² 15,6 km/h (3 Bft) W 260 ° 1 min 223 W/m² 3,3 °C -0,7 °C 19,3 km/h (3 Bft)
20.11.2024 14:18 21,1 °C 5,6 °C 55 % 86 % 997,4 hPa 0,0 l/m² 14,4 km/h (3 Bft) W 279 ° 1 min 221 W/m² 3,4 °C 0,1 °C 17,7 km/h (3 Bft)
20.11.2024 14:19 21,1 °C 5,6 °C 55 % 86 % 997,4 hPa 0,0 l/m² 14,0 km/h (3 Bft) W-SW 250 ° 1 min 219 W/m² 3,4 °C 0,3 °C 19,3 km/h (3 Bft)
20.11.2024 14:20 21,1 °C 5,7 °C 55 % 85 % 997,5 hPa 0,0 l/m² 12,8 km/h (3 Bft) W-SW 241 ° 1 min 218 W/m² 3,4 °C 1,1 °C 16,1 km/h (3 Bft)
20.11.2024 14:21 21,1 °C 5,8 °C 55 % 86 % 997,5 hPa 0,0 l/m² 16,7 km/h (3 Bft) W-SW 242 ° 1 min 216 W/m² 3,6 °C -0,8 °C 20,9 km/h (4 Bft)
20.11.2024 14:22 21,1 °C 5,8 °C 55 % 85 % 997,5 hPa 0,0 l/m² 14,8 km/h (3 Bft) W-SW 255 ° 1 min 215 W/m² 3,5 °C 0,1 °C 20,9 km/h (4 Bft)
20.11.2024 14:23 21,1 °C 5,8 °C 55 % 84 % 997,5 hPa 0,0 l/m² 19,2 km/h (3 Bft) W-SW 242 ° 1 min 213 W/m² 3,3 °C -1,8 °C 22,5 km/h (4 Bft)
20.11.2024 14:24 21,1 °C 5,8 °C 55 % 84 % 997,5 hPa 0,0 l/m² 16,8 km/h (3 Bft) W-SW 242 ° 1 min 212 W/m² 3,3 °C -0,8 °C 20,9 km/h (4 Bft)
20.11.2024 14:25 21,1 °C 5,8 °C 55 % 84 % 997,5 hPa 0,0 l/m² 16,8 km/h (3 Bft) W-SW 241 ° 1 min 210 W/m² 3,3 °C -0,8 °C 20,9 km/h (4 Bft)
20.11.2024 14:26 21,1 °C 5,8 °C 54 % 84 % 997,5 hPa 0,0 l/m² 14,0 km/h (3 Bft) W-SW 257 ° 1 min 209 W/m² 3,3 °C 0,6 °C 17,7 km/h (3 Bft)
20.11.2024 14:27 21,1 °C 5,9 °C 54 % 84 % 997,5 hPa 0,0 l/m² 16,6 km/h (3 Bft) W-SW 254 ° 1 min 207 W/m² 3,4 °C -0,6 °C 20,9 km/h (4 Bft)
20.11.2024 14:28 21,1 °C 5,9 °C 54 % 84 % 997,4 hPa 0,0 l/m² 14,3 km/h (3 Bft) SW 235 ° 1 min 205 W/m² 3,4 °C 0,5 °C 17,7 km/h (3 Bft)
20.11.2024 14:29 21,1 °C 5,9 °C 54 % 84 % 997,4 hPa 0,0 l/m² 13,0 km/h (3 Bft) SW 232 ° 1 min 204 W/m² 3,4 °C 1,2 °C 20,9 km/h (4 Bft)
20.11.2024 14:30 21,1 °C 6,0 °C 54 % 84 % 997,4 hPa 0,0 l/m² 16,2 km/h (3 Bft) SW 223 ° 1 min 202 W/m² 3,5 °C -0,3 °C 24,1 km/h (4 Bft)
20.11.2024 14:31 21,1 °C 5,9 °C 54 % 84 % 997,4 hPa 0,0 l/m² 17,4 km/h (3 Bft) W-SW 244 ° 1 min 200 W/m² 3,4 °C -0,9 °C 20,9 km/h (4 Bft)
20.11.2024 14:32 21,1 °C 5,9 °C 54 % 83 % 997,5 hPa 0,0 l/m² 17,2 km/h (3 Bft) W-SW 238 ° 1 min 199 W/m² 3,2 °C -0,9 °C 20,9 km/h (4 Bft)
20.11.2024 14:33 21,1 °C 5,8 °C 54 % 83 % 997,6 hPa 0,0 l/m² 15,3 km/h (3 Bft) SW 232 ° 1 min 197 W/m² 3,1 °C -0,1 °C 22,5 km/h (4 Bft)
20.11.2024 14:34 21,1 °C 5,8 °C 54 % 83 % 997,5 hPa 0,0 l/m² 18,0 km/h (3 Bft) W-SW 250 ° 1 min 196 W/m² 3,1 °C -1,3 °C 24,1 km/h (4 Bft)
20.11.2024 14:35 21,1 °C 5,8 °C 53 % 83 % 997,6 hPa 0,0 l/m² 19,7 km/h (3 Bft) W-SW 240 ° 1 min 260 W/m² 3,1 °C -2,0 °C 25,7 km/h (4 Bft)
20.11.2024 14:36 21,1 °C 5,8 °C 53 % 82 % 997,7 hPa 0,0 l/m² 22,3 km/h (4 Bft) W-SW 257 ° 1 min 232 W/m² 3,0 °C -3,0 °C 27,4 km/h (5 Bft)
20.11.2024 14:37 21,1 °C 5,7 °C 53 % 82 % 997,6 hPa 0,0 l/m² 21,9 km/h (4 Bft) SW 232 ° 1 min 214 W/m² 2,9 °C -3,0 °C 25,7 km/h (4 Bft)
20.11.2024 14:38 21,1 °C 5,6 °C 53 % 81 % 997,7 hPa 0,0 l/m² 19,5 km/h (3 Bft) W-SW 250 ° 1 min 214 W/m² 2,6 °C -2,2 °C 25,7 km/h (4 Bft)
20.11.2024 14:39 21,1 °C 5,6 °C 53 % 82 % 997,6 hPa 0,0 l/m² 17,9 km/h (3 Bft) SW 227 ° 1 min 229 W/m² 2,8 °C -1,5 °C 25,7 km/h (4 Bft)
20.11.2024 14:40 21,1 °C 5,6 °C 53 % 82 % 997,6 hPa 0,0 l/m² 22,1 km/h (4 Bft) SW 231 ° 1 min 229 W/m² 2,8 °C -3,2 °C 27,4 km/h (5 Bft)
20.11.2024 14:41 21,1 °C 5,5 °C 53 % 82 % 997,6 hPa 0,0 l/m² 22,5 km/h (4 Bft) W-SW 240 ° 1 min 213 W/m² 2,7 °C -3,4 °C 33,8 km/h (5 Bft)
20.11.2024 14:42 21,1 °C 5,4 °C 53 % 81 % 997,6 hPa 0,0 l/m² 23,3 km/h (4 Bft) SW 222 ° 1 min 111 W/m² 2,4 °C -3,9 °C 29,0 km/h (5 Bft)
20.11.2024 14:43 21,1 °C 5,3 °C 54 % 81 % 997,6 hPa 0,0 l/m² 24,9 km/h (4 Bft) W 279 ° 1 min 79 W/m² 2,3 °C -4,5 °C 29,0 km/h (5 Bft)
20.11.2024 14:44 21,1 °C 5,3 °C 54 % 81 % 997,6 hPa 0,0 l/m² 21,1 km/h (4 Bft) W-SW 237 ° 1 min 54 W/m² 2,3 °C -3,2 °C 25,7 km/h (4 Bft)
20.11.2024 14:45 21,1 °C 5,2 °C 54 % 81 % 997,8 hPa 0,0 l/m² 18,4 km/h (3 Bft) W-SW 254 ° 0 min 39 W/m² 2,2 °C -2,3 °C 24,1 km/h (4 Bft)
20.11.2024 14:46 21,1 °C 5,1 °C 54 % 82 % 997,8 hPa 0,0 l/m² 15,9 km/h (3 Bft) W 265 ° 0 min 30 W/m² 2,3 °C -1,3 °C 17,7 km/h (3 Bft)
20.11.2024 14:47 21,1 °C 5,1 °C 54 % 82 % 997,8 hPa 0,0 l/m² 15,2 km/h (3 Bft) W-NW 294 ° 0 min 21 W/m² 2,3 °C -0,9 °C 22,5 km/h (4 Bft)
20.11.2024 14:48 21,1 °C 4,9 °C 54 % 82 % 997,9 hPa 0,0 l/m² 10,9 km/h (2 Bft) W 272 ° 0 min 12 W/m² 2,1 °C 1,3 °C 16,1 km/h (3 Bft)
20.11.2024 14:49 21,1 °C 4,9 °C 54 % 82 % 997,8 hPa 0,0 l/m² 9,1 km/h (2 Bft) W 271 ° 0 min 11 W/m² 2,1 °C 2,6 °C 12,9 km/h (3 Bft)
20.11.2024 14:50 21,1 °C 4,8 °C 54 % 82 % 997,9 hPa 0,0 l/m² 12,2 km/h (2 Bft) W-NW 290 ° 0 min 12 W/m² 2,0 °C 0,4 °C 17,7 km/h (3 Bft)
20.11.2024 14:52 21,1 °C 4,6 °C 54 % 83 % 997,9 hPa 0,0 l/m² 12,8 km/h (3 Bft) W-SW 255 ° 0 min 14 W/m² 2,0 °C -0,2 °C 20,9 km/h (4 Bft)
20.11.2024 14:53 21,1 °C 4,4 °C 54 % 83 % 997,9 hPa 0,0 l/m² 21,1 km/h (4 Bft) W 261 ° 0 min 14 W/m² 1,8 °C -4,4 °C 25,7 km/h (4 Bft)
20.11.2024 14:54 21,1 °C 4,3 °C 54 % 83 % 997,9 hPa 0,0 l/m² 26,3 km/h (4 Bft) W 265 ° 0 min 16 W/m² 1,7 °C -6,3 °C 38,6 km/h (6 Bft)
20.11.2024 14:55 21,1 °C 4,3 °C 54 % 83 % 997,8 hPa 0,0 l/m² 21,5 km/h (4 Bft) W 270 ° 0 min 19 W/m² 1,7 °C -4,7 °C 27,4 km/h (5 Bft)
20.11.2024 14:56 21,1 °C 4,1 °C 54 % 83 % 997,8 hPa 0,0 l/m² 20,7 km/h (4 Bft) W-SW 242 ° 0 min 21 W/m² 1,5 °C -4,6 °C 27,4 km/h (5 Bft)
20.11.2024 14:57 21,1 °C 4,1 °C 54 % 84 % 997,8 hPa 0,2 l/m² 21,7 km/h (4 Bft) W-SW 247 ° 0 min 25 W/m² 1,6 °C -5,0 °C 27,4 km/h (5 Bft)
20.11.2024 14:58 21,1 °C 3,9 °C 54 % 84 % 997,8 hPa 0,0 l/m² 22,5 km/h (4 Bft) W-SW 248 ° 0 min 30 W/m² 1,4 °C -5,6 °C 27,4 km/h (5 Bft)
20.11.2024 14:59 21,0 °C 3,8 °C 54 % 84 % 997,7 hPa 0,0 l/m² 18,8 km/h (3 Bft) W-SW 238 ° 0 min 40 W/m² 1,4 °C -4,2 °C 24,1 km/h (4 Bft)
20.11.2024 15:00 21,1 °C 3,7 °C 54 % 84 % 997,7 hPa 0,0 l/m² 17,0 km/h (3 Bft) W 264 ° 1 min 93 W/m² 1,3 °C -3,5 °C 24,1 km/h (4 Bft)
20.11.2024 15:01 21,0 °C 3,5 °C 54 % 85 % 997,7 hPa 0,0 l/m² 16,8 km/h (3 Bft) W-SW 244 ° 1 min 118 W/m² 1,2 °C -3,7 °C 20,9 km/h (4 Bft)
20.11.2024 15:02 21,1 °C 3,5 °C 54 % 86 % 997,7 hPa 0,0 l/m² 18,2 km/h (3 Bft) W-SW 255 ° 1 min 158 W/m² 1,4 °C -4,3 °C 24,1 km/h (4 Bft)
20.11.2024 15:03 21,0 °C 3,5 °C 54 % 87 % 997,7 hPa 0,0 l/m² 14,7 km/h (3 Bft) W 264 ° 1 min 158 W/m² 1,5 °C -2,6 °C 17,7 km/h (3 Bft)
20.11.2024 15:04 21,1 °C 3,6 °C 54 % 88 % 997,8 hPa 0,0 l/m² 12,6 km/h (3 Bft) W-SW 250 ° 1 min 176 W/m² 1,8 °C -1,2 °C 17,7 km/h (3 Bft)
20.11.2024 15:05 21,1 °C 3,6 °C 54 % 88 % 997,7 hPa 0,0 l/m² 10,0 km/h (2 Bft) W-SW 252 ° 1 min 171 W/m² 1,8 °C 0,5 °C 16,1 km/h (3 Bft)
20.11.2024 15:06 21,0 °C 3,7 °C 54 % 88 % 997,7 hPa 0,0 l/m² 10,8 km/h (2 Bft) SW 234 ° 1 min 137 W/m² 1,9 °C 0,1 °C 16,1 km/h (3 Bft)
20.11.2024 15:07 21,0 °C 3,8 °C 54 % 88 % 997,7 hPa 0,0 l/m² 11,8 km/h (2 Bft) W-SW 246 ° 1 min 120 W/m² 2,0 °C -0,5 °C 17,7 km/h (3 Bft)
20.11.2024 15:08 21,1 °C 3,8 °C 54 % 88 % 997,7 hPa 0,0 l/m² 9,7 km/h (2 Bft) W-SW 257 ° 1 min 123 W/m² 2,0 °C 1,0 °C 12,9 km/h (3 Bft)
20.11.2024 15:09 21,1 °C 3,9 °C 54 % 89 % 997,7 hPa 0,0 l/m² 9,1 km/h (2 Bft) W-SW 243 ° 1 min 123 W/m² 2,3 °C 1,5 °C 16,1 km/h (3 Bft)
20.11.2024 15:10 21,1 °C 3,9 °C 54 % 89 % 997,7 hPa 0,0 l/m² 11,4 km/h (2 Bft) W-SW 255 ° 1 min 88 W/m² 2,3 °C -0,1 °C 14,5 km/h (3 Bft)
20.11.2024 15:11 21,1 °C 3,9 °C 54 % 89 % 997,7 hPa 0,0 l/m² 12,0 km/h (2 Bft) W 262 ° 1 min 65 W/m² 2,3 °C -0,5 °C 14,5 km/h (3 Bft)
20.11.2024 15:12 21,1 °C 3,9 °C 54 % 88 % 997,7 hPa 0,0 l/m² 11,3 km/h (2 Bft) W 281 ° 1 min 53 W/m² 2,1 °C -0,1 °C 14,5 km/h (3 Bft)
20.11.2024 15:13 21,1 °C 3,9 °C 54 % 88 % 997,7 hPa 0,0 l/m² 11,7 km/h (2 Bft) W-SW 244 ° 0 min 47 W/m² 2,1 °C -0,3 °C 17,7 km/h (3 Bft)
20.11.2024 15:14 21,1 °C 3,9 °C 54 % 88 % 997,7 hPa 0,0 l/m² 15,7 km/h (3 Bft) W-SW 257 ° 0 min 42 W/m² 2,1 °C -2,6 °C 20,9 km/h (4 Bft)
20.11.2024 15:15 21,1 °C 3,9 °C 54 % 88 % 997,7 hPa 0,0 l/m² 11,3 km/h (2 Bft) W-SW 254 ° 0 min 40 W/m² 2,1 °C -0,1 °C 16,1 km/h (3 Bft)
20.11.2024 15:16 21,1 °C 3,9 °C 54 % 88 % 997,8 hPa 0,0 l/m² 12,0 km/h (2 Bft) W-SW 246 ° 0 min 39 W/m² 2,1 °C -0,5 °C 14,5 km/h (3 Bft)
20.11.2024 15:17 21,1 °C 3,9 °C 54 % 88 % 997,8 hPa 0,0 l/m² 10,7 km/h (2 Bft) W-SW 246 ° 0 min 35 W/m² 2,1 °C 0,4 °C 16,1 km/h (3 Bft)
20.11.2024 15:18 21,1 °C 3,9 °C 54 % 88 % 997,8 hPa 0,0 l/m² 11,1 km/h (2 Bft) W-SW 250 ° 0 min 33 W/m² 2,1 °C 0,1 °C 14,5 km/h (3 Bft)
20.11.2024 15:19 21,1 °C 3,9 °C 54 % 88 % 997,7 hPa 0,0 l/m² 12,8 km/h (3 Bft) W-SW 251 ° 0 min 33 W/m² 2,1 °C -1,0 °C 16,1 km/h (3 Bft)
20.11.2024 15:20 21,1 °C 3,8 °C 54 % 88 % 997,8 hPa 0,0 l/m² 12,9 km/h (3 Bft) W 260 ° 0 min 33 W/m² 2,0 °C -1,2 °C 17,7 km/h (3 Bft)
20.11.2024 15:21 21,1 °C 3,8 °C 54 % 88 % 997,8 hPa 0,0 l/m² 11,7 km/h (2 Bft) W-SW 257 ° 0 min 33 W/m² 2,0 °C -0,4 °C 16,1 km/h (3 Bft)
20.11.2024 15:22 21,0 °C 3,8 °C 54 % 88 % 997,9 hPa 0,0 l/m² 13,4 km/h (3 Bft) SW 236 ° 0 min 32 W/m² 2,0 °C -1,5 °C 16,1 km/h (3 Bft)
20.11.2024 15:23 21,1 °C 3,8 °C 54 % 88 % 997,8 hPa 0,0 l/m² 11,4 km/h (2 Bft) SW 235 ° 0 min 28 W/m² 2,0 °C -0,2 °C 14,5 km/h (3 Bft)
20.11.2024 15:24 21,0 °C 3,8 °C 54 % 88 % 997,8 hPa 0,0 l/m² 10,6 km/h (2 Bft) SW 234 ° 0 min 26 W/m² 2,0 °C 0,3 °C 12,9 km/h (3 Bft)
20.11.2024 15:25 21,0 °C 3,8 °C 54 % 88 % 997,9 hPa 0,0 l/m² 11,9 km/h (2 Bft) SW 229 ° 0 min 25 W/m² 2,0 °C -0,6 °C 16,1 km/h (3 Bft)
20.11.2024 15:26 21,0 °C 3,8 °C 54 % 88 % 997,9 hPa 0,0 l/m² 11,0 km/h (2 Bft) SW 223 ° 0 min 21 W/m² 2,0 °C 0,0 °C 14,5 km/h (3 Bft)
20.11.2024 15:27 21,0 °C 3,7 °C 54 % 87 % 997,7 hPa 0,0 l/m² 12,0 km/h (2 Bft) SW 235 ° 0 min 18 W/m² 1,7 °C -0,7 °C 17,7 km/h (3 Bft)
20.11.2024 15:28 21,0 °C 3,7 °C 54 % 87 % 997,8 hPa 0,0 l/m² 15,0 km/h (3 Bft) SW 229 ° 0 min 16 W/m² 1,7 °C -2,5 °C 20,9 km/h (4 Bft)
20.11.2024 15:29 21,0 °C 3,7 °C 54 % 87 % 997,8 hPa 0,0 l/m² 15,5 km/h (3 Bft) SW 229 ° 0 min 12 W/m² 1,7 °C -2,8 °C 19,3 km/h (3 Bft)
20.11.2024 15:30 21,0 °C 3,7 °C 54 % 87 % 997,9 hPa 0,0 l/m² 16,5 km/h (3 Bft) SW 232 ° 0 min 12 W/m² 1,7 °C -3,3 °C 20,9 km/h (4 Bft)
20.11.2024 15:31 21,0 °C 3,6 °C 54 % 87 % 997,9 hPa 0,0 l/m² 15,2 km/h (3 Bft) SW 226 ° 0 min 12 W/m² 1,6 °C -2,7 °C 19,3 km/h (3 Bft)
20.11.2024 15:32 21,0 °C 3,6 °C 54 % 87 % 997,8 hPa 0,0 l/m² 14,3 km/h (3 Bft) SW 231 ° 0 min 12 W/m² 1,6 °C -2,2 °C 19,3 km/h (3 Bft)
20.11.2024 15:33 21,0 °C 3,6 °C 54 % 87 % 997,8 hPa 0,0 l/m² 15,4 km/h (3 Bft) SW 232 ° 0 min 12 W/m² 1,6 °C -2,8 °C 19,3 km/h (3 Bft)
20.11.2024 15:34 21,0 °C 3,6 °C 54 % 87 % 997,9 hPa 0,0 l/m² 14,1 km/h (3 Bft) SW 232 ° 0 min 12 W/m² 1,6 °C -2,1 °C 19,3 km/h (3 Bft)
20.11.2024 15:35 21,0 °C 3,6 °C 54 % 87 % 997,9 hPa 0,0 l/m² 14,2 km/h (3 Bft) SW 228 ° 0 min 11 W/m² 1,6 °C -2,2 °C 20,9 km/h (4 Bft)
20.11.2024 15:36 20,9 °C 3,6 °C 54 % 87 % 997,9 hPa 0,0 l/m² 15,9 km/h (3 Bft) W-SW 244 ° 0 min 11 W/m² 1,6 °C -3,1 °C 19,3 km/h (3 Bft)
20.11.2024 15:37 20,9 °C 3,6 °C 54 % 86 % 997,9 hPa 0,0 l/m² 17,2 km/h (3 Bft) SW 218 ° 0 min 11 W/m² 1,5 °C -3,7 °C 20,9 km/h (4 Bft)
20.11.2024 15:38 20,9 °C 3,6 °C 54 % 86 % 997,8 hPa 0,0 l/m² 17,2 km/h (3 Bft) W-SW 239 ° 0 min 11 W/m² 1,5 °C -3,7 °C 24,1 km/h (4 Bft)
20.11.2024 15:39 20,9 °C 3,6 °C 54 % 86 % 997,8 hPa 0,0 l/m² 16,2 km/h (3 Bft) W-SW 240 ° 0 min 12 W/m² 1,5 °C -3,2 °C 19,3 km/h (3 Bft)
20.11.2024 15:40 20,9 °C 3,6 °C 54 % 86 % 997,8 hPa 0,0 l/m² 15,4 km/h (3 Bft) W-SW 238 ° 0 min 12 W/m² 1,5 °C -2,8 °C 19,3 km/h (3 Bft)
20.11.2024 15:42 20,9 °C 3,6 °C 54 % 86 % 997,9 hPa 0,0 l/m² 15,2 km/h (3 Bft) SW 227 ° 0 min 12 W/m² 1,5 °C -2,7 °C 20,9 km/h (4 Bft)
20.11.2024 15:43 20,9 °C 3,6 °C 54 % 86 % 997,9 hPa 0,0 l/m² 15,0 km/h (3 Bft) SW 224 ° 0 min 12 W/m² 1,5 °C -2,6 °C 19,3 km/h (3 Bft)
20.11.2024 15:44 20,9 °C 3,6 °C 54 % 86 % 997,9 hPa 0,0 l/m² 16,4 km/h (3 Bft) W-SW 240 ° 0 min 12 W/m² 1,5 °C -3,3 °C 20,9 km/h (4 Bft)
20.11.2024 15:47 20,9 °C 3,6 °C 54 % 86 % 998,0 hPa 0,0 l/m² 15,4 km/h (3 Bft) SW 233 ° 0 min 12 W/m² 1,5 °C -2,8 °C 20,9 km/h (4 Bft)
20.11.2024 15:48 20,9 °C 3,6 °C 54 % 86 % 998,1 hPa 0,0 l/m² 14,9 km/h (3 Bft) SW 235 ° 0 min 12 W/m² 1,5 °C -2,6 °C 17,7 km/h (3 Bft)
20.11.2024 15:49 20,9 °C 3,6 °C 54 % 86 % 998,1 hPa 0,0 l/m² 14,6 km/h (3 Bft) W-SW 240 ° 0 min 12 W/m² 1,5 °C -2,4 °C 22,5 km/h (4 Bft)
20.11.2024 15:50 20,9 °C 3,6 °C 54 % 86 % 998,1 hPa 0,0 l/m² 16,7 km/h (3 Bft) SW 236 ° 0 min 14 W/m² 1,5 °C -3,5 °C 20,9 km/h (4 Bft)
20.11.2024 15:51 20,9 °C 3,6 °C 54 % 86 % 998,0 hPa 0,0 l/m² 15,6 km/h (3 Bft) SW 234 ° 0 min 16 W/m² 1,5 °C -2,9 °C 19,3 km/h (3 Bft)
20.11.2024 15:52 20,9 °C 3,6 °C 54 % 85 % 998,1 hPa 0,0 l/m² 15,2 km/h (3 Bft) SW 235 ° 0 min 16 W/m² 1,3 °C -2,7 °C 19,3 km/h (3 Bft)
20.11.2024 15:53 20,9 °C 3,6 °C 54 % 85 % 998,1 hPa 0,0 l/m² 12,7 km/h (3 Bft) W-SW 248 ° 0 min 18 W/m² 1,3 °C -1,3 °C 16,1 km/h (3 Bft)
20.11.2024 15:54 20,9 °C 3,6 °C 54 % 85 % 998,1 hPa 0,0 l/m² 12,3 km/h (2 Bft) W-SW 244 ° 0 min 19 W/m² 1,3 °C -1,0 °C 14,5 km/h (3 Bft)
20.11.2024 15:55 20,9 °C 3,6 °C 54 % 85 % 998,2 hPa 0,0 l/m² 13,5 km/h (3 Bft) SW 235 ° 0 min 18 W/m² 1,3 °C -1,8 °C 17,7 km/h (3 Bft)
20.11.2024 15:56 20,9 °C 3,6 °C 54 % 85 % 998,2 hPa 0,0 l/m² 14,0 km/h (3 Bft) W-SW 239 ° 0 min 14 W/m² 1,3 °C -2,1 °C 17,7 km/h (3 Bft)
20.11.2024 15:57 20,9 °C 3,5 °C 54 % 85 % 998,2 hPa 0,0 l/m² 14,3 km/h (3 Bft) W-SW 238 ° 0 min 12 W/m² 1,2 °C -2,4 °C 19,3 km/h (3 Bft)
20.11.2024 15:58 20,9 °C 3,5 °C 54 % 85 % 998,1 hPa 0,0 l/m² 11,8 km/h (2 Bft) W-SW 254 ° 0 min 11 W/m² 1,2 °C -0,8 °C 16,1 km/h (3 Bft)
20.11.2024 15:59 20,9 °C 3,5 °C 54 % 85 % 998,1 hPa 0,0 l/m² 14,4 km/h (3 Bft) W-SW 244 ° 0 min 9 W/m² 1,2 °C -2,4 °C 19,3 km/h (3 Bft)
20.11.2024 16:00 20,9 °C 3,5 °C 54 % 85 % 998,1 hPa 0,0 l/m² 11,0 km/h (2 Bft) SW 229 ° 0 min 7 W/m² 1,2 °C -0,3 °C 16,1 km/h (3 Bft)
20.11.2024 16:02 20,9 °C 3,4 °C 54 % 85 % 998,2 hPa 0,0 l/m² 11,6 km/h (2 Bft) SW 231 ° 0 min 7 W/m² 1,1 °C -0,8 °C 17,7 km/h (3 Bft)
20.11.2024 16:03 20,9 °C 3,4 °C 54 % 85 % 998,2 hPa 0,0 l/m² 12,5 km/h (2 Bft) W-SW 250 ° 0 min 7 W/m² 1,1 °C -1,4 °C 17,7 km/h (3 Bft)
20.11.2024 16:04 20,9 °C 3,4 °C 54 % 85 % 998,2 hPa 0,0 l/m² 14,7 km/h (3 Bft) SW 232 ° 0 min 5 W/m² 1,1 °C -2,7 °C 19,3 km/h (3 Bft)
20.11.2024 16:05 20,8 °C 3,4 °C 54 % 85 % 998,2 hPa 0,0 l/m² 14,3 km/h (3 Bft) W-SW 245 ° 0 min 5 W/m² 1,1 °C -2,5 °C 17,7 km/h (3 Bft)
20.11.2024 16:06 20,8 °C 3,4 °C 54 % 85 % 998,2 hPa 0,0 l/m² 10,9 km/h (2 Bft) W-SW 243 ° 0 min 5 W/m² 1,1 °C -0,3 °C 14,5 km/h (3 Bft)
20.11.2024 16:07 20,9 °C 3,4 °C 55 % 85 % 998,2 hPa 0,0 l/m² 10,7 km/h (2 Bft) SW 225 ° 0 min 5 W/m² 1,1 °C -0,2 °C 14,5 km/h (3 Bft)
20.11.2024 16:08 20,9 °C 3,4 °C 54 % 85 % 998,2 hPa 0,0 l/m² 14,2 km/h (3 Bft) SW 223 ° 0 min 5 W/m² 1,1 °C -2,4 °C 19,3 km/h (3 Bft)
20.11.2024 16:09 20,8 °C 3,4 °C 54 % 85 % 998,3 hPa 0,0 l/m² 13,9 km/h (3 Bft) SW 227 ° 0 min 5 W/m² 1,1 °C -2,2 °C 17,7 km/h (3 Bft)
20.11.2024 16:10 20,8 °C 3,3 °C 54 % 85 % 998,2 hPa 0,0 l/m² 14,6 km/h (3 Bft) W-SW 238 ° 0 min 0 W/m² 1,0 °C -2,8 °C 20,9 km/h (4 Bft)
20.11.2024 16:11 20,9 °C 3,4 °C 55 % 85 % 998,2 hPa 0,0 l/m² 16,4 km/h (3 Bft) SW 236 ° 0 min 0 W/m² 1,1 °C -3,6 °C 24,1 km/h (4 Bft)
20.11.2024 16:12 20,8 °C 3,3 °C 54 % 85 % 998,2 hPa 0,0 l/m² 14,1 km/h (3 Bft) SW 235 ° 0 min 0 W/m² 1,0 °C -2,5 °C 17,7 km/h (3 Bft)
20.11.2024 16:13 20,9 °C 3,3 °C 55 % 85 % 998,2 hPa 0,0 l/m² 14,1 km/h (3 Bft) SW 223 ° 0 min 0 W/m² 1,0 °C -2,5 °C 22,5 km/h (4 Bft)
20.11.2024 16:14 20,8 °C 3,3 °C 54 % 85 % 998,2 hPa 0,0 l/m² 14,8 km/h (3 Bft) W-SW 238 ° 0 min 0 W/m² 1,0 °C -2,9 °C 19,3 km/h (3 Bft)
20.11.2024 16:15 20,8 °C 3,3 °C 55 % 85 % 998,2 hPa 0,0 l/m² 15,0 km/h (3 Bft) SW 218 ° 0 min 0 W/m² 1,0 °C -3,0 °C 17,7 km/h (3 Bft)
20.11.2024 16:16 20,9 °C 3,3 °C 55 % 85 % 998,3 hPa 0,0 l/m² 11,9 km/h (2 Bft) W-SW 241 ° 0 min 0 W/m² 1,0 °C -1,1 °C 16,1 km/h (3 Bft)
20.11.2024 16:17 20,8 °C 3,3 °C 55 % 85 % 998,2 hPa 0,0 l/m² 11,8 km/h (2 Bft) SW 226 ° 0 min 0 W/m² 1,0 °C -1,1 °C 16,1 km/h (3 Bft)
20.11.2024 16:18 20,8 °C 3,3 °C 55 % 85 % 998,2 hPa 0,0 l/m² 14,2 km/h (3 Bft) SW 230 ° 0 min 0 W/m² 1,0 °C -2,5 °C 17,7 km/h (3 Bft)
20.11.2024 16:19 20,8 °C 3,3 °C 54 % 85 % 998,2 hPa 0,0 l/m² 14,0 km/h (3 Bft) SW 228 ° 0 min 0 W/m² 1,0 °C -2,4 °C 17,7 km/h (3 Bft)
20.11.2024 16:20 20,8 °C 3,3 °C 54 % 85 % 998,2 hPa 0,0 l/m² 14,8 km/h (3 Bft) SW 233 ° 0 min 0 W/m² 1,0 °C -2,9 °C 17,7 km/h (3 Bft)
20.11.2024 16:21 20,8 °C 3,3 °C 55 % 85 % 998,2 hPa 0,0 l/m² 9,6 km/h (2 Bft) SW 223 ° 0 min 0 W/m² 1,0 °C 0,5 °C 12,9 km/h (3 Bft)
20.11.2024 16:22 20,8 °C 3,3 °C 55 % 85 % 998,2 hPa 0,0 l/m² 12,9 km/h (3 Bft) W-SW 238 ° 0 min 0 W/m² 1,0 °C -1,8 °C 19,3 km/h (3 Bft)
20.11.2024 16:23 20,8 °C 3,3 °C 54 % 85 % 998,3 hPa 0,0 l/m² 9,3 km/h (2 Bft) W-SW 238 ° 0 min 0 W/m² 1,0 °C 0,7 °C 12,9 km/h (3 Bft)
20.11.2024 16:24 20,8 °C 3,3 °C 54 % 85 % 998,2 hPa 0,0 l/m² 10,8 km/h (2 Bft) W-SW 240 ° 0 min 0 W/m² 1,0 °C -0,4 °C 12,9 km/h (3 Bft)
20.11.2024 16:25 20,8 °C 3,3 °C 54 % 85 % 998,3 hPa 0,0 l/m² 14,3 km/h (3 Bft) SW 229 ° 0 min 0 W/m² 1,0 °C -2,6 °C 20,9 km/h (4 Bft)
20.11.2024 16:26 20,8 °C 3,3 °C 55 % 85 % 998,2 hPa 0,0 l/m² 14,9 km/h (3 Bft) SW 216 ° 0 min 0 W/m² 1,0 °C -2,9 °C 17,7 km/h (3 Bft)
20.11.2024 16:27 20,8 °C 3,3 °C 55 % 85 % 998,2 hPa 0,0 l/m² 13,2 km/h (3 Bft) S-SW 213 ° 0 min 0 W/m² 1,0 °C -2,0 °C 16,1 km/h (3 Bft)
20.11.2024 16:28 20,8 °C 3,3 °C 55 % 85 % 998,3 hPa 0,0 l/m² 11,1 km/h (2 Bft) SW 229 ° 0 min 0 W/m² 1,0 °C -0,6 °C 16,1 km/h (3 Bft)
20.11.2024 16:29 20,8 °C 3,3 °C 54 % 85 % 998,2 hPa 0,0 l/m² 12,0 km/h (2 Bft) SW 226 ° 0 min 0 W/m² 1,0 °C -1,2 °C 17,7 km/h (3 Bft)
20.11.2024 16:30 20,8 °C 3,3 °C 54 % 85 % 998,2 hPa 0,0 l/m² 11,9 km/h (2 Bft) SW 217 ° 0 min 0 W/m² 1,0 °C -1,1 °C 17,7 km/h (3 Bft)
20.11.2024 16:31 20,8 °C 3,3 °C 54 % 85 % 998,2 hPa 0,0 l/m² 10,8 km/h (2 Bft) W-SW 237 ° 0 min 0 W/m² 1,0 °C -0,4 °C 17,7 km/h (3 Bft)
20.11.2024 16:32 20,8 °C 3,3 °C 54 % 85 % 998,3 hPa 0,0 l/m² 11,5 km/h (2 Bft) SW 236 ° 0 min 0 W/m² 1,0 °C -0,9 °C 19,3 km/h (3 Bft)
20.11.2024 16:33 20,8 °C 3,3 °C 55 % 85 % 998,3 hPa 0,0 l/m² 10,6 km/h (2 Bft) SW 225 ° 0 min 0 W/m² 1,0 °C -0,2 °C 14,5 km/h (3 Bft)
20.11.2024 16:34 20,8 °C 3,3 °C 54 % 85 % 998,3 hPa 0,0 l/m² 8,4 km/h (2 Bft) SW 230 ° 0 min 0 W/m² 1,0 °C 1,5 °C 12,9 km/h (3 Bft)
20.11.2024 16:35 20,8 °C 3,3 °C 55 % 85 % 998,3 hPa 0,0 l/m² 9,2 km/h (2 Bft) W-SW 238 ° 0 min 0 W/m² 1,0 °C 0,8 °C 11,3 km/h (2 Bft)
20.11.2024 16:36 20,8 °C 3,3 °C 55 % 85 % 998,3 hPa 0,0 l/m² 10,5 km/h (2 Bft) SW 221 ° 0 min 0 W/m² 1,0 °C -0,2 °C 14,5 km/h (3 Bft)
20.11.2024 16:37 20,9 °C 3,3 °C 55 % 85 % 998,3 hPa 0,0 l/m² 11,2 km/h (2 Bft) S-SW 212 ° 0 min 0 W/m² 1,0 °C -0,7 °C 16,1 km/h (3 Bft)
20.11.2024 16:38 20,9 °C 3,3 °C 55 % 84 % 998,1 hPa 0,0 l/m² 9,1 km/h (2 Bft) SW 220 ° 0 min 0 W/m² 0,9 °C 0,9 °C 11,3 km/h (2 Bft)
20.11.2024 16:39 20,9 °C 3,3 °C 55 % 84 % 998,2 hPa 0,0 l/m² 8,7 km/h (2 Bft) SW 217 ° 0 min 0 W/m² 0,9 °C 1,2 °C 11,3 km/h (2 Bft)
20.11.2024 16:40 20,8 °C 3,3 °C 55 % 84 % 998,2 hPa 0,0 l/m² 11,7 km/h (2 Bft) SW 232 ° 0 min 0 W/m² 0,9 °C -1,0 °C 16,1 km/h (3 Bft)
20.11.2024 16:42 20,9 °C 3,3 °C 55 % 84 % 998,3 hPa 0,0 l/m² 11,7 km/h (2 Bft) S-SW 209 ° 0 min 0 W/m² 0,9 °C -1,0 °C 14,5 km/h (3 Bft)
20.11.2024 16:43 20,9 °C 3,3 °C 55 % 84 % 998,3 hPa 0,0 l/m² 9,6 km/h (2 Bft) W-SW 238 ° 0 min 0 W/m² 0,9 °C 0,5 °C 12,9 km/h (3 Bft)
20.11.2024 16:44 20,9 °C 3,3 °C 55 % 84 % 998,2 hPa 0,0 l/m² 9,5 km/h (2 Bft) SW 225 ° 0 min 0 W/m² 0,9 °C 0,6 °C 11,3 km/h (2 Bft)
20.11.2024 16:45 20,9 °C 3,3 °C 55 % 84 % 998,1 hPa 0,0 l/m² 7,7 km/h (2 Bft) S-SW 211 ° 0 min 0 W/m² 0,9 °C 2,1 °C 11,3 km/h (2 Bft)
20.11.2024 16:46 20,9 °C 3,3 °C 55 % 84 % 998,1 hPa 0,0 l/m² 7,0 km/h (2 Bft) SW 222 ° 0 min 0 W/m² 0,9 °C 2,7 °C 11,3 km/h (2 Bft)
20.11.2024 16:47 20,9 °C 3,3 °C 55 % 84 % 998,1 hPa 0,0 l/m² 8,9 km/h (2 Bft) W-SW 242 ° 0 min 0 W/m² 0,9 °C 1,1 °C 12,9 km/h (3 Bft)
20.11.2024 16:48 20,9 °C 3,3 °C 55 % 84 % 998,2 hPa 0,0 l/m² 9,0 km/h (2 Bft) SW 234 ° 0 min 0 W/m² 0,9 °C 1,0 °C 14,5 km/h (3 Bft)
20.11.2024 16:49 20,9 °C 3,3 °C 55 % 84 % 998,1 hPa 0,0 l/m² 11,7 km/h (2 Bft) SW 224 ° 0 min 0 W/m² 0,9 °C -1,0 °C 14,5 km/h (3 Bft)
20.11.2024 16:50 20,9 °C 3,3 °C 55 % 84 % 998,1 hPa 0,0 l/m² 10,4 km/h (2 Bft) SW 229 ° 0 min 0 W/m² 0,9 °C -0,1 °C 14,5 km/h (3 Bft)
20.11.2024 16:51 20,9 °C 3,3 °C 55 % 85 % 998,2 hPa 0,0 l/m² 12,5 km/h (2 Bft) SW 229 ° 0 min 0 W/m² 1,0 °C -1,5 °C 16,1 km/h (3 Bft)
20.11.2024 16:52 20,9 °C 3,4 °C 55 % 85 % 998,2 hPa 0,0 l/m² 10,3 km/h (2 Bft) SW 220 ° 0 min 0 W/m² 1,1 °C 0,1 °C 12,9 km/h (3 Bft)
20.11.2024 16:53 20,9 °C 3,3 °C 55 % 85 % 998,2 hPa 0,0 l/m² 9,7 km/h (2 Bft) SW 221 ° 0 min 0 W/m² 1,0 °C 0,4 °C 14,5 km/h (3 Bft)
20.11.2024 16:54 20,9 °C 3,3 °C 55 % 85 % 998,2 hPa 0,0 l/m² 13,1 km/h (3 Bft) SW 214 ° 0 min 0 W/m² 1,0 °C -1,9 °C 16,1 km/h (3 Bft)
20.11.2024 16:55 20,9 °C 3,4 °C 55 % 85 % 998,2 hPa 0,0 l/m² 10,9 km/h (2 Bft) SW 228 ° 0 min 0 W/m² 1,1 °C -0,3 °C 14,5 km/h (3 Bft)
20.11.2024 16:56 20,9 °C 3,4 °C 55 % 85 % 998,2 hPa 0,0 l/m² 14,3 km/h (3 Bft) SW 220 ° 0 min 0 W/m² 1,1 °C -2,5 °C 19,3 km/h (3 Bft)
20.11.2024 16:57 20,9 °C 3,3 °C 55 % 85 % 998,3 hPa 0,0 l/m² 11,3 km/h (2 Bft) SW 223 ° 0 min 0 W/m² 1,0 °C -0,7 °C 16,1 km/h (3 Bft)
20.11.2024 16:58 20,9 °C 3,3 °C 55 % 85 % 998,3 hPa 0,0 l/m² 11,7 km/h (2 Bft) SW 226 ° 0 min 0 W/m² 1,0 °C -1,0 °C 16,1 km/h (3 Bft)
20.11.2024 16:59 20,9 °C 3,4 °C 55 % 85 % 998,3 hPa 0,0 l/m² 13,1 km/h (3 Bft) SW 225 ° 0 min 0 W/m² 1,1 °C -1,8 °C 17,7 km/h (3 Bft)
20.11.2024 17:00 20,9 °C 3,4 °C 55 % 85 % 998,3 hPa 0,0 l/m² 10,6 km/h (2 Bft) S-SW 213 ° 0 min 0 W/m² 1,1 °C -0,1 °C 12,9 km/h (3 Bft)
20.11.2024 17:02 20,9 °C 3,4 °C 55 % 85 % 998,2 hPa 0,0 l/m² 11,0 km/h (2 Bft) S-SW 202 ° 0 min 0 W/m² 1,1 °C -0,4 °C 12,9 km/h (3 Bft)
20.11.2024 17:03 20,9 °C 3,4 °C 55 % 85 % 998,2 hPa 0,0 l/m² 11,2 km/h (2 Bft) SW 215 ° 0 min 0 W/m² 1,1 °C -0,6 °C 14,5 km/h (3 Bft)
20.11.2024 17:04 20,9 °C 3,4 °C 55 % 85 % 998,2 hPa 0,0 l/m² 11,2 km/h (2 Bft) SW 216 ° 0 min 0 W/m² 1,1 °C -0,6 °C 14,5 km/h (3 Bft)
20.11.2024 17:05 20,9 °C 3,4 °C 55 % 85 % 998,2 hPa 0,0 l/m² 10,3 km/h (2 Bft) S-SW 213 ° 0 min 0 W/m² 1,1 °C 0,1 °C 12,9 km/h (3 Bft)
20.11.2024 17:06 20,9 °C 3,4 °C 55 % 85 % 998,2 hPa 0,0 l/m² 8,5 km/h (2 Bft) S-SW 211 ° 0 min 0 W/m² 1,1 °C 1,5 °C 11,3 km/h (2 Bft)
20.11.2024 17:07 20,9 °C 3,4 °C 55 % 85 % 998,2 hPa 0,0 l/m² 9,6 km/h (2 Bft) SW 217 ° 0 min 0 W/m² 1,1 °C 0,6 °C 12,9 km/h (3 Bft)
20.11.2024 17:08 20,9 °C 3,4 °C 55 % 85 % 998,2 hPa 0,0 l/m² 9,1 km/h (2 Bft) W-SW 239 ° 0 min 0 W/m² 1,1 °C 1,0 °C 11,3 km/h (2 Bft)
20.11.2024 17:09 20,9 °C 3,3 °C 55 % 85 % 998,2 hPa 0,0 l/m² 9,0 km/h (2 Bft) SW 222 ° 0 min 0 W/m² 1,0 °C 1,0 °C 12,9 km/h (3 Bft)
20.11.2024 17:10 20,9 °C 3,4 °C 55 % 85 % 998,3 hPa 0,0 l/m² 8,3 km/h (2 Bft) SW 215 ° 0 min 0 W/m² 1,1 °C 1,7 °C 11,3 km/h (2 Bft)
20.11.2024 17:11 20,9 °C 3,4 °C 55 % 85 % 998,3 hPa 0,0 l/m² 9,1 km/h (2 Bft) SW 215 ° 0 min 0 W/m² 1,1 °C 1,0 °C 12,9 km/h (3 Bft)
20.11.2024 17:12 20,9 °C 3,3 °C 55 % 85 % 998,3 hPa 0,0 l/m² 9,9 km/h (2 Bft) SW 219 ° 0 min 0 W/m² 1,0 °C 0,3 °C 14,5 km/h (3 Bft)
20.11.2024 17:13 20,9 °C 3,3 °C 55 % 85 % 998,3 hPa 0,0 l/m² 8,6 km/h (2 Bft) S-SW 212 ° 0 min 0 W/m² 1,0 °C 1,3 °C 9,7 km/h (2 Bft)
20.11.2024 17:14 20,9 °C 3,4 °C 55 % 85 % 998,3 hPa 0,0 l/m² 9,3 km/h (2 Bft) S-SW 207 ° 0 min 0 W/m² 1,1 °C 0,8 °C 11,3 km/h (2 Bft)
20.11.2024 17:15 20,9 °C 3,3 °C 55 % 85 % 998,3 hPa 0,0 l/m² 9,1 km/h (2 Bft) S-SW 210 ° 0 min 0 W/m² 1,0 °C 0,9 °C 14,5 km/h (3 Bft)
20.11.2024 17:16 20,9 °C 3,4 °C 55 % 85 % 998,3 hPa 0,0 l/m² 8,2 km/h (2 Bft) S-SW 205 ° 0 min 0 W/m² 1,1 °C 1,7 °C 9,7 km/h (2 Bft)
20.11.2024 17:17 20,9 °C 3,3 °C 55 % 85 % 998,2 hPa 0,0 l/m² 9,7 km/h (2 Bft) SW 214 ° 0 min 0 W/m² 1,0 °C 0,4 °C 11,3 km/h (2 Bft)
20.11.2024 17:18 20,9 °C 3,3 °C 55 % 85 % 998,2 hPa 0,0 l/m² 10,9 km/h (2 Bft) SW 222 ° 0 min 0 W/m² 1,0 °C -0,5 °C 16,1 km/h (3 Bft)
20.11.2024 17:19 20,9 °C 3,3 °C 55 % 85 % 998,2 hPa 0,0 l/m² 12,7 km/h (3 Bft) S-SW 213 ° 0 min 0 W/m² 1,0 °C -1,6 °C 14,5 km/h (3 Bft)
20.11.2024 17:20 20,9 °C 3,3 °C 55 % 85 % 998,2 hPa 0,0 l/m² 10,0 km/h (2 Bft) SW 223 ° 0 min 0 W/m² 1,0 °C 0,2 °C 16,1 km/h (3 Bft)
20.11.2024 17:21 20,9 °C 3,3 °C 55 % 85 % 998,3 hPa 0,0 l/m² 12,8 km/h (3 Bft) SW 216 ° 0 min 0 W/m² 1,0 °C -1,7 °C 17,7 km/h (3 Bft)
20.11.2024 17:22 20,9 °C 3,3 °C 55 % 85 % 998,3 hPa 0,0 l/m² 10,7 km/h (2 Bft) S-SW 211 ° 0 min 0 W/m² 1,0 °C -0,3 °C 16,1 km/h (3 Bft)
20.11.2024 17:23 20,9 °C 3,3 °C 55 % 85 % 998,2 hPa 0,0 l/m² 12,5 km/h (2 Bft) SW 224 ° 0 min 0 W/m² 1,0 °C -1,5 °C 19,3 km/h (3 Bft)
20.11.2024 17:24 20,9 °C 3,3 °C 55 % 85 % 998,2 hPa 0,0 l/m² 12,0 km/h (2 Bft) SW 215 ° 0 min 0 W/m² 1,0 °C -1,2 °C 17,7 km/h (3 Bft)
20.11.2024 17:25 20,9 °C 3,3 °C 55 % 85 % 998,2 hPa 0,0 l/m² 12,8 km/h (3 Bft) SW 222 ° 0 min 0 W/m² 1,0 °C -1,7 °C 17,7 km/h (3 Bft)
20.11.2024 17:26 20,9 °C 3,3 °C 55 % 85 % 998,2 hPa 0,0 l/m² 11,0 km/h (2 Bft) SW 222 ° 0 min 0 W/m² 1,0 °C -0,5 °C 17,7 km/h (3 Bft)
20.11.2024 17:27 20,9 °C 3,3 °C 55 % 85 % 998,2 hPa 0,0 l/m² 14,3 km/h (3 Bft) SW 219 ° 0 min 0 W/m² 1,0 °C -2,6 °C 24,1 km/h (4 Bft)
20.11.2024 17:28 20,9 °C 3,4 °C 55 % 85 % 998,2 hPa 0,0 l/m² 11,6 km/h (2 Bft) SW 217 ° 0 min 0 W/m² 1,1 °C -0,8 °C 16,1 km/h (3 Bft)
20.11.2024 17:29 20,9 °C 3,4 °C 55 % 85 % 998,1 hPa 0,0 l/m² 10,9 km/h (2 Bft) SW 226 ° 0 min 0 W/m² 1,1 °C -0,3 °C 14,5 km/h (3 Bft)
20.11.2024 17:30 20,9 °C 3,3 °C 55 % 85 % 998,2 hPa 0,0 l/m² 12,0 km/h (2 Bft) SW 219 ° 0 min 0 W/m² 1,0 °C -1,2 °C 17,7 km/h (3 Bft)
20.11.2024 17:31 20,9 °C 3,4 °C 55 % 85 % 998,2 hPa 0,0 l/m² 14,7 km/h (3 Bft) SW 221 ° 0 min 0 W/m² 1,1 °C -2,7 °C 20,9 km/h (4 Bft)
20.11.2024 17:32 20,9 °C 3,4 °C 55 % 85 % 998,2 hPa 0,0 l/m² 10,8 km/h (2 Bft) SW 229 ° 0 min 0 W/m² 1,1 °C -0,3 °C 14,5 km/h (3 Bft)
20.11.2024 17:33 20,9 °C 3,3 °C 55 % 85 % 998,1 hPa 0,0 l/m² 16,7 km/h (3 Bft) SW 220 ° 0 min 0 W/m² 1,0 °C -3,9 °C 20,9 km/h (4 Bft)
20.11.2024 17:34 20,9 °C 3,3 °C 55 % 85 % 998,1 hPa 0,0 l/m² 16,1 km/h (3 Bft) SW 214 ° 0 min 0 W/m² 1,0 °C -3,6 °C 22,5 km/h (4 Bft)
20.11.2024 17:35 20,9 °C 3,4 °C 55 % 85 % 998,1 hPa 0,0 l/m² 13,5 km/h (3 Bft) SW 215 ° 0 min 0 W/m² 1,1 °C -2,0 °C 17,7 km/h (3 Bft)
20.11.2024 17:36 20,9 °C 3,4 °C 55 % 85 % 998,2 hPa 0,0 l/m² 12,1 km/h (2 Bft) W-SW 249 ° 0 min 0 W/m² 1,1 °C -1,2 °C 16,1 km/h (3 Bft)
20.11.2024 17:37 20,9 °C 3,4 °C 55 % 85 % 998,2 hPa 0,0 l/m² 11,1 km/h (2 Bft) SW 231 ° 0 min 0 W/m² 1,1 °C -0,5 °C 16,1 km/h (3 Bft)
20.11.2024 17:38 20,9 °C 3,4 °C 55 % 85 % 998,2 hPa 0,0 l/m² 15,4 km/h (3 Bft) SW 233 ° 0 min 0 W/m² 1,1 °C -3,1 °C 19,3 km/h (3 Bft)
20.11.2024 17:39 20,9 °C 3,4 °C 54 % 85 % 998,2 hPa 0,0 l/m² 11,8 km/h (2 Bft) SW 214 ° 0 min 0 W/m² 1,1 °C -1,0 °C 16,1 km/h (3 Bft)
20.11.2024 17:40 20,9 °C 3,4 °C 53 % 85 % 998,2 hPa 0,0 l/m² 11,2 km/h (2 Bft) SW 229 ° 0 min 0 W/m² 1,1 °C -0,6 °C 19,3 km/h (3 Bft)
20.11.2024 17:41 20,9 °C 3,4 °C 52 % 85 % 998,2 hPa 0,0 l/m² 14,1 km/h (3 Bft) SW 233 ° 0 min 0 W/m² 1,1 °C -2,4 °C 19,3 km/h (3 Bft)
20.11.2024 17:42 20,9 °C 3,4 °C 52 % 85 % 998,3 hPa 0,0 l/m² 13,0 km/h (3 Bft) SW 215 ° 0 min 0 W/m² 1,1 °C -1,7 °C 16,1 km/h (3 Bft)
20.11.2024 17:43 20,9 °C 3,4 °C 53 % 85 % 998,3 hPa 0,0 l/m² 13,5 km/h (3 Bft) SW 216 ° 0 min 0 W/m² 1,1 °C -2,0 °C 17,7 km/h (3 Bft)
20.11.2024 17:44 20,9 °C 3,4 °C 53 % 85 % 998,3 hPa 0,0 l/m² 16,6 km/h (3 Bft) SW 230 ° 0 min 0 W/m² 1,1 °C -3,7 °C 20,9 km/h (4 Bft)
20.11.2024 17:45 20,9 °C 3,4 °C 53 % 85 % 998,3 hPa 0,0 l/m² 18,6 km/h (3 Bft) SW 221 ° 0 min 0 W/m² 1,1 °C -4,6 °C 20,9 km/h (4 Bft)
20.11.2024 17:46 20,9 °C 3,5 °C 53 % 85 % 998,3 hPa 0,0 l/m² 20,9 km/h (4 Bft) S-SW 207 ° 0 min 0 W/m² 1,2 °C -5,5 °C 29,0 km/h (5 Bft)
20.11.2024 17:47 20,9 °C 3,4 °C 53 % 85 % 998,3 hPa 0,0 l/m² 19,6 km/h (3 Bft) S-SW 213 ° 0 min 0 W/m² 1,1 °C -5,1 °C 24,1 km/h (4 Bft)
20.11.2024 17:48 20,9 °C 3,4 °C 53 % 85 % 998,4 hPa 0,0 l/m² 19,0 km/h (3 Bft) SW 219 ° 0 min 0 W/m² 1,1 °C -4,8 °C 24,1 km/h (4 Bft)
20.11.2024 17:49 20,8 °C 3,4 °C 53 % 85 % 998,4 hPa 0,0 l/m² 20,5 km/h (4 Bft) SW 214 ° 0 min 0 W/m² 1,1 °C -5,4 °C 27,4 km/h (5 Bft)
20.11.2024 17:50 20,9 °C 3,4 °C 53 % 85 % 998,5 hPa 0,0 l/m² 18,2 km/h (3 Bft) S-SW 211 ° 0 min 0 W/m² 1,1 °C -4,5 °C 25,7 km/h (4 Bft)
20.11.2024 17:51 20,8 °C 3,4 °C 53 % 85 % 998,5 hPa 0,0 l/m² 17,8 km/h (3 Bft) SW 215 ° 0 min 0 W/m² 1,1 °C -4,3 °C 24,1 km/h (4 Bft)
20.11.2024 17:53 20,8 °C 3,4 °C 53 % 85 % 998,4 hPa 0,0 l/m² 16,7 km/h (3 Bft) SW 221 ° 0 min 0 W/m² 1,1 °C -3,7 °C 22,5 km/h (4 Bft)
20.11.2024 17:54 20,8 °C 3,4 °C 53 % 86 % 998,4 hPa 0,0 l/m² 14,0 km/h (3 Bft) SW 219 ° 0 min 0 W/m² 1,3 °C -2,3 °C 16,1 km/h (3 Bft)
20.11.2024 17:55 20,8 °C 3,4 °C 53 % 86 % 998,3 hPa 0,0 l/m² 11,2 km/h (2 Bft) SW 231 ° 0 min 0 W/m² 1,3 °C -0,6 °C 12,9 km/h (3 Bft)
20.11.2024 17:56 20,8 °C 3,4 °C 53 % 86 % 998,3 hPa 0,0 l/m² 12,1 km/h (2 Bft) SW 217 ° 0 min 0 W/m² 1,3 °C -1,2 °C 14,5 km/h (3 Bft)
20.11.2024 17:57 20,8 °C 3,4 °C 53 % 86 % 998,3 hPa 0,0 l/m² 12,5 km/h (2 Bft) SW 214 ° 0 min 0 W/m² 1,3 °C -1,4 °C 16,1 km/h (3 Bft)
20.11.2024 17:58 20,8 °C 3,4 °C 53 % 86 % 998,4 hPa 0,0 l/m² 14,8 km/h (3 Bft) S-SW 209 ° 0 min 0 W/m² 1,3 °C -2,8 °C 19,3 km/h (3 Bft)
20.11.2024 17:59 20,8 °C 3,4 °C 53 % 86 % 998,3 hPa 0,0 l/m² 17,1 km/h (3 Bft) S-SW 207 ° 0 min 0 W/m² 1,3 °C -3,9 °C 22,5 km/h (4 Bft)
20.11.2024 18:00 20,8 °C 3,4 °C 53 % 86 % 998,4 hPa 0,0 l/m² 19,3 km/h (3 Bft) S-SW 211 ° 0 min 0 W/m² 1,3 °C -4,9 °C 24,1 km/h (4 Bft)
20.11.2024 18:01 20,8 °C 3,3 °C 53 % 86 % 998,3 hPa 0,0 l/m² 16,6 km/h (3 Bft) S-SW 209 ° 0 min 0 W/m² 1,2 °C -3,8 °C 19,3 km/h (3 Bft)
20.11.2024 18:02 20,8 °C 3,3 °C 54 % 86 % 998,3 hPa 0,0 l/m² 15,2 km/h (3 Bft) S-SW 203 ° 0 min 0 W/m² 1,2 °C -3,1 °C 19,3 km/h (3 Bft)
20.11.2024 18:03 20,8 °C 3,3 °C 54 % 86 % 998,3 hPa 0,0 l/m² 15,3 km/h (3 Bft) SW 215 ° 0 min 0 W/m² 1,2 °C -3,1 °C 17,7 km/h (3 Bft)
20.11.2024 18:04 20,8 °C 3,3 °C 54 % 86 % 998,3 hPa 0,0 l/m² 17,1 km/h (3 Bft) S-SW 205 ° 0 min 0 W/m² 1,2 °C -4,1 °C 20,9 km/h (4 Bft)
20.11.2024 18:06 20,8 °C 3,3 °C 54 % 86 % 998,3 hPa 0,0 l/m² 15,3 km/h (3 Bft) SW 219 ° 0 min 0 W/m² 1,2 °C -3,1 °C 19,3 km/h (3 Bft)
20.11.2024 18:07 20,8 °C 3,3 °C 54 % 86 % 998,3 hPa 0,0 l/m² 14,6 km/h (3 Bft) S-SW 209 ° 0 min 0 W/m² 1,2 °C -2,8 °C 17,7 km/h (3 Bft)
20.11.2024 18:08 20,8 °C 3,3 °C 54 % 86 % 998,4 hPa 0,0 l/m² 16,0 km/h (3 Bft) SW 218 ° 0 min 0 W/m² 1,2 °C -3,5 °C 20,9 km/h (4 Bft)
20.11.2024 18:09 20,8 °C 3,3 °C 54 % 86 % 998,3 hPa 0,0 l/m² 15,2 km/h (3 Bft) S-SW 195 ° 0 min 0 W/m² 1,2 °C -3,1 °C 20,9 km/h (4 Bft)
20.11.2024 18:10 20,8 °C 3,3 °C 54 % 86 % 998,4 hPa 0,0 l/m² 14,1 km/h (3 Bft) W-SW 244 ° 0 min 0 W/m² 1,2 °C -2,5 °C 19,3 km/h (3 Bft)
20.11.2024 18:11 20,8 °C 3,3 °C 54 % 86 % 998,4 hPa 0,0 l/m² 14,8 km/h (3 Bft) SW 219 ° 0 min 0 W/m² 1,2 °C -2,9 °C 20,9 km/h (4 Bft)
20.11.2024 18:12 20,8 °C 3,3 °C 54 % 86 % 998,4 hPa 0,0 l/m² 17,1 km/h (3 Bft) SW 215 ° 0 min 0 W/m² 1,2 °C -4,1 °C 20,9 km/h (4 Bft)
20.11.2024 18:13 20,8 °C 3,3 °C 54 % 86 % 998,3 hPa 0,0 l/m² 16,2 km/h (3 Bft) S-SW 211 ° 0 min 0 W/m² 1,2 °C -3,6 °C 22,5 km/h (4 Bft)
20.11.2024 18:14 20,8 °C 3,2 °C 54 % 86 % 998,4 hPa 0,0 l/m² 15,0 km/h (3 Bft) W-SW 241 ° 0 min 0 W/m² 1,1 °C -3,1 °C 19,3 km/h (3 Bft)
20.11.2024 18:15 20,8 °C 3,2 °C 54 % 86 % 998,4 hPa 0,0 l/m² 12,2 km/h (2 Bft) S-SW 213 ° 0 min 0 W/m² 1,1 °C -1,4 °C 16,1 km/h (3 Bft)
20.11.2024 18:16 20,8 °C 3,2 °C 54 % 86 % 998,3 hPa 0,0 l/m² 13,4 km/h (3 Bft) S 184 ° 0 min 0 W/m² 1,1 °C -2,2 °C 16,1 km/h (3 Bft)
20.11.2024 18:17 20,8 °C 3,2 °C 54 % 86 % 998,3 hPa 0,0 l/m² 18,5 km/h (3 Bft) S-SW 211 ° 0 min 0 W/m² 1,1 °C -4,8 °C 22,5 km/h (4 Bft)
20.11.2024 18:18 20,8 °C 3,2 °C 54 % 87 % 998,3 hPa 0,0 l/m² 19,9 km/h (4 Bft) SW 218 ° 0 min 0 W/m² 1,2 °C -5,5 °C 24,1 km/h (4 Bft)
20.11.2024 18:19 20,8 °C 3,2 °C 54 % 87 % 998,3 hPa 0,0 l/m² 19,2 km/h (3 Bft) SW 216 ° 0 min 0 W/m² 1,2 °C -5,2 °C 24,1 km/h (4 Bft)
20.11.2024 18:20 20,8 °C 3,2 °C 54 % 87 % 998,3 hPa 0,0 l/m² 15,1 km/h (3 Bft) S-SW 197 ° 0 min 0 W/m² 1,2 °C -3,2 °C 17,7 km/h (3 Bft)
20.11.2024 18:21 20,8 °C 3,1 °C 54 % 87 % 998,4 hPa 0,0 l/m² 20,3 km/h (4 Bft) S-SW 197 ° 0 min 0 W/m² 1,2 °C -5,8 °C 25,7 km/h (4 Bft)
20.11.2024 18:22 20,8 °C 3,1 °C 54 % 87 % 998,1 hPa 0,0 l/m² 19,9 km/h (4 Bft) S-SW 206 ° 0 min 0 W/m² 1,2 °C -5,6 °C 29,0 km/h (5 Bft)
20.11.2024 18:23 20,8 °C 3,1 °C 54 % 87 % 998,1 hPa 0,0 l/m² 17,8 km/h (3 Bft) S-SW 213 ° 0 min 0 W/m² 1,2 °C -4,6 °C 22,5 km/h (4 Bft)
20.11.2024 18:24 20,8 °C 3,1 °C 54 % 87 % 998,1 hPa 0,0 l/m² 21,6 km/h (4 Bft) S-SW 212 ° 0 min 0 W/m² 1,2 °C -6,3 °C 27,4 km/h (5 Bft)
20.11.2024 18:25 20,8 °C 3,1 °C 54 % 87 % 998,1 hPa 0,0 l/m² 23,9 km/h (4 Bft) SW 230 ° 0 min 0 W/m² 1,2 °C -7,1 °C 30,6 km/h (5 Bft)
20.11.2024 18:26 20,8 °C 3,1 °C 54 % 87 % 998,1 hPa 0,0 l/m² 18,2 km/h (3 Bft) S-SW 211 ° 0 min 0 W/m² 1,2 °C -4,8 °C 24,1 km/h (4 Bft)
20.11.2024 18:27 20,8 °C 3,1 °C 54 % 87 % 998,2 hPa 0,0 l/m² 17,0 km/h (3 Bft) SW 217 ° 0 min 0 W/m² 1,2 °C -4,3 °C 20,9 km/h (4 Bft)
20.11.2024 18:28 20,8 °C 3,1 °C 54 % 87 % 998,2 hPa 0,0 l/m² 20,5 km/h (4 Bft) S-SW 209 ° 0 min 0 W/m² 1,2 °C -5,8 °C 30,6 km/h (5 Bft)
20.11.2024 18:29 20,8 °C 3,1 °C 54 % 87 % 998,2 hPa 0,0 l/m² 19,6 km/h (3 Bft) SW 219 ° 0 min 0 W/m² 1,2 °C -5,5 °C 24,1 km/h (4 Bft)
20.11.2024 18:30 20,8 °C 3,1 °C 54 % 87 % 998,2 hPa 0,0 l/m² 19,0 km/h (3 Bft) SW 217 ° 0 min 0 W/m² 1,2 °C -5,2 °C 25,7 km/h (4 Bft)
20.11.2024 18:31 20,8 °C 3,1 °C 54 % 87 % 998,2 hPa 0,0 l/m² 25,2 km/h (4 Bft) S-SW 211 ° 0 min 0 W/m² 1,2 °C -7,6 °C 29,0 km/h (5 Bft)
20.11.2024 18:32 20,8 °C 3,1 °C 54 % 87 % 998,2 hPa 0,0 l/m² 25,4 km/h (4 Bft) S-SW 205 ° 0 min 0 W/m² 1,2 °C -7,7 °C 30,6 km/h (5 Bft)
20.11.2024 18:33 20,8 °C 3,1 °C 54 % 87 % 998,2 hPa 0,0 l/m² 20,4 km/h (4 Bft) SW 226 ° 0 min 0 W/m² 1,2 °C -5,8 °C 24,1 km/h (4 Bft)
20.11.2024 18:34 20,8 °C 3,1 °C 54 % 88 % 998,2 hPa 0,0 l/m² 20,3 km/h (4 Bft) SW 217 ° 0 min 0 W/m² 1,3 °C -5,8 °C 27,4 km/h (5 Bft)
20.11.2024 18:35 20,8 °C 3,0 °C 54 % 88 % 998,2 hPa 0,0 l/m² 22,9 km/h (4 Bft) SW 215 ° 0 min 0 W/m² 1,2 °C -6,9 °C 32,2 km/h (5 Bft)
20.11.2024 18:36 20,8 °C 3,0 °C 55 % 88 % 998,3 hPa 0,0 l/m² 21,5 km/h (4 Bft) SW 219 ° 0 min 0 W/m² 1,2 °C -6,4 °C 27,4 km/h (5 Bft)
20.11.2024 18:37 20,8 °C 3,1 °C 55 % 88 % 998,2 hPa 0,0 l/m² 17,1 km/h (3 Bft) S-SW 205 ° 0 min 0 W/m² 1,3 °C -4,3 °C 20,9 km/h (4 Bft)
20.11.2024 18:38 20,8 °C 3,0 °C 55 % 88 % 998,2 hPa 0,0 l/m² 16,4 km/h (3 Bft) SW 224 ° 0 min 0 W/m² 1,2 °C -4,1 °C 20,9 km/h (4 Bft)
20.11.2024 18:39 20,8 °C 3,0 °C 55 % 88 % 998,2 hPa 0,0 l/m² 20,9 km/h (4 Bft) SW 226 ° 0 min 0 W/m² 1,2 °C -6,1 °C 25,7 km/h (4 Bft)
20.11.2024 18:40 20,8 °C 3,0 °C 55 % 88 % 998,2 hPa 0,0 l/m² 19,1 km/h (3 Bft) SW 214 ° 0 min 0 W/m² 1,2 °C -5,4 °C 22,5 km/h (4 Bft)
20.11.2024 18:41 20,8 °C 3,0 °C 55 % 88 % 998,2 hPa 0,0 l/m² 18,4 km/h (3 Bft) S-SW 205 ° 0 min 0 W/m² 1,2 °C -5,1 °C 20,9 km/h (4 Bft)
20.11.2024 18:42 20,8 °C 3,0 °C 55 % 88 % 998,3 hPa 0,0 l/m² 21,3 km/h (4 Bft) S-SW 210 ° 0 min 0 W/m² 1,2 °C -6,3 °C 25,7 km/h (4 Bft)
20.11.2024 18:43 20,8 °C 3,0 °C 55 % 88 % 998,2 hPa 0,0 l/m² 18,8 km/h (3 Bft) S-SW 198 ° 0 min 0 W/m² 1,2 °C -5,2 °C 25,7 km/h (4 Bft)
20.11.2024 18:44 20,8 °C 3,0 °C 55 % 88 % 998,2 hPa 0,0 l/m² 16,7 km/h (3 Bft) SW 215 ° 0 min 0 W/m² 1,2 °C -4,2 °C 20,9 km/h (4 Bft)
20.11.2024 18:46 20,8 °C 2,9 °C 55 % 88 % 998,3 hPa 0,0 l/m² 16,9 km/h (3 Bft) S-SW 213 ° 0 min 0 W/m² 1,1 °C -4,5 °C 24,1 km/h (4 Bft)
20.11.2024 18:47 20,8 °C 2,9 °C 55 % 88 % 998,2 hPa 0,0 l/m² 15,4 km/h (3 Bft) S-SW 209 ° 0 min 0 W/m² 1,1 °C -3,7 °C 20,9 km/h (4 Bft)
20.11.2024 18:48 20,8 °C 2,9 °C 55 % 88 % 998,2 hPa 0,0 l/m² 16,3 km/h (3 Bft) S-SW 212 ° 0 min 0 W/m² 1,1 °C -4,2 °C 22,5 km/h (4 Bft)
20.11.2024 18:49 20,8 °C 2,9 °C 55 % 88 % 998,2 hPa 0,0 l/m² 17,4 km/h (3 Bft) S-SW 192 ° 0 min 0 W/m² 1,1 °C -4,7 °C 24,1 km/h (4 Bft)
20.11.2024 18:50 20,8 °C 2,9 °C 55 % 88 % 998,2 hPa 0,0 l/m² 16,4 km/h (3 Bft) S-SW 209 ° 0 min 0 W/m² 1,1 °C -4,2 °C 20,9 km/h (4 Bft)
20.11.2024 18:51 20,8 °C 2,9 °C 55 % 88 % 998,1 hPa 0,0 l/m² 13,6 km/h (3 Bft) S-SW 209 ° 0 min 0 W/m² 1,1 °C -2,7 °C 17,7 km/h (3 Bft)
20.11.2024 18:52 20,8 °C 2,9 °C 55 % 89 % 998,1 hPa 0,0 l/m² 12,8 km/h (3 Bft) S 191 ° 0 min 0 W/m² 1,3 °C -2,2 °C 16,1 km/h (3 Bft)
20.11.2024 18:53 20,8 °C 2,9 °C 55 % 88 % 998,1 hPa 0,0 l/m² 15,2 km/h (3 Bft) S-SW 205 ° 0 min 0 W/m² 1,1 °C -3,6 °C 22,5 km/h (4 Bft)
20.11.2024 18:54 20,8 °C 2,9 °C 55 % 89 % 998,1 hPa 0,0 l/m² 18,2 km/h (3 Bft) S-SW 199 ° 0 min 0 W/m² 1,3 °C -5,1 °C 22,5 km/h (4 Bft)
20.11.2024 18:55 20,8 °C 2,9 °C 55 % 89 % 998,1 hPa 0,0 l/m² 17,4 km/h (3 Bft) S-SW 199 ° 0 min 0 W/m² 1,3 °C -4,7 °C 20,9 km/h (4 Bft)
20.11.2024 18:56 20,8 °C 2,9 °C 55 % 89 % 998,1 hPa 0,0 l/m² 14,9 km/h (3 Bft) S-SW 213 ° 0 min 0 W/m² 1,3 °C -3,4 °C 19,3 km/h (3 Bft)
20.11.2024 18:57 20,8 °C 2,9 °C 55 % 89 % 998,1 hPa 0,0 l/m² 16,2 km/h (3 Bft) S-SW 201 ° 0 min 0 W/m² 1,3 °C -4,1 °C 22,5 km/h (4 Bft)
20.11.2024 18:58 20,8 °C 2,9 °C 55 % 89 % 998,0 hPa 0,0 l/m² 16,0 km/h (3 Bft) SW 218 ° 0 min 0 W/m² 1,3 °C -4,0 °C 20,9 km/h (4 Bft)
20.11.2024 18:59 20,8 °C 2,9 °C 55 % 89 % 998,1 hPa 0,0 l/m² 16,8 km/h (3 Bft) S-SW 198 ° 0 min 0 W/m² 1,3 °C -4,4 °C 20,9 km/h (4 Bft)
20.11.2024 19:00 20,8 °C 2,9 °C 55 % 89 % 998,1 hPa 0,0 l/m² 14,8 km/h (3 Bft) S-SW 209 ° 0 min 0 W/m² 1,3 °C -3,4 °C 20,9 km/h (4 Bft)
20.11.2024 19:01 20,8 °C 2,9 °C 55 % 89 % 998,1 hPa 0,0 l/m² 15,9 km/h (3 Bft) SW 219 ° 0 min 0 W/m² 1,3 °C -4,0 °C 19,3 km/h (3 Bft)
20.11.2024 19:02 20,8 °C 2,9 °C 55 % 89 % 998,1 hPa 0,0 l/m² 13,7 km/h (3 Bft) S-SW 211 ° 0 min 0 W/m² 1,3 °C -2,7 °C 17,7 km/h (3 Bft)
20.11.2024 19:03 20,8 °C 2,9 °C 55 % 89 % 998,1 hPa 0,0 l/m² 13,1 km/h (3 Bft) SW 216 ° 0 min 0 W/m² 1,3 °C -2,4 °C 19,3 km/h (3 Bft)
20.11.2024 19:04 20,8 °C 2,9 °C 55 % 89 % 998,1 hPa 0,0 l/m² 13,9 km/h (3 Bft) S-SW 211 ° 0 min 0 W/m² 1,3 °C -2,8 °C 16,1 km/h (3 Bft)
20.11.2024 19:05 20,8 °C 2,9 °C 55 % 89 % 998,1 hPa 0,0 l/m² 12,5 km/h (2 Bft) S-SW 212 ° 0 min 0 W/m² 1,3 °C -2,0 °C 17,7 km/h (3 Bft)
20.11.2024 19:06 20,8 °C 2,9 °C 55 % 89 % 998,1 hPa 0,0 l/m² 16,4 km/h (3 Bft) S-SW 198 ° 0 min 0 W/m² 1,3 °C -4,2 °C 20,9 km/h (4 Bft)
20.11.2024 19:07 20,8 °C 2,9 °C 55 % 89 % 998,0 hPa 0,0 l/m² 16,0 km/h (3 Bft) SW 224 ° 0 min 0 W/m² 1,3 °C -4,0 °C 19,3 km/h (3 Bft)
20.11.2024 19:08 20,8 °C 2,9 °C 55 % 89 % 998,0 hPa 0,0 l/m² 15,0 km/h (3 Bft) SW 214 ° 0 min 0 W/m² 1,3 °C -3,5 °C 20,9 km/h (4 Bft)
20.11.2024 19:09 20,8 °C 2,9 °C 55 % 89 % 998,0 hPa 0,0 l/m² 17,5 km/h (3 Bft) S-SW 212 ° 0 min 0 W/m² 1,3 °C -4,8 °C 20,9 km/h (4 Bft)
20.11.2024 19:10 20,8 °C 2,9 °C 55 % 89 % 998,0 hPa 0,0 l/m² 18,2 km/h (3 Bft) S-SW 209 ° 0 min 0 W/m² 1,3 °C -5,1 °C 22,5 km/h (4 Bft)
20.11.2024 19:11 20,8 °C 2,9 °C 55 % 89 % 998,1 hPa 0,0 l/m² 21,5 km/h (4 Bft) SW 217 ° 0 min 0 W/m² 1,3 °C -6,5 °C 25,7 km/h (4 Bft)
20.11.2024 19:12 20,8 °C 2,9 °C 55 % 89 % 998,0 hPa 0,0 l/m² 20,2 km/h (4 Bft) S-SW 202 ° 0 min 0 W/m² 1,3 °C -6,0 °C 25,7 km/h (4 Bft)
20.11.2024 19:13 20,8 °C 2,9 °C 55 % 89 % 998,1 hPa 0,0 l/m² 17,3 km/h (3 Bft) S-SW 207 ° 0 min 0 W/m² 1,3 °C -4,7 °C 22,5 km/h (4 Bft)
20.11.2024 19:14 20,8 °C 2,9 °C 55 % 89 % 998,1 hPa 0,0 l/m² 17,8 km/h (3 Bft) S-SW 202 ° 0 min 0 W/m² 1,3 °C -4,9 °C 22,5 km/h (4 Bft)
20.11.2024 19:15 20,8 °C 3,0 °C 55 % 89 % 998,4 hPa 0,0 l/m² 20,0 km/h (4 Bft) SW 217 ° 0 min 0 W/m² 1,4 °C -5,8 °C 29,0 km/h (5 Bft)
20.11.2024 19:16 20,8 °C 2,9 °C 54 % 89 % 998,4 hPa 0,0 l/m² 19,5 km/h (3 Bft) S-SW 213 ° 0 min 0 W/m² 1,3 °C -5,7 °C 24,1 km/h (4 Bft)
20.11.2024 19:17 20,8 °C 2,9 °C 53 % 89 % 998,3 hPa 0,0 l/m² 20,7 km/h (4 Bft) S-SW 213 ° 0 min 0 W/m² 1,3 °C -6,2 °C 27,4 km/h (5 Bft)
20.11.2024 19:18 20,7 °C 2,9 °C 52 % 89 % 998,1 hPa 0,0 l/m² 20,6 km/h (4 Bft) S-SW 203 ° 0 min 0 W/m² 1,3 °C -6,1 °C 22,5 km/h (4 Bft)
20.11.2024 19:19 20,7 °C 3,0 °C 51 % 89 % 998,2 hPa 0,0 l/m² 17,4 km/h (3 Bft) S-SW 207 ° 0 min 0 W/m² 1,4 °C -4,6 °C 22,5 km/h (4 Bft)
20.11.2024 19:20 20,7 °C 2,9 °C 51 % 89 % 998,1 hPa 0,0 l/m² 18,1 km/h (3 Bft) S-SW 199 ° 0 min 0 W/m² 1,3 °C -5,0 °C 22,5 km/h (4 Bft)
20.11.2024 19:21 20,7 °C 3,0 °C 51 % 89 % 998,1 hPa 0,0 l/m² 16,6 km/h (3 Bft) S-SW 208 ° 0 min 0 W/m² 1,4 °C -4,2 °C 22,5 km/h (4 Bft)
20.11.2024 19:22 20,7 °C 2,9 °C 51 % 89 % 998,2 hPa 0,0 l/m² 17,1 km/h (3 Bft) S-SW 207 ° 0 min 0 W/m² 1,3 °C -4,6 °C 20,9 km/h (4 Bft)
20.11.2024 19:23 20,7 °C 2,9 °C 51 % 89 % 998,1 hPa 0,0 l/m² 19,0 km/h (3 Bft) S-SW 200 ° 0 min 0 W/m² 1,3 °C -5,4 °C 22,5 km/h (4 Bft)
20.11.2024 19:24 20,7 °C 2,9 °C 52 % 89 % 998,1 hPa 0,0 l/m² 18,3 km/h (3 Bft) S-SW 204 ° 0 min 0 W/m² 1,3 °C -5,1 °C 24,1 km/h (4 Bft)
20.11.2024 19:25 20,7 °C 2,9 °C 52 % 89 % 998,1 hPa 0,0 l/m² 16,7 km/h (3 Bft) S-SW 199 ° 0 min 0 W/m² 1,3 °C -4,4 °C 22,5 km/h (4 Bft)
20.11.2024 19:26 20,7 °C 2,9 °C 52 % 89 % 998,2 hPa 0,0 l/m² 20,0 km/h (4 Bft) S-SW 199 ° 0 min 0 W/m² 1,3 °C -5,9 °C 27,4 km/h (5 Bft)
20.11.2024 19:27 20,7 °C 2,9 °C 52 % 89 % 998,2 hPa 0,0 l/m² 18,5 km/h (3 Bft) S-SW 209 ° 0 min 0 W/m² 1,3 °C -5,2 °C 22,5 km/h (4 Bft)
20.11.2024 19:28 20,7 °C 2,9 °C 52 % 89 % 998,2 hPa 0,0 l/m² 19,6 km/h (3 Bft) S-SW 213 ° 0 min 0 W/m² 1,3 °C -5,7 °C 24,1 km/h (4 Bft)
20.11.2024 19:29 20,7 °C 2,9 °C 52 % 89 % 998,2 hPa 0,0 l/m² 21,2 km/h (4 Bft) SW 220 ° 0 min 0 W/m² 1,3 °C -6,4 °C 27,4 km/h (5 Bft)
20.11.2024 19:30 20,7 °C 2,9 °C 52 % 89 % 998,2 hPa 0,0 l/m² 18,8 km/h (3 Bft) S-SW 203 ° 0 min 0 W/m² 1,3 °C -5,4 °C 24,1 km/h (4 Bft)
20.11.2024 19:31 20,7 °C 2,9 °C 53 % 89 % 998,2 hPa 0,0 l/m² 18,6 km/h (3 Bft) SW 215 ° 0 min 0 W/m² 1,3 °C -5,3 °C 24,1 km/h (4 Bft)
20.11.2024 19:32 20,7 °C 2,9 °C 53 % 89 % 998,3 hPa 0,0 l/m² 23,3 km/h (4 Bft) S-SW 210 ° 0 min 0 W/m² 1,3 °C -7,2 °C 27,4 km/h (5 Bft)
20.11.2024 19:33 20,7 °C 2,9 °C 53 % 89 % 998,3 hPa 0,0 l/m² 18,8 km/h (3 Bft) S-SW 204 ° 0 min 0 W/m² 1,3 °C -5,4 °C 24,1 km/h (4 Bft)
20.11.2024 19:34 20,7 °C 2,9 °C 53 % 89 % 998,2 hPa 0,0 l/m² 17,8 km/h (3 Bft) S-SW 206 ° 0 min 0 W/m² 1,3 °C -4,9 °C 24,1 km/h (4 Bft)
20.11.2024 19:35 20,7 °C 2,9 °C 53 % 89 % 998,2 hPa 0,0 l/m² 22,0 km/h (4 Bft) S-SW 211 ° 0 min 0 W/m² 1,3 °C -6,7 °C 27,4 km/h (5 Bft)
20.11.2024 19:36 20,7 °C 2,9 °C 54 % 89 % 998,3 hPa 0,0 l/m² 20,9 km/h (4 Bft) SW 228 ° 0 min 0 W/m² 1,3 °C -6,3 °C 27,4 km/h (5 Bft)
20.11.2024 19:37 20,7 °C 2,9 °C 54 % 89 % 998,2 hPa 0,0 l/m² 21,9 km/h (4 Bft) W-SW 254 ° 0 min 0 W/m² 1,3 °C -6,7 °C 27,4 km/h (5 Bft)
20.11.2024 19:38 20,7 °C 2,9 °C 54 % 89 % 998,3 hPa 0,0 l/m² 21,2 km/h (4 Bft) SW 219 ° 0 min 0 W/m² 1,3 °C -6,4 °C 24,1 km/h (4 Bft)
20.11.2024 19:39 20,7 °C 2,9 °C 54 % 89 % 998,3 hPa 0,0 l/m² 17,4 km/h (3 Bft) SW 217 ° 0 min 0 W/m² 1,3 °C -4,7 °C 22,5 km/h (4 Bft)
20.11.2024 19:40 20,7 °C 2,9 °C 54 % 89 % 998,3 hPa 0,0 l/m² 23,6 km/h (4 Bft) SW 217 ° 0 min 0 W/m² 1,3 °C -7,3 °C 29,0 km/h (5 Bft)
20.11.2024 19:41 20,7 °C 2,9 °C 54 % 89 % 998,3 hPa 0,0 l/m² 16,8 km/h (3 Bft) S-SW 209 ° 0 min 0 W/m² 1,3 °C -4,4 °C 22,5 km/h (4 Bft)
20.11.2024 19:42 20,7 °C 2,9 °C 55 % 89 % 998,2 hPa 0,0 l/m² 22,0 km/h (4 Bft) SW 216 ° 0 min 0 W/m² 1,3 °C -6,7 °C 27,4 km/h (5 Bft)
20.11.2024 19:43 20,7 °C 2,9 °C 55 % 89 % 998,3 hPa 0,0 l/m² 19,2 km/h (3 Bft) SW 220 ° 0 min 0 W/m² 1,3 °C -5,5 °C 24,1 km/h (4 Bft)
20.11.2024 19:44 20,7 °C 2,9 °C 55 % 89 % 998,3 hPa 0,0 l/m² 18,4 km/h (3 Bft) S-SW 209 ° 0 min 0 W/m² 1,3 °C -5,2 °C 22,5 km/h (4 Bft)
20.11.2024 19:45 20,7 °C 2,9 °C 55 % 89 % 998,4 hPa 0,0 l/m² 18,8 km/h (3 Bft) S-SW 207 ° 0 min 0 W/m² 1,3 °C -5,4 °C 22,5 km/h (4 Bft)
20.11.2024 19:46 20,7 °C 2,9 °C 55 % 89 % 998,3 hPa 0,0 l/m² 19,2 km/h (3 Bft) SW 219 ° 0 min 0 W/m² 1,3 °C -5,5 °C 25,7 km/h (4 Bft)
20.11.2024 19:47 20,8 °C 2,9 °C 55 % 89 % 998,3 hPa 0,0 l/m² 21,1 km/h (4 Bft) S-SW 202 ° 0 min 0 W/m² 1,3 °C -6,3 °C 27,4 km/h (5 Bft)
20.11.2024 19:48 20,8 °C 2,9 °C 55 % 89 % 998,3 hPa 0,0 l/m² 17,4 km/h (3 Bft) SW 223 ° 0 min 0 W/m² 1,3 °C -4,7 °C 24,1 km/h (4 Bft)
20.11.2024 19:49 20,8 °C 2,9 °C 55 % 89 % 998,3 hPa 0,0 l/m² 18,2 km/h (3 Bft) S-SW 213 ° 0 min 0 W/m² 1,3 °C -5,1 °C 22,5 km/h (4 Bft)
20.11.2024 19:50 20,8 °C 2,9 °C 55 % 89 % 998,3 hPa 0,0 l/m² 14,7 km/h (3 Bft) S-SW 213 ° 0 min 0 W/m² 1,3 °C -3,3 °C 17,7 km/h (3 Bft)
20.11.2024 19:51 20,8 °C 2,9 °C 55 % 89 % 998,4 hPa 0,0 l/m² 17,3 km/h (3 Bft) S-SW 208 ° 0 min 0 W/m² 1,3 °C -4,7 °C 25,7 km/h (4 Bft)
20.11.2024 19:52 20,8 °C 2,8 °C 56 % 89 % 998,3 hPa 0,0 l/m² 17,7 km/h (3 Bft) S-SW 209 ° 0 min 0 W/m² 1,2 °C -5,0 °C 25,7 km/h (4 Bft)
20.11.2024 19:53 20,8 °C 2,9 °C 56 % 89 % 998,3 hPa 0,0 l/m² 17,2 km/h (3 Bft) S-SW 213 ° 0 min 0 W/m² 1,3 °C -4,6 °C 20,9 km/h (4 Bft)
20.11.2024 19:54 20,8 °C 2,8 °C 56 % 89 % 998,3 hPa 0,0 l/m² 18,6 km/h (3 Bft) S-SW 213 ° 0 min 0 W/m² 1,2 °C -5,4 °C 24,1 km/h (4 Bft)
20.11.2024 19:55 20,8 °C 2,8 °C 56 % 89 % 998,3 hPa 0,0 l/m² 17,7 km/h (3 Bft) S-SW 209 ° 0 min 0 W/m² 1,2 °C -5,0 °C 20,9 km/h (4 Bft)
20.11.2024 19:56 20,8 °C 2,8 °C 56 % 89 % 998,3 hPa 0,0 l/m² 16,6 km/h (3 Bft) S-SW 200 ° 0 min 0 W/m² 1,2 °C -4,4 °C 22,5 km/h (4 Bft)
20.11.2024 19:57 20,8 °C 2,8 °C 56 % 89 % 998,3 hPa 0,0 l/m² 18,0 km/h (3 Bft) S-SW 206 ° 0 min 0 W/m² 1,2 °C -5,1 °C 24,1 km/h (4 Bft)
20.11.2024 19:58 20,8 °C 2,8 °C 56 % 89 % 998,3 hPa 0,0 l/m² 19,8 km/h (3 Bft) S-SW 213 ° 0 min 0 W/m² 1,2 °C -5,9 °C 24,1 km/h (4 Bft)
20.11.2024 19:59 20,8 °C 2,8 °C 57 % 89 % 998,2 hPa 0,0 l/m² 18,4 km/h (3 Bft) SW 217 ° 0 min 0 W/m² 1,2 °C -5,3 °C 24,1 km/h (4 Bft)
20.11.2024 20:00 20,8 °C 2,8 °C 57 % 89 % 998,2 hPa 0,0 l/m² 17,0 km/h (3 Bft) S-SW 205 ° 0 min 0 W/m² 1,2 °C -4,6 °C 20,9 km/h (4 Bft)
20.11.2024 20:01 20,8 °C 2,8 °C 57 % 89 % 998,2 hPa 0,0 l/m² 17,6 km/h (3 Bft) SW 217 ° 0 min 0 W/m² 1,2 °C -4,9 °C 22,5 km/h (4 Bft)
20.11.2024 20:02 20,8 °C 2,7 °C 57 % 89 % 998,2 hPa 0,0 l/m² 19,1 km/h (3 Bft) S-SW 207 ° 0 min 0 W/m² 1,1 °C -5,7 °C 24,1 km/h (4 Bft)
20.11.2024 20:03 20,8 °C 2,7 °C 57 % 89 % 998,2 hPa 0,0 l/m² 15,9 km/h (3 Bft) S-SW 213 ° 0 min 0 W/m² 1,1 °C -4,2 °C 20,9 km/h (4 Bft)
20.11.2024 20:04 20,8 °C 2,7 °C 57 % 89 % 998,2 hPa 0,0 l/m² 16,8 km/h (3 Bft) SW 221 ° 0 min 0 W/m² 1,1 °C -4,7 °C 20,9 km/h (4 Bft)
20.11.2024 20:05 20,8 °C 2,6 °C 57 % 89 % 998,3 hPa 0,0 l/m² 19,6 km/h (3 Bft) S-SW 198 ° 0 min 0 W/m² 1,0 °C -6,1 °C 25,7 km/h (4 Bft)
20.11.2024 20:06 20,9 °C 2,6 °C 57 % 89 % 998,3 hPa 0,0 l/m² 21,2 km/h (4 Bft) SW 220 ° 0 min 0 W/m² 1,0 °C -6,8 °C 27,4 km/h (5 Bft)
20.11.2024 20:07 20,8 °C 2,6 °C 57 % 89 % 998,3 hPa 0,0 l/m² 17,5 km/h (3 Bft) S-SW 212 ° 0 min 0 W/m² 1,0 °C -5,1 °C 25,7 km/h (4 Bft)
20.11.2024 20:08 20,8 °C 2,6 °C 57 % 89 % 998,3 hPa 0,0 l/m² 15,5 km/h (3 Bft) SW 219 ° 0 min 0 W/m² 1,0 °C -4,1 °C 19,3 km/h (3 Bft)
20.11.2024 20:09 20,8 °C 2,6 °C 58 % 89 % 998,3 hPa 0,0 l/m² 15,2 km/h (3 Bft) SW 223 ° 0 min 0 W/m² 1,0 °C -3,9 °C 19,3 km/h (3 Bft)
20.11.2024 20:10 20,8 °C 2,6 °C 58 % 89 % 998,2 hPa 0,0 l/m² 15,1 km/h (3 Bft) S-SW 204 ° 0 min 0 W/m² 1,0 °C -3,9 °C 19,3 km/h (3 Bft)
20.11.2024 20:11 20,8 °C 2,6 °C 58 % 89 % 998,3 hPa 0,0 l/m² 15,6 km/h (3 Bft) SW 229 ° 0 min 0 W/m² 1,0 °C -4,2 °C 20,9 km/h (4 Bft)
20.11.2024 20:12 20,8 °C 2,5 °C 58 % 89 % 998,3 hPa 0,0 l/m² 16,8 km/h (3 Bft) S-SW 213 ° 0 min 0 W/m² 0,9 °C -4,9 °C 19,3 km/h (3 Bft)
20.11.2024 20:13 20,9 °C 2,6 °C 58 % 89 % 998,3 hPa 0,0 l/m² 16,9 km/h (3 Bft) SW 223 ° 0 min 0 W/m² 1,0 °C -4,8 °C 20,9 km/h (4 Bft)
20.11.2024 20:14 20,9 °C 2,5 °C 58 % 89 % 998,3 hPa 0,0 l/m² 14,7 km/h (3 Bft) S-SW 207 ° 0 min 0 W/m² 0,9 °C -3,8 °C 17,7 km/h (3 Bft)
20.11.2024 20:15 20,8 °C 2,5 °C 58 % 89 % 998,3 hPa 0,0 l/m² 15,2 km/h (3 Bft) SW 214 ° 0 min 0 W/m² 0,9 °C -4,1 °C 17,7 km/h (3 Bft)
20.11.2024 20:16 20,8 °C 2,6 °C 58 % 89 % 998,4 hPa 0,0 l/m² 15,9 km/h (3 Bft) SW 229 ° 0 min 0 W/m² 1,0 °C -4,3 °C 19,3 km/h (3 Bft)
20.11.2024 20:17 20,8 °C 2,5 °C 58 % 89 % 998,3 hPa 0,0 l/m² 19,2 km/h (3 Bft) S-SW 211 ° 0 min 0 W/m² 0,9 °C -6,1 °C 25,7 km/h (4 Bft)
20.11.2024 20:18 20,8 °C 2,4 °C 58 % 89 % 998,3 hPa 0,0 l/m² 24,0 km/h (4 Bft) SW 221 ° 0 min 0 W/m² 0,8 °C -8,1 °C 27,4 km/h (5 Bft)
20.11.2024 20:19 20,8 °C 2,6 °C 57 % 89 % 998,4 hPa 0,0 l/m² 21,5 km/h (4 Bft) S-SW 207 ° 0 min 0 W/m² 1,0 °C -6,9 °C 25,7 km/h (4 Bft)
20.11.2024 20:20 20,8 °C 2,5 °C 57 % 89 % 998,3 hPa 0,0 l/m² 18,0 km/h (3 Bft) SW 229 ° 0 min 0 W/m² 0,9 °C -5,5 °C 24,1 km/h (4 Bft)
20.11.2024 20:21 20,8 °C 2,5 °C 57 % 89 % 998,3 hPa 0,0 l/m² 16,2 km/h (3 Bft) S-SW 211 ° 0 min 0 W/m² 0,9 °C -4,6 °C 20,9 km/h (4 Bft)
20.11.2024 20:22 20,8 °C 2,5 °C 57 % 89 % 998,4 hPa 0,0 l/m² 17,6 km/h (3 Bft) SW 214 ° 0 min 0 W/m² 0,9 °C -5,3 °C 24,1 km/h (4 Bft)
20.11.2024 20:23 20,8 °C 2,5 °C 57 % 89 % 998,4 hPa 0,0 l/m² 18,2 km/h (3 Bft) S-SW 211 ° 0 min 0 W/m² 0,9 °C -5,6 °C 20,9 km/h (4 Bft)
20.11.2024 20:24 20,8 °C 2,5 °C 58 % 89 % 998,4 hPa 0,0 l/m² 18,7 km/h (3 Bft) SW 218 ° 0 min 0 W/m² 0,9 °C -5,8 °C 22,5 km/h (4 Bft)
20.11.2024 20:25 20,8 °C 2,5 °C 58 % 89 % 998,4 hPa 0,0 l/m² 12,6 km/h (3 Bft) SW 228 ° 0 min 0 W/m² 0,9 °C -2,5 °C 19,3 km/h (3 Bft)
20.11.2024 20:26 20,8 °C 2,5 °C 58 % 89 % 998,3 hPa 0,0 l/m² 16,0 km/h (3 Bft) S-SW 212 ° 0 min 0 W/m² 0,9 °C -4,5 °C 20,9 km/h (4 Bft)
20.11.2024 20:27 20,8 °C 2,5 °C 58 % 89 % 998,3 hPa 0,0 l/m² 16,2 km/h (3 Bft) SW 214 ° 0 min 0 W/m² 0,9 °C -4,6 °C 22,5 km/h (4 Bft)
20.11.2024 20:28 20,8 °C 2,4 °C 58 % 88 % 998,3 hPa 0,0 l/m² 19,2 km/h (3 Bft) S-SW 207 ° 0 min 0 W/m² 0,6 °C -6,2 °C 22,5 km/h (4 Bft)
20.11.2024 20:29 20,8 °C 2,4 °C 59 % 89 % 998,3 hPa 0,0 l/m² 16,8 km/h (3 Bft) SW 223 ° 0 min 0 W/m² 0,8 °C -5,0 °C 22,5 km/h (4 Bft)
20.11.2024 20:30 20,8 °C 2,4 °C 59 % 89 % 998,4 hPa 0,0 l/m² 19,0 km/h (3 Bft) SW 214 ° 0 min 0 W/m² 0,8 °C -6,1 °C 22,5 km/h (4 Bft)
20.11.2024 20:31 20,9 °C 2,4 °C 59 % 89 % 998,3 hPa 0,0 l/m² 11,3 km/h (2 Bft) S-SW 212 ° 0 min 0 W/m² 0,8 °C -1,8 °C 17,7 km/h (3 Bft)
20.11.2024 20:32 20,8 °C 2,4 °C 59 % 89 % 998,4 hPa 0,0 l/m² 12,3 km/h (2 Bft) SW 221 ° 0 min 0 W/m² 0,8 °C -2,4 °C 19,3 km/h (3 Bft)
20.11.2024 20:33 20,9 °C 2,4 °C 59 % 89 % 998,3 hPa 0,0 l/m² 13,8 km/h (3 Bft) SW 219 ° 0 min 0 W/m² 0,8 °C -3,4 °C 16,1 km/h (3 Bft)
20.11.2024 20:34 20,9 °C 2,4 °C 59 % 88 % 998,3 hPa 0,0 l/m² 10,5 km/h (2 Bft) SW 223 ° 0 min 0 W/m² 0,6 °C -1,2 °C 12,9 km/h (3 Bft)
20.11.2024 20:35 20,9 °C 2,4 °C 59 % 88 % 998,3 hPa 0,0 l/m² 17,2 km/h (3 Bft) SW 232 ° 0 min 0 W/m² 0,6 °C -5,2 °C 20,9 km/h (4 Bft)
20.11.2024 20:36 20,9 °C 2,4 °C 59 % 88 % 998,3 hPa 0,0 l/m² 16,4 km/h (3 Bft) SW 229 ° 0 min 0 W/m² 0,6 °C -4,8 °C 20,9 km/h (4 Bft)
20.11.2024 20:37 20,9 °C 2,4 °C 59 % 88 % 998,3 hPa 0,0 l/m² 20,4 km/h (4 Bft) SW 222 ° 0 min 0 W/m² 0,6 °C -6,7 °C 27,4 km/h (5 Bft)
20.11.2024 20:38 20,9 °C 2,4 °C 59 % 88 % 998,4 hPa 0,0 l/m² 16,6 km/h (3 Bft) SW 226 ° 0 min 0 W/m² 0,6 °C -4,9 °C 22,5 km/h (4 Bft)
20.11.2024 20:39 20,9 °C 2,4 °C 59 % 88 % 998,3 hPa 0,0 l/m² 13,2 km/h (3 Bft) SW 219 ° 0 min 0 W/m² 0,6 °C -3,0 °C 17,7 km/h (3 Bft)
20.11.2024 20:40 20,9 °C 2,4 °C 59 % 88 % 998,2 hPa 0,0 l/m² 17,9 km/h (3 Bft) SW 225 ° 0 min 0 W/m² 0,6 °C -5,6 °C 22,5 km/h (4 Bft)
20.11.2024 20:41 20,9 °C 2,4 °C 59 % 88 % 998,2 hPa 0,0 l/m² 21,0 km/h (4 Bft) SW 223 ° 0 min 0 W/m² 0,6 °C -7,0 °C 27,4 km/h (5 Bft)
20.11.2024 20:42 20,9 °C 2,4 °C 59 % 88 % 998,3 hPa 0,0 l/m² 18,6 km/h (3 Bft) SW 215 ° 0 min 0 W/m² 0,6 °C -5,9 °C 24,1 km/h (4 Bft)
20.11.2024 20:43 20,9 °C 2,4 °C 59 % 88 % 998,3 hPa 0,0 l/m² 11,8 km/h (2 Bft) SW 231 ° 0 min 0 W/m² 0,6 °C -2,1 °C 16,1 km/h (3 Bft)
20.11.2024 20:44 20,9 °C 2,4 °C 59 % 88 % 998,3 hPa 0,0 l/m² 12,3 km/h (2 Bft) SW 217 ° 0 min 0 W/m² 0,6 °C -2,4 °C 19,3 km/h (3 Bft)
20.11.2024 20:45 20,9 °C 2,4 °C 59 % 88 % 998,3 hPa 0,0 l/m² 18,1 km/h (3 Bft) SW 218 ° 0 min 0 W/m² 0,6 °C -5,7 °C 24,1 km/h (4 Bft)
20.11.2024 20:46 20,9 °C 2,4 °C 59 % 88 % 998,3 hPa 0,0 l/m² 20,5 km/h (4 Bft) SW 232 ° 0 min 0 W/m² 0,6 °C -6,7 °C 24,1 km/h (4 Bft)
20.11.2024 20:47 20,9 °C 2,4 °C 59 % 88 % 998,3 hPa 0,0 l/m² 20,8 km/h (4 Bft) S-SW 213 ° 0 min 0 W/m² 0,6 °C -6,9 °C 27,4 km/h (5 Bft)
20.11.2024 20:48 20,9 °C 2,4 °C 59 % 88 % 998,4 hPa 0,0 l/m² 15,7 km/h (3 Bft) SW 228 ° 0 min 0 W/m² 0,6 °C -4,5 °C 22,5 km/h (4 Bft)
20.11.2024 20:49 20,9 °C 2,5 °C 59 % 88 % 998,4 hPa 0,0 l/m² 18,5 km/h (3 Bft) SW 215 ° 0 min 0 W/m² 0,7 °C -5,7 °C 27,4 km/h (5 Bft)
20.11.2024 20:50 20,9 °C 2,5 °C 59 % 88 % 998,4 hPa 0,0 l/m² 22,9 km/h (4 Bft) SW 231 ° 0 min 0 W/m² 0,7 °C -7,6 °C 30,6 km/h (5 Bft)
20.11.2024 20:51 20,9 °C 2,6 °C 59 % 88 % 998,4 hPa 0,0 l/m² 19,1 km/h (3 Bft) SW 224 ° 0 min 0 W/m² 0,8 °C -5,9 °C 32,2 km/h (5 Bft)
20.11.2024 20:52 20,9 °C 2,6 °C 59 % 88 % 998,4 hPa 0,0 l/m² 13,5 km/h (3 Bft) SW 219 ° 0 min 0 W/m² 0,8 °C -3,0 °C 19,3 km/h (3 Bft)
20.11.2024 20:53 20,9 °C 2,6 °C 59 % 88 % 998,4 hPa 0,0 l/m² 21,1 km/h (4 Bft) SW 228 ° 0 min 0 W/m² 0,8 °C -6,7 °C 27,4 km/h (5 Bft)
20.11.2024 20:54 20,9 °C 2,6 °C 59 % 88 % 998,4 hPa 0,0 l/m² 22,5 km/h (4 Bft) SW 222 ° 0 min 0 W/m² 0,8 °C -7,3 °C 27,4 km/h (5 Bft)
20.11.2024 20:55 20,9 °C 2,6 °C 59 % 88 % 998,3 hPa 0,0 l/m² 19,9 km/h (4 Bft) SW 224 ° 0 min 0 W/m² 0,8 °C -6,2 °C 27,4 km/h (5 Bft)
20.11.2024 20:56 20,9 °C 2,6 °C 59 % 88 % 998,3 hPa 0,0 l/m² 22,8 km/h (4 Bft) SW 226 ° 0 min 0 W/m² 0,8 °C -7,4 °C 25,7 km/h (4 Bft)
20.11.2024 20:57 20,9 °C 2,6 °C 59 % 88 % 998,4 hPa 0,0 l/m² 18,2 km/h (3 Bft) SW 223 ° 0 min 0 W/m² 0,8 °C -5,5 °C 25,7 km/h (4 Bft)
20.11.2024 20:58 20,9 °C 2,6 °C 59 % 88 % 998,4 hPa 0,0 l/m² 22,8 km/h (4 Bft) S-SW 207 ° 0 min 0 W/m² 0,8 °C -7,4 °C 30,6 km/h (5 Bft)
20.11.2024 20:59 20,9 °C 2,6 °C 59 % 88 % 998,3 hPa 0,0 l/m² 17,8 km/h (3 Bft) SW 215 ° 0 min 0 W/m² 0,8 °C -5,3 °C 24,1 km/h (4 Bft)
20.11.2024 21:00 20,9 °C 2,7 °C 59 % 88 % 998,4 hPa 0,0 l/m² 19,0 km/h (3 Bft) SW 223 ° 0 min 0 W/m² 0,9 °C -5,7 °C 25,7 km/h (4 Bft)
20.11.2024 21:01 21,0 °C 2,7 °C 60 % 88 % 998,3 hPa 0,0 l/m² 17,6 km/h (3 Bft) SW 219 ° 0 min 0 W/m² 0,9 °C -5,1 °C 22,5 km/h (4 Bft)
20.11.2024 21:02 20,9 °C 2,7 °C 60 % 88 % 998,3 hPa 0,0 l/m² 16,0 km/h (3 Bft) SW 217 ° 0 min 0 W/m² 0,9 °C -4,2 °C 20,9 km/h (4 Bft)
20.11.2024 21:03 21,0 °C 2,7 °C 60 % 88 % 998,3 hPa 0,0 l/m² 16,9 km/h (3 Bft) SW 224 ° 0 min 0 W/m² 0,9 °C -4,7 °C 22,5 km/h (4 Bft)
20.11.2024 21:04 21,0 °C 2,7 °C 60 % 88 % 998,3 hPa 0,0 l/m² 20,9 km/h (4 Bft) SW 224 ° 0 min 0 W/m² 0,9 °C -6,5 °C 25,7 km/h (4 Bft)
20.11.2024 21:05 21,0 °C 2,7 °C 60 % 88 % 998,4 hPa 0,0 l/m² 17,1 km/h (3 Bft) SW 221 ° 0 min 0 W/m² 0,9 °C -4,8 °C 20,9 km/h (4 Bft)
20.11.2024 21:06 21,0 °C 2,7 °C 60 % 88 % 998,3 hPa 0,0 l/m² 18,7 km/h (3 Bft) S-SW 213 ° 0 min 0 W/m² 0,9 °C -5,6 °C 24,1 km/h (4 Bft)
20.11.2024 21:07 21,0 °C 2,7 °C 60 % 88 % 998,4 hPa 0,0 l/m² 18,2 km/h (3 Bft) SW 236 ° 0 min 0 W/m² 0,9 °C -5,3 °C 25,7 km/h (4 Bft)
20.11.2024 21:08 21,0 °C 2,7 °C 60 % 88 % 998,4 hPa 0,0 l/m² 15,1 km/h (3 Bft) W-SW 244 ° 0 min 0 W/m² 0,9 °C -3,8 °C 22,5 km/h (4 Bft)
20.11.2024 21:09 21,0 °C 2,7 °C 60 % 88 % 998,4 hPa 0,0 l/m² 18,8 km/h (3 Bft) SW 214 ° 0 min 0 W/m² 0,9 °C -5,6 °C 24,1 km/h (4 Bft)
20.11.2024 21:10 21,0 °C 2,7 °C 60 % 88 % 998,5 hPa 0,0 l/m² 17,1 km/h (3 Bft) SW 221 ° 0 min 0 W/m² 0,9 °C -4,8 °C 24,1 km/h (4 Bft)
20.11.2024 21:11 21,0 °C 2,7 °C 60 % 88 % 998,4 hPa 0,0 l/m² 20,3 km/h (4 Bft) W-SW 239 ° 0 min 0 W/m² 0,9 °C -6,3 °C 29,0 km/h (5 Bft)
20.11.2024 21:12 21,0 °C 2,7 °C 60 % 88 % 998,4 hPa 0,0 l/m² 16,9 km/h (3 Bft) SW 231 ° 0 min 0 W/m² 0,9 °C -4,7 °C 25,7 km/h (4 Bft)
20.11.2024 21:13 21,0 °C 2,8 °C 61 % 88 % 998,5 hPa 0,0 l/m² 12,5 km/h (2 Bft) SW 218 ° 0 min 0 W/m² 1,0 °C -2,1 °C 19,3 km/h (3 Bft)
20.11.2024 21:14 21,1 °C 2,8 °C 61 % 88 % 998,5 hPa 0,0 l/m² 18,0 km/h (3 Bft) SW 223 ° 0 min 0 W/m² 1,0 °C -5,1 °C 22,5 km/h (4 Bft)
20.11.2024 21:15 21,0 °C 2,8 °C 61 % 88 % 998,6 hPa 0,0 l/m² 15,5 km/h (3 Bft) SW 216 ° 0 min 0 W/m² 1,0 °C -3,9 °C 19,3 km/h (3 Bft)
20.11.2024 21:16 21,1 °C 2,8 °C 61 % 88 % 998,5 hPa 0,0 l/m² 18,1 km/h (3 Bft) SW 224 ° 0 min 0 W/m² 1,0 °C -5,2 °C 24,1 km/h (4 Bft)
20.11.2024 21:17 21,1 °C 2,8 °C 61 % 88 % 998,5 hPa 0,0 l/m² 16,2 km/h (3 Bft) SW 214 ° 0 min 0 W/m² 1,0 °C -4,2 °C 22,5 km/h (4 Bft)
20.11.2024 21:18 21,1 °C 2,8 °C 61 % 88 % 998,5 hPa 0,0 l/m² 17,2 km/h (3 Bft) SW 233 ° 0 min 0 W/m² 1,0 °C -4,7 °C 22,5 km/h (4 Bft)
20.11.2024 21:19 21,0 °C 2,8 °C 61 % 88 % 998,5 hPa 0,0 l/m² 13,5 km/h (3 Bft) SW 217 ° 0 min 0 W/m² 1,0 °C -2,7 °C 19,3 km/h (3 Bft)
20.11.2024 21:20 21,0 °C 2,8 °C 61 % 88 % 998,6 hPa 0,0 l/m² 15,0 km/h (3 Bft) SW 234 ° 0 min 0 W/m² 1,0 °C -3,6 °C 20,9 km/h (4 Bft)
20.11.2024 21:21 21,1 °C 2,8 °C 61 % 88 % 998,6 hPa 0,0 l/m² 12,1 km/h (2 Bft) S-SW 204 ° 0 min 0 W/m² 1,0 °C -1,8 °C 16,1 km/h (3 Bft)
20.11.2024 21:22 21,1 °C 2,8 °C 61 % 88 % 998,6 hPa 0,0 l/m² 14,6 km/h (3 Bft) SW 218 ° 0 min 0 W/m² 1,0 °C -3,4 °C 19,3 km/h (3 Bft)
20.11.2024 21:23 21,1 °C 2,8 °C 60 % 88 % 998,6 hPa 0,0 l/m² 15,7 km/h (3 Bft) W-SW 248 ° 0 min 0 W/m² 1,0 °C -4,0 °C 20,9 km/h (4 Bft)
20.11.2024 21:24 21,0 °C 2,8 °C 60 % 88 % 998,5 hPa 0,0 l/m² 15,5 km/h (3 Bft) SW 214 ° 0 min 0 W/m² 1,0 °C -3,9 °C 19,3 km/h (3 Bft)
20.11.2024 21:25 21,0 °C 2,8 °C 54 % 88 % 998,6 hPa 0,0 l/m² 19,9 km/h (4 Bft) SW 227 ° 0 min 0 W/m² 1,0 °C -6,0 °C 25,7 km/h (4 Bft)
20.11.2024 21:26 21,0 °C 2,8 °C 53 % 88 % 998,5 hPa 0,0 l/m² 16,2 km/h (3 Bft) SW 215 ° 0 min 0 W/m² 1,0 °C -4,2 °C 25,7 km/h (4 Bft)
20.11.2024 21:27 20,9 °C 2,8 °C 54 % 88 % 998,5 hPa 0,0 l/m² 15,5 km/h (3 Bft) SW 225 ° 0 min 0 W/m² 1,0 °C -3,9 °C 22,5 km/h (4 Bft)
20.11.2024 21:28 20,9 °C 2,8 °C 54 % 88 % 998,5 hPa 0,0 l/m² 16,8 km/h (3 Bft) SW 230 ° 0 min 0 W/m² 1,0 °C -4,5 °C 24,1 km/h (4 Bft)
20.11.2024 21:29 20,9 °C 2,8 °C 54 % 88 % 998,5 hPa 0,0 l/m² 18,0 km/h (3 Bft) SW 234 ° 0 min 0 W/m² 1,0 °C -5,1 °C 24,1 km/h (4 Bft)
20.11.2024 21:30 20,9 °C 2,8 °C 55 % 88 % 998,5 hPa 0,0 l/m² 16,4 km/h (3 Bft) W-SW 254 ° 0 min 0 W/m² 1,0 °C -4,3 °C 20,9 km/h (4 Bft)
20.11.2024 21:31 20,9 °C 2,9 °C 55 % 88 % 998,5 hPa 0,0 l/m² 19,7 km/h (3 Bft) SW 227 ° 0 min 0 W/m² 1,1 °C -5,8 °C 25,7 km/h (4 Bft)
20.11.2024 21:32 20,8 °C 2,8 °C 55 % 88 % 998,6 hPa 0,0 l/m² 18,5 km/h (3 Bft) SW 234 ° 0 min 0 W/m² 1,0 °C -5,4 °C 22,5 km/h (4 Bft)
20.11.2024 21:33 20,8 °C 2,8 °C 55 % 88 % 998,5 hPa 0,0 l/m² 17,1 km/h (3 Bft) SW 227 ° 0 min 0 W/m² 1,0 °C -4,7 °C 25,7 km/h (4 Bft)
20.11.2024 21:34 20,8 °C 2,9 °C 56 % 88 % 998,5 hPa 0,0 l/m² 21,3 km/h (4 Bft) SW 232 ° 0 min 0 W/m² 1,1 °C -6,4 °C 27,4 km/h (5 Bft)
20.11.2024 21:35 20,8 °C 2,9 °C 56 % 88 % 998,6 hPa 0,0 l/m² 20,3 km/h (4 Bft) SW 217 ° 0 min 0 W/m² 1,1 °C -6,0 °C 24,1 km/h (4 Bft)
20.11.2024 21:36 20,8 °C 2,9 °C 56 % 88 % 998,5 hPa 0,0 l/m² 17,0 km/h (3 Bft) W-SW 242 ° 0 min 0 W/m² 1,1 °C -4,5 °C 22,5 km/h (4 Bft)
20.11.2024 21:37 20,8 °C 2,9 °C 56 % 88 % 998,6 hPa 0,0 l/m² 17,8 km/h (3 Bft) SW 233 ° 0 min 0 W/m² 1,1 °C -4,9 °C 24,1 km/h (4 Bft)
20.11.2024 21:38 20,8 °C 2,9 °C 56 % 88 % 998,6 hPa 0,0 l/m² 18,8 km/h (3 Bft) S-SW 213 ° 0 min 0 W/m² 1,1 °C -5,4 °C 24,1 km/h (4 Bft)
20.11.2024 21:39 20,8 °C 2,9 °C 56 % 88 % 998,6 hPa 0,0 l/m² 21,5 km/h (4 Bft) SW 232 ° 0 min 0 W/m² 1,1 °C -6,5 °C 25,7 km/h (4 Bft)
20.11.2024 21:40 20,8 °C 2,9 °C 56 % 88 % 998,6 hPa 0,0 l/m² 15,7 km/h (3 Bft) SW 235 ° 0 min 0 W/m² 1,1 °C -3,8 °C 22,5 km/h (4 Bft)
20.11.2024 21:41 20,8 °C 2,9 °C 56 % 88 % 998,6 hPa 0,0 l/m² 22,2 km/h (4 Bft) W-SW 258 ° 0 min 0 W/m² 1,1 °C -6,8 °C 30,6 km/h (5 Bft)
20.11.2024 21:42 20,8 °C 2,9 °C 56 % 87 % 998,6 hPa 0,0 l/m² 20,3 km/h (4 Bft) SW 223 ° 0 min 0 W/m² 1,0 °C -6,0 °C 27,4 km/h (5 Bft)
20.11.2024 21:43 20,8 °C 2,9 °C 56 % 87 % 998,6 hPa 0,0 l/m² 16,5 km/h (3 Bft) SW 217 ° 0 min 0 W/m² 1,0 °C -4,3 °C 19,3 km/h (3 Bft)
20.11.2024 21:44 20,8 °C 2,9 °C 56 % 87 % 998,6 hPa 0,0 l/m² 19,6 km/h (3 Bft) SW 226 ° 0 min 0 W/m² 1,0 °C -5,7 °C 25,7 km/h (4 Bft)
20.11.2024 21:45 20,8 °C 2,9 °C 56 % 87 % 998,6 hPa 0,0 l/m² 22,5 km/h (4 Bft) SW 228 ° 0 min 0 W/m² 1,0 °C -6,9 °C 25,7 km/h (4 Bft)
20.11.2024 21:47 20,8 °C 2,9 °C 56 % 87 % 998,6 hPa 0,0 l/m² 17,6 km/h (3 Bft) SW 225 ° 0 min 0 W/m² 1,0 °C -4,8 °C 25,7 km/h (4 Bft)
20.11.2024 21:48 20,8 °C 2,9 °C 56 % 87 % 998,7 hPa 0,0 l/m² 18,0 km/h (3 Bft) SW 234 ° 0 min 0 W/m² 1,0 °C -5,0 °C 22,5 km/h (4 Bft)
20.11.2024 21:49 20,8 °C 2,9 °C 56 % 87 % 998,6 hPa 0,0 l/m² 13,9 km/h (3 Bft) SW 223 ° 0 min 0 W/m² 1,0 °C -2,8 °C 20,9 km/h (4 Bft)
20.11.2024 21:50 20,8 °C 2,9 °C 56 % 87 % 998,7 hPa 0,0 l/m² 15,3 km/h (3 Bft) SW 219 ° 0 min 0 W/m² 1,0 °C -3,6 °C 19,3 km/h (3 Bft)
20.11.2024 21:51 20,8 °C 2,9 °C 56 % 87 % 998,7 hPa 0,0 l/m² 18,3 km/h (3 Bft) SW 221 ° 0 min 0 W/m² 1,0 °C -5,1 °C 20,9 km/h (4 Bft)
20.11.2024 21:52 20,8 °C 2,9 °C 57 % 87 % 998,6 hPa 0,0 l/m² 16,2 km/h (3 Bft) W 279 ° 0 min 0 W/m² 1,0 °C -4,1 °C 20,9 km/h (4 Bft)
20.11.2024 21:53 20,8 °C 2,9 °C 57 % 87 % 998,7 hPa 0,0 l/m² 21,6 km/h (4 Bft) SW 233 ° 0 min 0 W/m² 1,0 °C -6,5 °C 29,0 km/h (5 Bft)
20.11.2024 21:54 20,8 °C 2,9 °C 57 % 87 % 998,8 hPa 0,0 l/m² 20,4 km/h (4 Bft) SW 236 ° 0 min 0 W/m² 1,0 °C -6,1 °C 32,2 km/h (5 Bft)
20.11.2024 21:55 20,8 °C 2,9 °C 57 % 87 % 998,7 hPa 0,0 l/m² 22,7 km/h (4 Bft) SW 229 ° 0 min 0 W/m² 1,0 °C -7,0 °C 27,4 km/h (5 Bft)
20.11.2024 21:56 20,8 °C 2,9 °C 57 % 86 % 998,7 hPa 0,0 l/m² 20,0 km/h (4 Bft) SW 235 ° 0 min 0 W/m² 0,8 °C -5,9 °C 24,1 km/h (4 Bft)
20.11.2024 21:57 20,8 °C 2,9 °C 57 % 86 % 998,7 hPa 0,0 l/m² 24,0 km/h (4 Bft) SW 215 ° 0 min 0 W/m² 0,8 °C -7,4 °C 29,0 km/h (5 Bft)
20.11.2024 21:58 20,8 °C 2,9 °C 57 % 86 % 998,8 hPa 0,0 l/m² 16,7 km/h (3 Bft) W-SW 238 ° 0 min 0 W/m² 0,8 °C -4,4 °C 22,5 km/h (4 Bft)
20.11.2024 21:59 20,8 °C 2,9 °C 57 % 86 % 998,7 hPa 0,0 l/m² 17,4 km/h (3 Bft) W-SW 247 ° 0 min 0 W/m² 0,8 °C -4,7 °C 24,1 km/h (4 Bft)
20.11.2024 22:00 20,8 °C 2,9 °C 57 % 86 % 998,8 hPa 0,0 l/m² 19,2 km/h (3 Bft) W-SW 248 ° 0 min 0 W/m² 0,8 °C -5,5 °C 24,1 km/h (4 Bft)
20.11.2024 22:01 20,8 °C 2,9 °C 57 % 86 % 998,7 hPa 0,0 l/m² 18,8 km/h (3 Bft) W-SW 240 ° 0 min 0 W/m² 0,8 °C -5,4 °C 22,5 km/h (4 Bft)
20.11.2024 22:02 20,8 °C 2,9 °C 57 % 86 % 998,9 hPa 0,0 l/m² 22,6 km/h (4 Bft) SW 236 ° 0 min 0 W/m² 0,8 °C -6,9 °C 27,4 km/h (5 Bft)
20.11.2024 22:03 20,8 °C 2,9 °C 57 % 86 % 998,7 hPa 0,0 l/m² 21,1 km/h (4 Bft) SW 235 ° 0 min 0 W/m² 0,8 °C -6,3 °C 29,0 km/h (5 Bft)
20.11.2024 22:04 20,8 °C 2,9 °C 57 % 86 % 998,8 hPa 0,0 l/m² 18,1 km/h (3 Bft) W-SW 254 ° 0 min 0 W/m² 0,8 °C -5,0 °C 25,7 km/h (4 Bft)
20.11.2024 22:05 20,8 °C 2,9 °C 57 % 86 % 998,8 hPa 0,0 l/m² 24,0 km/h (4 Bft) W-SW 242 ° 0 min 0 W/m² 0,8 °C -7,4 °C 29,0 km/h (5 Bft)
20.11.2024 22:06 20,8 °C 2,9 °C 57 % 86 % 998,8 hPa 0,0 l/m² 20,9 km/h (4 Bft) SW 235 ° 0 min 0 W/m² 0,8 °C -6,3 °C 29,0 km/h (5 Bft)
20.11.2024 22:07 20,8 °C 2,9 °C 57 % 86 % 998,8 hPa 0,0 l/m² 18,2 km/h (3 Bft) W-SW 250 ° 0 min 0 W/m² 0,8 °C -5,1 °C 22,5 km/h (4 Bft)
20.11.2024 22:08 20,8 °C 2,9 °C 57 % 86 % 998,9 hPa 0,0 l/m² 21,8 km/h (4 Bft) W-SW 254 ° 0 min 0 W/m² 0,8 °C -6,6 °C 27,4 km/h (5 Bft)
20.11.2024 22:09 20,8 °C 2,9 °C 57 % 86 % 998,9 hPa 0,0 l/m² 21,5 km/h (4 Bft) W-SW 237 ° 0 min 0 W/m² 0,8 °C -6,5 °C 30,6 km/h (5 Bft)
20.11.2024 22:10 20,8 °C 2,9 °C 57 % 86 % 998,9 hPa 0,0 l/m² 21,9 km/h (4 Bft) SW 235 ° 0 min 0 W/m² 0,8 °C -6,7 °C 25,7 km/h (4 Bft)
20.11.2024 22:11 20,8 °C 2,9 °C 57 % 86 % 998,9 hPa 0,0 l/m² 21,8 km/h (4 Bft) SW 231 ° 0 min 0 W/m² 0,8 °C -6,6 °C 25,7 km/h (4 Bft)
20.11.2024 22:12 20,8 °C 2,9 °C 57 % 86 % 998,8 hPa 0,0 l/m² 21,8 km/h (4 Bft) W-SW 247 ° 0 min 0 W/m² 0,8 °C -6,6 °C 27,4 km/h (5 Bft)
20.11.2024 22:13 20,8 °C 2,9 °C 57 % 86 % 999,0 hPa 0,0 l/m² 21,9 km/h (4 Bft) SW 236 ° 0 min 0 W/m² 0,8 °C -6,7 °C 25,7 km/h (4 Bft)
20.11.2024 22:14 20,8 °C 2,9 °C 57 % 86 % 999,0 hPa 0,0 l/m² 25,3 km/h (4 Bft) W-SW 247 ° 0 min 0 W/m² 0,8 °C -7,9 °C 35,4 km/h (5 Bft)
20.11.2024 22:15 20,8 °C 2,9 °C 57 % 86 % 999,0 hPa 0,0 l/m² 26,6 km/h (4 Bft) SW 234 ° 0 min 0 W/m² 0,8 °C -8,3 °C 35,4 km/h (5 Bft)
20.11.2024 22:16 20,8 °C 2,9 °C 57 % 86 % 999,0 hPa 0,0 l/m² 22,7 km/h (4 Bft) SW 233 ° 0 min 0 W/m² 0,8 °C -7,0 °C 29,0 km/h (5 Bft)
20.11.2024 22:17 20,8 °C 2,9 °C 57 % 86 % 998,9 hPa 0,0 l/m² 18,0 km/h (3 Bft) W-SW 242 ° 0 min 0 W/m² 0,8 °C -5,0 °C 24,1 km/h (4 Bft)
20.11.2024 22:18 20,8 °C 2,9 °C 57 % 86 % 999,0 hPa 0,0 l/m² 17,3 km/h (3 Bft) SW 234 ° 0 min 0 W/m² 0,8 °C -4,7 °C 22,5 km/h (4 Bft)
20.11.2024 22:19 20,8 °C 2,9 °C 57 % 86 % 999,0 hPa 0,0 l/m² 17,6 km/h (3 Bft) SW 234 ° 0 min 0 W/m² 0,8 °C -4,8 °C 22,5 km/h (4 Bft)
20.11.2024 22:20 20,8 °C 2,9 °C 57 % 86 % 999,0 hPa 0,0 l/m² 16,2 km/h (3 Bft) SW 231 ° 0 min 0 W/m² 0,8 °C -4,1 °C 20,9 km/h (4 Bft)
20.11.2024 22:21 20,8 °C 2,9 °C 57 % 86 % 999,0 hPa 0,0 l/m² 20,1 km/h (4 Bft) SW 234 ° 0 min 0 W/m² 0,8 °C -5,9 °C 25,7 km/h (4 Bft)
20.11.2024 22:22 20,8 °C 2,9 °C 57 % 86 % 998,9 hPa 0,0 l/m² 20,0 km/h (4 Bft) SW 232 ° 0 min 0 W/m² 0,8 °C -5,9 °C 29,0 km/h (5 Bft)
20.11.2024 22:23 20,8 °C 2,9 °C 57 % 86 % 999,0 hPa 0,0 l/m² 24,3 km/h (4 Bft) W-SW 246 ° 0 min 0 W/m² 0,8 °C -7,5 °C 30,6 km/h (5 Bft)
20.11.2024 22:24 20,8 °C 2,9 °C 57 % 86 % 999,0 hPa 0,0 l/m² 19,8 km/h (3 Bft) SW 234 ° 0 min 0 W/m² 0,8 °C -5,8 °C 25,7 km/h (4 Bft)
20.11.2024 22:25 20,8 °C 2,9 °C 57 % 86 % 999,0 hPa 0,0 l/m² 22,8 km/h (4 Bft) W-SW 242 ° 0 min 0 W/m² 0,8 °C -7,0 °C 29,0 km/h (5 Bft)
20.11.2024 22:26 20,8 °C 2,9 °C 57 % 86 % 999,1 hPa 0,0 l/m² 18,1 km/h (3 Bft) W-SW 241 ° 0 min 0 W/m² 0,8 °C -5,0 °C 29,0 km/h (5 Bft)
20.11.2024 22:27 20,8 °C 2,9 °C 57 % 86 % 999,0 hPa 0,0 l/m² 24,6 km/h (4 Bft) W-SW 246 ° 0 min 0 W/m² 0,8 °C -7,7 °C 30,6 km/h (5 Bft)
20.11.2024 22:28 20,8 °C 2,9 °C 57 % 86 % 999,0 hPa 0,0 l/m² 21,1 km/h (4 Bft) W-SW 247 ° 0 min 0 W/m² 0,8 °C -6,3 °C 27,4 km/h (5 Bft)
20.11.2024 22:29 20,8 °C 2,9 °C 57 % 86 % 999,0 hPa 0,0 l/m² 20,7 km/h (4 Bft) W-SW 250 ° 0 min 0 W/m² 0,8 °C -6,2 °C 27,4 km/h (5 Bft)
20.11.2024 22:30 20,8 °C 2,9 °C 57 % 86 % 999,0 hPa 0,0 l/m² 22,7 km/h (4 Bft) W 262 ° 0 min 0 W/m² 0,8 °C -7,0 °C 27,4 km/h (5 Bft)
20.11.2024 22:31 20,8 °C 2,9 °C 57 % 86 % 999,0 hPa 0,0 l/m² 20,0 km/h (4 Bft) SW 231 ° 0 min 0 W/m² 0,8 °C -5,9 °C 25,7 km/h (4 Bft)
20.11.2024 22:32 20,8 °C 2,9 °C 57 % 86 % 999,0 hPa 0,0 l/m² 22,1 km/h (4 Bft) SW 232 ° 0 min 0 W/m² 0,8 °C -6,7 °C 29,0 km/h (5 Bft)
20.11.2024 22:33 20,8 °C 2,9 °C 57 % 86 % 999,0 hPa 0,0 l/m² 25,2 km/h (4 Bft) SW 229 ° 0 min 0 W/m² 0,8 °C -7,9 °C 33,8 km/h (5 Bft)
20.11.2024 22:34 20,8 °C 2,9 °C 57 % 86 % 999,0 hPa 0,0 l/m² 21,7 km/h (4 Bft) W-SW 248 ° 0 min 0 W/m² 0,8 °C -6,6 °C 29,0 km/h (5 Bft)
20.11.2024 22:35 20,8 °C 2,9 °C 57 % 86 % 998,9 hPa 0,0 l/m² 24,3 km/h (4 Bft) SW 216 ° 0 min 0 W/m² 0,8 °C -7,5 °C 29,0 km/h (5 Bft)
20.11.2024 22:36 20,8 °C 2,9 °C 57 % 86 % 999,1 hPa 0,0 l/m² 22,3 km/h (4 Bft) W-SW 248 ° 0 min 0 W/m² 0,8 °C -6,8 °C 29,0 km/h (5 Bft)
20.11.2024 22:37 20,8 °C 2,9 °C 57 % 86 % 999,1 hPa 0,0 l/m² 22,0 km/h (4 Bft) SW 217 ° 0 min 0 W/m² 0,8 °C -6,7 °C 27,4 km/h (5 Bft)
20.11.2024 22:38 20,7 °C 2,9 °C 57 % 86 % 999,1 hPa 0,0 l/m² 20,8 km/h (4 Bft) W-SW 244 ° 0 min 0 W/m² 0,8 °C -6,2 °C 29,0 km/h (5 Bft)
20.11.2024 22:39 20,8 °C 2,9 °C 57 % 86 % 999,1 hPa 0,0 l/m² 25,2 km/h (4 Bft) SW 230 ° 0 min 0 W/m² 0,8 °C -7,9 °C 32,2 km/h (5 Bft)
20.11.2024 22:40 20,8 °C 2,8 °C 57 % 86 % 999,1 hPa 0,0 l/m² 26,6 km/h (4 Bft) SW 232 ° 0 min 0 W/m² 0,7 °C -8,5 °C 33,8 km/h (5 Bft)
20.11.2024 22:41 20,8 °C 2,8 °C 57 % 86 % 999,1 hPa 0,0 l/m² 18,9 km/h (3 Bft) W-SW 240 ° 0 min 0 W/m² 0,7 °C -5,5 °C 25,7 km/h (4 Bft)
20.11.2024 22:42 20,7 °C 2,9 °C 57 % 86 % 999,0 hPa 0,0 l/m² 25,5 km/h (4 Bft) W-SW 254 ° 0 min 0 W/m² 0,8 °C -8,0 °C 32,2 km/h (5 Bft)
20.11.2024 22:43 20,7 °C 2,8 °C 57 % 86 % 999,0 hPa 0,0 l/m² 24,5 km/h (4 Bft) W-SW 248 ° 0 min 0 W/m² 0,7 °C -7,8 °C 32,2 km/h (5 Bft)
20.11.2024 22:44 20,8 °C 2,8 °C 57 % 86 % 999,0 hPa 0,0 l/m² 22,4 km/h (4 Bft) SW 222 ° 0 min 0 W/m² 0,7 °C -7,0 °C 27,4 km/h (5 Bft)
20.11.2024 22:45 20,8 °C 2,8 °C 57 % 86 % 999,1 hPa 0,0 l/m² 20,0 km/h (4 Bft) W-SW 242 ° 0 min 0 W/m² 0,7 °C -6,0 °C 27,4 km/h (5 Bft)
20.11.2024 22:46 20,8 °C 2,8 °C 57 % 86 % 999,1 hPa 0,0 l/m² 25,1 km/h (4 Bft) SW 226 ° 0 min 0 W/m² 0,7 °C -8,0 °C 32,2 km/h (5 Bft)
20.11.2024 22:47 20,8 °C 2,8 °C 57 % 86 % 999,1 hPa 0,0 l/m² 23,4 km/h (4 Bft) W-SW 255 ° 0 min 0 W/m² 0,7 °C -7,4 °C 29,0 km/h (5 Bft)
20.11.2024 22:48 20,7 °C 2,8 °C 57 % 86 % 999,2 hPa 0,0 l/m² 26,1 km/h (4 Bft) W-SW 240 ° 0 min 0 W/m² 0,7 °C -8,3 °C 35,4 km/h (5 Bft)
20.11.2024 22:49 20,7 °C 2,8 °C 57 % 86 % 999,2 hPa 0,0 l/m² 26,4 km/h (4 Bft) W-SW 242 ° 0 min 0 W/m² 0,7 °C -8,4 °C 30,6 km/h (5 Bft)
20.11.2024 22:50 20,8 °C 2,8 °C 57 % 86 % 999,2 hPa 0,0 l/m² 25,3 km/h (4 Bft) W-SW 244 ° 0 min 0 W/m² 0,7 °C -8,0 °C 35,4 km/h (5 Bft)
20.11.2024 22:51 20,8 °C 2,8 °C 57 % 86 % 999,2 hPa 0,0 l/m² 20,7 km/h (4 Bft) SW 233 ° 0 min 0 W/m² 0,7 °C -6,3 °C 29,0 km/h (5 Bft)
20.11.2024 22:52 20,7 °C 2,8 °C 57 % 86 % 999,2 hPa 0,0 l/m² 20,9 km/h (4 Bft) W-SW 240 ° 0 min 0 W/m² 0,7 °C -6,4 °C 27,4 km/h (5 Bft)
20.11.2024 22:53 20,8 °C 2,8 °C 57 % 86 % 999,2 hPa 0,0 l/m² 22,5 km/h (4 Bft) SW 228 ° 0 min 0 W/m² 0,7 °C -7,0 °C 30,6 km/h (5 Bft)
20.11.2024 22:54 20,7 °C 2,8 °C 57 % 86 % 999,3 hPa 0,0 l/m² 25,1 km/h (4 Bft) W-SW 237 ° 0 min 0 W/m² 0,7 °C -8,0 °C 33,8 km/h (5 Bft)
20.11.2024 22:55 20,7 °C 2,8 °C 57 % 86 % 999,3 hPa 0,0 l/m² 23,2 km/h (4 Bft) W-SW 250 ° 0 min 0 W/m² 0,7 °C -7,3 °C 30,6 km/h (5 Bft)
20.11.2024 22:56 20,7 °C 2,8 °C 57 % 86 % 999,3 hPa 0,0 l/m² 19,4 km/h (3 Bft) W-SW 237 ° 0 min 0 W/m² 0,7 °C -5,8 °C 24,1 km/h (4 Bft)
20.11.2024 22:57 20,7 °C 2,8 °C 57 % 86 % 999,3 hPa 0,0 l/m² 19,5 km/h (3 Bft) SW 221 ° 0 min 0 W/m² 0,7 °C -5,8 °C 27,4 km/h (5 Bft)
20.11.2024 22:58 20,8 °C 2,8 °C 57 % 87 % 999,2 hPa 0,0 l/m² 22,2 km/h (4 Bft) SW 229 ° 0 min 0 W/m² 0,9 °C -6,9 °C 27,4 km/h (5 Bft)
20.11.2024 22:59 20,7 °C 2,8 °C 57 % 87 % 999,3 hPa 0,0 l/m² 17,2 km/h (3 Bft) W-SW 251 ° 0 min 0 W/m² 0,9 °C -4,7 °C 24,1 km/h (4 Bft)
20.11.2024 23:00 20,7 °C 2,8 °C 57 % 87 % 999,3 hPa 0,0 l/m² 15,1 km/h (3 Bft) SW 231 ° 0 min 0 W/m² 0,9 °C -3,6 °C 19,3 km/h (3 Bft)
20.11.2024 23:01 20,8 °C 2,7 °C 57 % 87 % 999,3 hPa 0,0 l/m² 18,8 km/h (3 Bft) W-SW 248 ° 0 min 0 W/m² 0,8 °C -5,6 °C 24,1 km/h (4 Bft)
20.11.2024 23:02 20,7 °C 2,7 °C 57 % 87 % 999,3 hPa 0,0 l/m² 19,5 km/h (3 Bft) W-SW 251 ° 0 min 0 W/m² 0,8 °C -5,9 °C 25,7 km/h (4 Bft)
20.11.2024 23:03 20,7 °C 2,7 °C 57 % 87 % 999,3 hPa 0,0 l/m² 19,8 km/h (3 Bft) W-SW 242 ° 0 min 0 W/m² 0,8 °C -6,1 °C 25,7 km/h (4 Bft)
20.11.2024 23:04 20,7 °C 2,7 °C 57 % 87 % 999,4 hPa 0,0 l/m² 23,3 km/h (4 Bft) W-SW 254 ° 0 min 0 W/m² 0,8 °C -7,5 °C 29,0 km/h (5 Bft)
20.11.2024 23:05 20,7 °C 2,7 °C 57 % 87 % 999,4 hPa 0,0 l/m² 21,1 km/h (4 Bft) W-SW 245 ° 0 min 0 W/m² 0,8 °C -6,6 °C 24,1 km/h (4 Bft)
20.11.2024 23:06 20,7 °C 2,7 °C 57 % 87 % 999,3 hPa 0,0 l/m² 18,8 km/h (3 Bft) W-SW 250 ° 0 min 0 W/m² 0,8 °C -5,6 °C 24,1 km/h (4 Bft)
20.11.2024 23:07 20,7 °C 2,7 °C 57 % 87 % 999,4 hPa 0,0 l/m² 18,0 km/h (3 Bft) W-SW 246 ° 0 min 0 W/m² 0,8 °C -5,2 °C 24,1 km/h (4 Bft)
20.11.2024 23:08 20,7 °C 2,7 °C 57 % 87 % 999,3 hPa 0,0 l/m² 16,4 km/h (3 Bft) W-SW 246 ° 0 min 0 W/m² 0,8 °C -4,5 °C 20,9 km/h (4 Bft)
20.11.2024 23:09 20,7 °C 2,7 °C 57 % 87 % 999,4 hPa 0,0 l/m² 14,6 km/h (3 Bft) W-SW 240 ° 0 min 0 W/m² 0,8 °C -3,5 °C 22,5 km/h (4 Bft)
20.11.2024 23:10 20,7 °C 2,7 °C 57 % 87 % 999,4 hPa 0,0 l/m² 20,2 km/h (4 Bft) W-SW 239 ° 0 min 0 W/m² 0,8 °C -6,2 °C 25,7 km/h (4 Bft)
20.11.2024 23:11 20,7 °C 2,7 °C 57 % 87 % 999,3 hPa 0,0 l/m² 14,8 km/h (3 Bft) W-SW 247 ° 0 min 0 W/m² 0,8 °C -3,6 °C 17,7 km/h (3 Bft)
20.11.2024 23:12 20,7 °C 2,7 °C 57 % 87 % 999,4 hPa 0,0 l/m² 17,4 km/h (3 Bft) SW 232 ° 0 min 0 W/m² 0,8 °C -5,0 °C 22,5 km/h (4 Bft)
20.11.2024 23:13 20,7 °C 2,7 °C 57 % 87 % 999,4 hPa 0,0 l/m² 18,0 km/h (3 Bft) W-SW 243 ° 0 min 0 W/m² 0,8 °C -5,2 °C 22,5 km/h (4 Bft)
20.11.2024 23:14 20,7 °C 2,7 °C 57 % 87 % 999,4 hPa 0,0 l/m² 20,5 km/h (4 Bft) SW 228 ° 0 min 0 W/m² 0,8 °C -6,4 °C 25,7 km/h (4 Bft)
20.11.2024 23:15 20,7 °C 2,7 °C 57 % 87 % 999,4 hPa 0,0 l/m² 16,6 km/h (3 Bft) W-SW 248 ° 0 min 0 W/m² 0,8 °C -4,6 °C 22,5 km/h (4 Bft)
20.11.2024 23:16 20,7 °C 2,7 °C 57 % 87 % 999,5 hPa 0,0 l/m² 17,7 km/h (3 Bft) W-SW 247 ° 0 min 0 W/m² 0,8 °C -5,1 °C 24,1 km/h (4 Bft)
20.11.2024 23:17 20,7 °C 2,7 °C 57 % 87 % 999,5 hPa 0,0 l/m² 17,7 km/h (3 Bft) W-SW 247 ° 0 min 0 W/m² 0,8 °C -5,1 °C 22,5 km/h (4 Bft)
20.11.2024 23:18 20,7 °C 2,7 °C 57 % 87 % 999,5 hPa 0,0 l/m² 16,1 km/h (3 Bft) W-SW 247 ° 0 min 0 W/m² 0,8 °C -4,3 °C 17,7 km/h (3 Bft)
20.11.2024 23:19 20,7 °C 2,7 °C 57 % 87 % 999,5 hPa 0,0 l/m² 19,3 km/h (3 Bft) W-SW 247 ° 0 min 0 W/m² 0,8 °C -5,8 °C 25,7 km/h (4 Bft)
20.11.2024 23:20 20,7 °C 2,6 °C 57 % 87 % 999,6 hPa 0,0 l/m² 17,7 km/h (3 Bft) W-SW 247 ° 0 min 0 W/m² 0,7 °C -5,2 °C 24,1 km/h (4 Bft)
20.11.2024 23:21 20,7 °C 2,7 °C 57 % 87 % 999,6 hPa 0,0 l/m² 17,7 km/h (3 Bft) W-SW 247 ° 0 min 0 W/m² 0,8 °C -5,1 °C 22,5 km/h (4 Bft)
20.11.2024 23:27 20,7 °C 2,6 °C 57 % 88 % 999,6 hPa 0,0 l/m² 9,4 km/h (2 Bft) W 261 ° 0 min 0 W/m² 0,8 °C -0,1 °C 12,9 km/h (3 Bft)
20.11.2024 23:29 20,7 °C 2,6 °C 57 % 88 % 999,6 hPa 0,0 l/m² 14,6 km/h (3 Bft) W-NW 287 ° 0 min 0 W/m² 0,8 °C -3,6 °C 20,9 km/h (4 Bft)
20.11.2024 23:31 20,7 °C 2,6 °C 57 % 88 % 999,7 hPa 0,0 l/m² 8,5 km/h (2 Bft) W 273 ° 0 min 0 W/m² 0,8 °C 0,6 °C 19,3 km/h (3 Bft)
20.11.2024 23:32 20,7 °C 2,6 °C 57 % 88 % 999,7 hPa 0,0 l/m² 9,7 km/h (2 Bft) NW 310 ° 0 min 0 W/m² 0,8 °C -0,3 °C 16,1 km/h (3 Bft)
20.11.2024 23:33 20,7 °C 2,6 °C 57 % 88 % 999,7 hPa 0,0 l/m² 7,6 km/h (2 Bft) NW 306 ° 0 min 0 W/m² 0,8 °C 1,5 °C 11,3 km/h (2 Bft)
20.11.2024 23:35 20,7 °C 2,6 °C 57 % 88 % 999,8 hPa 0,0 l/m² 10,3 km/h (2 Bft) NW 326 ° 0 min 0 W/m² 0,8 °C -0,8 °C 19,3 km/h (3 Bft)
20.11.2024 23:36 20,7 °C 2,6 °C 57 % 88 % 999,8 hPa 0,0 l/m² 12,8 km/h (3 Bft) N-NW 331 ° 0 min 0 W/m² 0,8 °C -2,5 °C 20,9 km/h (4 Bft)
20.11.2024 23:38 20,7 °C 2,5 °C 57 % 88 % 999,8 hPa 0,0 l/m² 6,8 km/h (2 Bft) W-NW 298 ° 0 min 0 W/m² 0,7 °C 2,1 °C 12,9 km/h (3 Bft)
20.11.2024 23:40 20,7 °C 2,4 °C 57 % 87 % 999,8 hPa 0,0 l/m² 7,0 km/h (2 Bft) W-NW 293 ° 0 min 0 W/m² 0,5 °C 1,8 °C 12,9 km/h (3 Bft)
20.11.2024 23:41 20,7 °C 2,4 °C 57 % 87 % 999,9 hPa 0,0 l/m² 4,4 km/h (1 Bft) W-NW 297 ° 0 min 0 W/m² 0,5 °C 2,4 °C 8,0 km/h (2 Bft)
20.11.2024 23:42 20,7 °C 2,3 °C 57 % 87 % 999,9 hPa 0,0 l/m² 5,3 km/h (1 Bft) W-NW 284 ° 0 min 0 W/m² 0,4 °C 2,3 °C 9,7 km/h (2 Bft)
20.11.2024 23:43 20,7 °C 2,3 °C 57 % 87 % 999,7 hPa 0,0 l/m² 6,8 km/h (2 Bft) W 272 ° 0 min 0 W/m² 0,4 °C 1,9 °C 9,7 km/h (2 Bft)
20.11.2024 23:44 20,7 °C 2,2 °C 57 % 87 % 999,8 hPa 0,0 l/m² 6,0 km/h (2 Bft) W-SW 255 ° 0 min 0 W/m² 0,3 °C 2,2 °C 9,7 km/h (2 Bft)
20.11.2024 23:46 20,8 °C 2,1 °C 57 % 87 % 999,9 hPa 0,0 l/m² 8,1 km/h (2 Bft) W-SW 255 ° 0 min 0 W/m² 0,2 °C 0,5 °C 11,3 km/h (2 Bft)
20.11.2024 23:48 20,7 °C 2,0 °C 57 % 87 % 1000,0 hPa 0,2 l/m² 4,6 km/h (1 Bft) W-SW 252 ° 0 min 0 W/m² 0,1 °C 2,0 °C 8,0 km/h (2 Bft)
20.11.2024 23:50 20,8 °C 1,9 °C 57 % 87 % 999,9 hPa 0,0 l/m² 1,5 km/h (1 Bft) W-SW 252 ° 0 min 0 W/m² -0,0 °C 1,9 °C 3,2 km/h (1 Bft)
20.11.2024 23:51 20,7 °C 1,9 °C 57 % 87 % 1000,0 hPa 0,0 l/m² 2,3 km/h (1 Bft) W-SW 252 ° 0 min 0 W/m² -0,0 °C 1,9 °C 4,8 km/h (1 Bft)
20.11.2024 23:52 20,7 °C 1,9 °C 57 % 87 % 1000,0 hPa 0,0 l/m² 2,3 km/h (1 Bft) W-SW 252 ° 0 min 0 W/m² -0,0 °C 1,9 °C 3,2 km/h (1 Bft)
20.11.2024 23:54 20,8 °C 1,8 °C 57 % 87 % 1000,0 hPa 0,2 l/m² 1,9 km/h (1 Bft) W-SW 252 ° 0 min 0 W/m² -0,1 °C 1,8 °C 4,8 km/h (1 Bft)
20.11.2024 23:55 20,8 °C 1,8 °C 56 % 87 % 1000,0 hPa 0,0 l/m² 3,0 km/h (1 Bft) W 259 ° 0 min 0 W/m² -0,1 °C 1,8 °C 9,7 km/h (2 Bft)
20.11.2024 23:57 20,8 °C 1,8 °C 56 % 88 % 1000,0 hPa 0,0 l/m² 4,4 km/h (1 Bft) W 277 ° 0 min 0 W/m² 0,0 °C 1,8 °C 6,4 km/h (2 Bft)
20.11.2024 23:59 20,8 °C 1,7 °C 57 % 88 % 1000,0 hPa 0,0 l/m² 6,7 km/h (2 Bft) W 276 ° 0 min 0 W/m² -0,1 °C 1,4 °C 11,3 km/h (2 Bft)
_ Min-Zeit 23:52 23:59 19:23 06:13 00:39 - 23:50 - - - - 23:55 13:33 23:52
Minimum _ 20,7 °C 1,7 °C 51 % 79 % 991,3 hPa - 1,5 km/h (1 Bft) - - - - -0,1 °C -8,8 °C 3,2 km/h (1 Bft)
_ Max-Zeit 21:23 14:30 21:22 13:58 23:59 23:54 13:33 - - 14:12 11:05 14:21 16:46 13:25
Maximum _ 21,1 °C 6,0 °C 61 % 90 % 1000,0 hPa 0,2 l/m² 31,6 km/h
W-SW (5 Bft)
- - 2 min 367 W/m² 3,6 °C 2,7 °C 43,5 km/h
SW (6 Bft)
Durchschnitt _ 20,8 °C 3,1 °C 56 % 86 % 996,7 hPa #1,0 l/m² 15,3 km/h (3 Bft) SW - #5:10 h 31 W/m² 1,0 °C -3,1 °C 20,9 km/h (4 Bft)
© 2009 Mathias Hoßbach